[[{"header":{"parameterUnit":"m.s-1","parameterCategory":1,"la1":30.6,"la2":29.2853,"lo1":-89.7004,"lo2":-87.6739,"dy":0.0162,"dx":0.0183,"nx":112,"ny":82,"refTime":"2024-09-26T12:00:00:Z","depth":0,"parameterNumber":2,"parameterNumberName":"U-component_of_WINDS"},"data":[0.0,0.0,0.0,0.0,0.0,0.0,0.0,0.0,0.0,0.0,0.0,0.0,0.0,0.0,0.0,0.0,0.0,0.0,0.0,0.0,0.0,0.0,0.0,0.0,0.0,0.0,0.0,0.0,0.0,0.0,0.0,0.0,0.0,0.0,0.0,0.0,0.0,0.0,0.0,0.0,0.0,0.0,0.0,0.0,0.0,0.0,0.0,0.0,0.0,0.0,0.0,0.0,0.0,0.0,0.0,0.0,0.0,0.0,0.0,0.0,0.0,0.0,0.0,0.0,0.0,0.0,0.0,0.0,0.0,0.0,0.0,0.0,0.0,0.0,0.0,0.0,0.0,0.0,0.0,0.0,0.0,0.0,0.0,0.0,0.0,0.0,0.0,0.0,0.0,0.0,4.7246,5.1348,5.5898,5.8697,5.8723,6.2993,6.1974,5.3079,0.0,0.0,0.0,0.0,0.0,0.0,0.0,0.0,0.0,0.0,0.0,0.0,0.0,0.0,0.0,0.0,0.0,0.0,0.0,0.0,0.0,0.0,0.0,0.0,0.0,0.0,0.0,0.0,0.0,0.0,0.0,0.0,0.0,0.0,0.0,0.0,0.0,0.0,0.0,0.0,0.0,0.0,0.0,0.0,0.0,0.0,0.0,0.0,0.0,0.0,0.0,0.0,0.0,0.0,0.0,0.0,0.0,0.0,0.0,0.0,0.0,0.0,0.0,0.0,0.0,0.0,0.0,0.0,0.0,0.0,0.0,0.0,0.0,0.0,0.0,0.0,0.0,0.0,0.0,0.0,0.0,0.0,0.0,0.0,0.0,0.0,0.0,0.0,0.0,0.0,0.0,0.0,0.0,0.0,0.0,0.0,0.0,0.0,0.0,0.0,0.0,0.0,0.0,0.0,4.8379,5.5488,5.7969,6.0115,6.2348,6.3804,6.1645,5.4938,0.0,0.0,0.0,0.0,0.0,0.0,0.0,0.0,0.0,0.0,0.0,0.0,0.0,0.0,0.0,0.0,0.0,0.0,0.0,0.0,0.0,0.0,0.0,0.0,0.0,0.0,0.0,0.0,0.0,0.0,0.0,0.0,0.0,0.0,0.0,0.0,0.0,0.0,0.0,0.0,0.0,0.0,0.0,0.0,0.0,0.0,0.0,0.0,0.0,0.0,0.0,0.0,0.0,0.0,0.0,0.0,0.0,0.0,0.0,0.0,0.0,0.0,0.0,0.0,0.0,0.0,0.0,0.0,0.0,0.0,0.0,0.0,0.0,0.0,0.0,0.0,0.0,0.0,0.0,0.0,0.0,0.0,0.0,0.0,0.0,0.0,0.0,0.0,0.0,0.0,0.0,0.0,0.0,0.0,0.0,0.0,0.0,0.0,0.0,0.0,0.0,0.0,0.0,4.8047,5.1406,5.7305,5.8672,6.0115,6.2833,6.3794,6.245,5.812,5.4933,0.0,0.0,0.0,0.0,0.0,0.0,0.0,0.0,0.0,0.0,0.0,0.0,0.0,0.0,0.0,0.0,0.0,0.0,0.0,0.0,0.0,0.0,0.0,0.0,0.0,0.0,0.0,0.0,0.0,0.0,0.0,0.0,0.0,0.0,0.0,0.0,0.0,0.0,0.0,0.0,0.0,0.0,0.0,0.0,0.0,0.0,0.0,0.0,0.0,0.0,0.0,0.0,0.0,0.0,0.0,0.0,0.0,0.0,0.0,0.0,0.0,0.0,0.0,0.0,0.0,0.0,0.0,0.0,0.0,0.0,0.0,0.0,0.0,0.0,0.0,0.0,0.0,0.0,0.0,0.0,0.0,0.0,0.0,0.0,0.0,0.0,0.0,0.0,0.0,0.0,0.0,0.0,0.0,0.0,0.0,0.0,0.0,0.0,0.0,0.0,0.0,0.0,5.2324,5.4531,5.8125,5.8945,6.0477,6.3377,6.3259,6.2302,6.0308,5.469,0.0,0.0,0.0,0.0,0.0,0.0,0.0,0.0,0.0,0.0,0.0,0.0,0.0,0.0,0.0,0.0,0.0,0.0,0.0,0.0,0.0,0.0,0.0,0.0,0.0,0.0,0.0,0.0,0.0,0.0,0.0,0.0,0.0,0.0,0.0,0.0,0.0,0.0,0.0,0.0,0.0,0.0,0.0,0.0,0.0,0.0,0.0,0.0,0.0,0.0,0.0,0.0,0.0,0.0,0.0,0.0,0.0,0.0,0.0,0.0,0.0,0.0,0.0,0.0,0.0,0.0,0.0,0.0,0.0,0.0,0.0,0.0,0.0,0.0,0.0,0.0,0.0,0.0,0.0,0.0,0.0,0.0,0.0,0.0,0.0,0.0,0.0,0.0,0.0,0.0,0.0,0.0,0.0,0.0,0.0,0.0,0.0,0.0,0.0,0.0,0.0,0.0,5.3047,5.6855,5.8359,5.8945,6.1118,6.611,6.2216,5.9792,5.9978,5.3497,0.0,0.0,0.0,0.0,0.0,0.0,0.0,0.0,0.0,0.0,0.0,0.0,0.0,0.0,0.0,0.0,0.0,0.0,0.0,0.0,0.0,0.0,0.0,0.0,0.0,0.0,0.0,0.0,0.0,0.0,0.0,0.0,0.0,0.0,0.0,0.0,0.0,0.0,0.0,0.0,0.0,0.0,0.0,0.0,0.0,0.0,0.0,0.0,0.0,0.0,0.0,0.0,0.0,0.0,0.0,0.0,0.0,0.0,0.0,0.0,0.0,0.0,0.0,0.0,0.0,0.0,0.0,0.0,0.0,0.0,0.0,0.0,0.0,0.0,0.0,0.0,0.0,0.0,0.0,0.0,0.0,0.0,0.0,0.0,0.0,0.0,0.0,0.0,0.0,0.0,0.0,0.0,0.0,0.0,0.0,0.0,0.0,0.0,0.0,0.0,0.0,0.0,5.2109,5.5703,5.8613,6.0778,6.3112,6.6084,6.5249,6.3379,6.0932,0.0,0.0,0.0,0.0,0.0,0.0,0.0,0.0,0.0,0.0,0.0,0.0,0.0,0.0,0.0,0.0,0.0,0.0,0.0,0.0,0.0,0.0,0.0,0.0,0.0,0.0,0.0,0.0,0.0,0.0,0.0,0.0,0.0,0.0,0.0,0.0,0.0,0.0,0.0,0.0,0.0,0.0,0.0,0.0,0.0,0.0,0.0,0.0,0.0,0.0,0.0,0.0,0.0,0.0,0.0,0.0,0.0,0.0,0.0,0.0,0.0,0.0,0.0,0.0,0.0,0.0,0.0,0.0,0.0,0.0,0.0,0.0,0.0,0.0,0.0,0.0,0.0,0.0,0.0,0.0,0.0,0.0,0.0,0.0,0.0,0.0,0.0,0.0,0.0,0.0,0.0,0.0,0.0,0.0,0.0,0.0,0.0,0.0,0.0,0.0,0.0,0.0,4.793,5.2012,5.5566,5.8652,6.1516,6.3847,6.5594,6.5747,6.4211,6.0856,0.0,0.0,0.0,0.0,0.0,0.0,0.0,0.0,0.0,0.0,0.0,0.0,0.0,0.0,0.0,0.0,0.0,0.0,0.0,0.0,0.0,0.0,0.0,0.0,0.0,0.0,0.0,0.0,0.0,0.0,0.0,0.0,0.0,0.0,0.0,0.0,0.0,0.0,0.0,0.0,0.0,0.0,0.0,0.0,0.0,0.0,0.0,0.0,0.0,0.0,0.0,0.0,0.0,0.0,0.0,0.0,0.0,0.0,0.0,0.0,0.0,0.0,0.0,0.0,0.0,0.0,0.0,0.0,0.0,0.0,0.0,0.0,0.0,0.0,0.0,0.0,0.0,0.0,0.0,0.0,0.0,0.0,0.0,0.0,0.0,0.0,0.0,0.0,0.0,0.0,0.0,0.0,0.0,0.0,0.0,0.0,0.0,0.0,0.0,0.0,0.0,0.0,4.7715,5.3105,5.709,5.8418,6.1046,6.3377,6.4877,6.2616,6.0674,0.0,0.0,0.0,0.0,0.0,0.0,0.0,0.0,0.0,0.0,0.0,0.0,0.0,0.0,0.0,0.0,0.0,0.0,0.0,0.0,0.0,0.0,0.0,0.0,0.0,0.0,0.0,0.0,0.0,0.0,0.0,0.0,0.0,0.0,0.0,0.0,0.0,0.0,0.0,0.0,0.0,0.0,0.0,0.0,0.0,0.0,0.0,0.0,0.0,0.0,0.0,0.0,0.0,0.0,0.0,0.0,0.0,0.0,0.0,0.0,0.0,0.0,0.0,0.0,0.0,0.0,0.0,0.0,0.0,0.0,0.0,0.0,0.0,0.0,0.0,0.0,0.0,0.0,0.0,0.0,0.0,0.0,0.0,0.0,0.0,0.0,0.0,0.0,0.0,0.0,0.0,0.0,0.0,0.0,0.0,0.0,0.0,0.0,0.0,0.0,0.0,0.0,0.0,4.7715,5.3105,5.709,5.8418,6.2713,6.5459,6.5082,6.618,6.4653,5.9307,0.0,0.0,0.0,0.0,0.0,0.0,0.0,0.0,0.0,0.0,0.0,0.0,0.0,0.0,0.0,0.0,0.0,0.0,0.0,0.0,0.0,0.0,0.0,0.0,0.0,0.0,0.0,0.0,0.0,0.0,0.0,0.0,0.0,0.0,0.0,0.0,0.0,0.0,0.0,0.0,0.0,0.0,0.0,0.0,0.0,0.0,0.0,0.0,0.0,0.0,0.0,0.0,0.0,0.0,0.0,0.0,0.0,0.0,0.0,0.0,0.0,0.0,0.0,0.0,0.0,0.0,0.0,0.0,0.0,0.0,0.0,0.0,0.0,0.0,0.0,0.0,0.0,0.0,0.0,0.0,0.0,0.0,0.0,0.0,0.0,0.0,0.0,0.0,0.0,0.0,0.0,0.0,0.0,0.0,0.0,0.0,0.0,0.0,0.0,0.0,0.0,0.0,4.7715,5.2949,5.7166,5.9355,6.3607,6.6099,6.6116,6.8022,6.6312,5.9734,0.0,0.0,0.0,0.0,0.0,0.0,0.0,0.0,0.0,0.0,0.0,0.0,0.0,0.0,0.0,0.0,0.0,0.0,0.0,0.0,0.0,0.0,0.0,0.0,0.0,0.0,0.0,0.0,0.0,0.0,0.0,0.0,0.0,0.0,0.0,0.0,0.0,0.0,0.0,0.0,0.0,0.0,0.0,0.0,0.0,0.0,0.0,0.0,0.0,0.0,0.0,0.0,0.0,0.0,0.0,0.0,0.0,0.0,0.0,0.0,0.0,0.0,0.0,0.0,0.0,0.0,0.0,0.0,0.0,0.0,0.0,0.0,0.0,0.0,0.0,0.0,0.0,0.0,0.0,0.0,0.0,0.0,0.0,0.0,0.0,0.0,0.0,0.0,0.0,0.0,0.0,0.0,0.0,0.0,0.0,0.0,0.0,0.0,0.0,0.0,0.0,0.0,4.7715,5.2734,5.7269,6.0824,6.3783,6.6052,6.7693,6.8414,6.6363,6.0889,0.0,0.0,0.0,0.0,0.0,0.0,0.0,0.0,0.0,0.0,0.0,0.0,0.0,0.0,0.0,0.0,0.0,0.0,0.0,0.0,0.0,0.0,0.0,0.0,0.0,0.0,0.0,0.0,0.0,0.0,0.0,0.0,0.0,0.0,0.0,0.0,0.0,0.0,0.0,0.0,0.0,0.0,0.0,0.0,0.0,0.0,0.0,0.0,0.0,0.0,0.0,0.0,0.0,0.0,0.0,0.0,0.0,0.0,0.0,0.0,4.8535,4.5447,0.0,0.0,0.0,0.0,0.0,0.0,0.0,0.0,0.0,0.0,0.0,0.0,0.0,0.0,0.0,0.0,0.0,0.0,0.0,0.0,0.0,0.0,0.0,0.0,0.0,0.0,0.0,0.0,0.0,0.0,0.0,0.0,0.0,0.0,0.0,0.0,0.0,0.0,0.0,0.0,4.7715,5.2734,5.7269,6.0824,6.3783,6.6188,6.819,6.8793,6.7267,6.2596,5.7901,0.0,0.0,0.0,0.0,0.0,0.0,0.0,0.0,0.0,0.0,0.0,0.0,0.0,0.0,0.0,0.0,0.0,0.0,0.0,0.0,0.0,0.0,0.0,0.0,0.0,0.0,0.0,0.0,0.0,0.0,0.0,0.0,0.0,0.0,0.0,0.0,0.0,0.0,0.0,0.0,0.0,0.0,0.0,0.0,0.0,0.0,0.0,0.0,0.0,0.0,0.0,0.0,0.0,0.0,0.0,0.0,0.0,0.0,0.0,5.4285,5.1774,0.0,0.0,0.0,0.0,0.0,0.0,0.0,0.0,0.0,0.0,0.0,0.0,0.0,0.0,0.0,0.0,0.0,0.0,0.0,0.0,0.0,0.0,0.0,0.0,0.0,0.0,0.0,0.0,0.0,0.0,0.0,0.0,0.0,0.0,0.0,0.0,0.0,0.0,0.0,0.0,4.832,5.3945,5.8974,6.2546,6.5043,6.7508,6.9595,6.9621,6.802,6.463,6.1014,0.0,0.0,0.0,0.0,0.0,0.0,0.0,0.0,0.0,0.0,0.0,0.0,0.0,0.0,0.0,0.0,0.0,0.0,0.0,0.0,0.0,0.0,0.0,0.0,0.0,0.0,0.0,0.0,0.0,0.0,0.0,0.0,0.0,0.0,0.0,0.0,0.0,0.0,0.0,0.0,0.0,0.0,0.0,0.0,0.0,0.0,0.0,0.0,0.0,0.0,0.0,0.0,0.0,5.9357,6.0337,6.1667,6.1768,6.2873,6.4479,6.0613,5.9257,5.9382,5.4059,0.0,0.0,0.0,0.0,0.0,0.0,0.0,0.0,0.0,0.0,0.0,0.0,0.0,0.0,0.0,0.0,0.0,0.0,0.0,0.0,0.0,0.0,5.3659,5.432,5.7537,5.7967,4.8935,0.0,0.0,0.0,0.0,0.0,0.0,0.0,0.0,0.0,0.0,0.0,5.0314,5.6168,6.1389,6.4861,6.6788,6.8732,7.1073,7.0229,6.8723,6.6689,6.4153,6.1165,0.0,0.0,0.0,0.0,0.0,0.0,0.0,0.0,0.0,0.0,0.0,0.0,0.0,0.0,0.0,0.0,0.0,0.0,0.0,0.0,0.0,0.0,0.0,0.0,0.0,0.0,0.0,0.0,0.0,0.0,0.0,0.0,4.1731,4.3539,0.0,0.0,0.0,0.0,0.0,0.0,0.0,0.0,0.0,0.0,0.0,0.0,0.0,5.6897,5.9106,6.2295,6.4479,6.571,6.8572,7.0054,7.028,7.0757,7.141,7.2087,7.0506,0.0,6.0788,5.8529,0.0,0.0,0.0,0.0,0.0,0.0,0.0,0.0,0.0,0.0,0.0,0.0,0.0,0.0,0.0,0.0,0.0,0.0,0.0,0.0,0.0,0.0,6.1542,6.326,6.4036,6.4103,6.217,5.6178,5.0023,4.6311,4.4227,4.1995,0.0,0.0,0.0,0.0,0.0,0.0,5.5866,6.0172,6.4021,6.7163,6.7745,6.8876,7.1599,7.0782,6.9627,6.8371,6.6589,6.4705,6.2797,5.9257,0.0,0.0,0.0,0.0,0.0,0.0,0.0,0.0,0.0,0.0,0.0,0.0,0.0,0.0,0.0,0.0,0.0,0.0,0.0,0.0,0.0,0.0,0.0,0.0,0.0,0.0,0.0,0.0,0.0,4.1379,4.5095,4.5522,4.5422,4.4091,0.0,0.0,0.0,0.0,0.0,0.0,0.0,0.0,0.0,5.8303,6.0814,6.3199,6.5434,6.7819,6.9577,7.0706,7.2163,7.3016,7.3318,7.496,7.5729,7.6098,7.6373,7.4487,7.081,6.447,6.001,5.6846,0.0,0.0,0.0,0.0,5.5189,5.5516,5.883,5.9257,5.8102,5.6696,0.0,0.0,0.0,0.0,0.0,0.0,0.0,5.4292,5.7703,6.1327,6.4556,6.634,6.7166,6.7392,6.6513,6.3249,5.8902,5.3576,5.2247,4.9916,4.3231,4.3663,0.0,0.0,0.0,5.4265,5.821,6.2356,6.5722,6.7247,6.8604,6.9795,7.0983,7.0531,7.0054,6.9577,6.915,6.817,6.6538,6.3927,6.0072,0.0,0.0,0.0,0.0,0.0,0.0,0.0,0.0,0.0,0.0,0.0,0.0,0.0,0.0,0.0,0.0,0.0,0.0,0.0,0.0,0.0,0.0,0.0,0.0,0.0,0.0,0.0,0.0,4.5547,4.836,4.7657,4.8812,4.7983,0.0,0.0,0.0,0.0,0.0,0.0,5.6143,5.8905,6.1642,6.4254,6.6589,6.8823,7.0907,7.2012,7.3117,7.4222,7.4071,7.4733,7.6138,7.776,7.8831,7.9626,8.0248,8.0276,7.9135,7.0726,6.6081,6.3803,6.1706,6.0397,5.9845,6.1961,6.2078,6.1567,6.5409,6.6036,6.4781,6.2697,6.1014,5.9006,5.4838,0.0,0.0,0.0,0.0,5.9608,6.2521,6.4705,6.6488,6.7894,6.8848,6.9225,6.8396,6.7794,6.576,6.0211,5.9483,5.735,4.9768,5.0547,0.0,5.0731,5.4251,5.8204,6.1527,6.5133,6.7477,6.7912,6.9474,7.0405,7.028,7.0255,7.0255,7.0255,7.0656,7.033,6.91,6.7568,6.463,6.0085,0.0,0.0,0.0,0.0,0.0,0.0,0.0,0.0,0.0,0.0,0.0,0.0,0.0,0.0,0.0,0.0,0.0,0.0,0.0,0.0,0.0,0.0,0.0,0.0,0.0,0.0,0.0,0.0,0.0,5.1147,5.4285,0.0,0.0,0.0,0.0,5.4034,5.765,6.0814,6.3073,6.581,6.8321,7.0556,7.1786,7.3217,7.4925,7.4523,7.4849,7.5929,7.5402,7.6995,8.0437,7.9883,8.1205,8.3868,8.2836,8.2159,8.1245,7.6927,7.4712,7.3854,7.2184,7.0515,6.8936,6.9095,6.8384,6.7442,6.8221,6.7769,6.7091,6.8497,6.6086,6.2571,6.2295,6.0387,0.0,0.0,6.2421,6.4505,6.6262,6.7593,6.8597,6.9225,6.9401,6.9426,6.9376,6.8924,6.7819,6.5358,6.3651,6.1969,5.9804,0.0,5.9328,6.038,6.1995,6.4219,6.7016,6.902,7.0072,7.0097,7.0732,7.0832,7.0305,7.0255,7.0255,7.0255,7.028,7.0255,7.0179,6.91,6.689,6.35,5.9583,0.0,0.0,0.0,0.0,0.0,0.0,0.0,0.0,0.0,0.0,0.0,0.0,0.0,0.0,0.0,0.0,0.0,0.0,0.0,0.0,0.0,0.0,0.0,0.0,0.0,0.0,0.0,0.0,5.5541,5.8328,0.0,5.5465,5.8877,6.1711,6.2527,6.7001,7.0718,7.2922,7.4606,7.6323,7.7932,7.8555,7.909,7.9331,7.9866,8.0188,8.0241,8.0402,8.1043,8.235,8.3807,8.4916,8.6004,8.6773,8.6991,8.6642,8.4795,8.155,7.7538,7.726,7.6316,7.5094,7.6027,7.4567,7.2185,7.2756,7.1423,6.9602,6.9476,6.7894,6.6036,6.6036,6.5333,6.4756,6.571,6.6538,6.7367,6.8321,6.8848,6.92,6.9401,6.9451,6.9451,6.9451,6.93,6.8924,6.812,6.6639,6.463,6.1868,6.2697,6.3525,6.2898,6.4806,6.694,6.8648,6.9376,6.9727,6.9727,7.0229,7.033,6.9777,7.038,7.0631,7.028,7.0581,7.0631,7.028,6.9551,6.7744,6.4781,6.1969,5.715,0.0,0.0,0.0,0.0,0.0,0.0,0.0,0.0,0.0,0.0,0.0,0.0,0.0,0.0,0.0,0.0,0.0,0.0,0.0,0.0,0.0,0.0,0.0,0.0,0.0,5.4587,5.8504,5.8704,6.1994,6.3451,6.1505,6.5319,6.8706,7.0664,7.4444,7.7343,7.9197,8.0083,8.0996,8.1993,8.2229,8.2339,8.2118,8.2892,8.3112,8.2753,8.3112,8.3779,8.4877,8.6334,8.764,8.8562,8.9793,9.0309,9.0309,8.986,8.699,8.2993,8.2965,8.1944,8.0616,8.1063,7.9348,7.6591,7.6564,7.4748,7.2394,7.1269,6.9917,6.8597,6.8422,6.8346,6.8422,6.8798,6.8899,6.8974,6.9351,6.9451,6.9451,6.9451,6.9451,6.9451,6.9451,6.9451,6.9451,6.9451,6.8547,6.7041,6.4655,6.5911,6.6815,6.5534,6.7066,6.8622,6.9351,6.9451,6.9451,6.9451,6.9928,7.0054,6.9501,6.9777,6.9903,6.9727,6.9351,6.9049,6.8874,6.8145,6.6714,6.4505,6.2119,5.8554,5.3758,0.0,0.0,0.0,0.0,0.0,0.0,0.0,0.0,0.0,0.0,0.0,0.0,0.0,0.0,0.0,0.0,0.0,0.0,0.0,0.0,0.0,0.0,0.0,5.3884,5.8202,6.1165,6.0821,6.5578,6.8259,6.6872,7.0777,7.4751,7.8089,7.948,8.0672,8.1865,8.1949,8.2198,8.2809,8.2836,8.2906,8.346,8.3487,8.3487,8.346,8.3487,8.5084,8.8101,8.7467,8.8792,9.1626,9.1626,9.1626,9.1626,9.1626,9.1267,9.0549,8.9262,8.7293,8.5216,8.461,8.2794,8.0664,7.9418,7.7443,7.5364,7.4253,7.2344,7.0361,6.9808,6.9476,6.9451,6.9451,6.9451,6.9451,6.9451,6.9451,6.9451,6.9451,6.9451,6.9451,6.9451,6.9451,6.9451,6.9451,6.9451,6.9275,6.8748,6.91,6.925,6.8723,6.91,0.0,6.9451,6.9451,6.9451,6.9451,6.9928,7.0054,6.9501,6.8447,6.8045,6.8547,6.6513,6.5534,6.6112,6.5082,6.4028,6.2948,6.0236,5.8278,5.7123,0.0,0.0,0.0,0.0,0.0,0.0,0.0,0.0,0.0,0.0,0.0,0.0,0.0,0.0,0.0,0.0,0.0,0.0,0.0,0.0,0.0,5.4461,5.7901,5.7901,6.222,6.6391,6.9059,7.2226,7.4968,7.6601,7.9854,8.2284,8.3164,8.5113,8.6726,8.738,8.7577,8.7703,8.8348,8.8377,8.823,8.7937,8.8377,8.8377,8.7937,8.8377,8.9334,9.0663,8.9842,9.0268,9.1626,9.1626,9.1626,9.1656,9.2135,9.1955,9.1267,9.0429,8.9143,8.7817,8.8113,8.603,8.2824,8.0436,7.8816,7.7885,7.7557,7.6857,7.5531,7.3277,7.2591,7.2159,7.0067,6.9451,6.9451,6.9451,6.9451,6.9451,6.9451,6.9451,6.9451,6.9451,6.9451,6.9451,6.9451,6.9451,6.9401,6.925,6.9351,6.9401,6.925,6.9351,6.9451,6.9451,6.9451,6.9451,6.9451,6.9928,7.0054,6.9501,6.8798,6.812,6.7467,6.6086,6.5735,6.6689,6.6036,6.5509,6.5208,6.2496,6.0537,0.0,0.0,0.0,0.0,0.0,0.0,0.0,0.0,0.0,0.0,0.0,0.0,0.0,0.0,0.0,0.0,0.0,0.0,0.0,0.0,0.0,0.0,5.9533,6.3098,6.464,6.7466,7.0932,7.4993,7.7052,7.9319,8.2359,8.4163,8.5757,8.692,8.8367,8.9501,9.0429,9.0219,9.0489,9.1416,9.0908,9.0579,9.0489,9.0579,9.0429,9.007,9.0728,9.1237,9.1626,9.1506,9.1656,9.2045,9.2314,9.2434,9.2464,9.2853,9.2613,9.1955,0.0,0.0,0.0,0.0,8.7936,8.535,8.3721,8.1944,8.0702,8.0448,7.9435,7.7854,7.5061,7.4201,7.3566,7.0627,6.9777,6.9727,6.9501,6.9451,6.9451,6.9451,6.9451,6.9451,6.9451,6.9451,6.9451,6.9451,6.9451,0.0,6.9451,6.9451,6.9451,6.9451,6.9451,6.9451,6.9451,6.9451,6.9451,6.9451,6.9727,6.9777,6.9476,6.8522,0.0,0.0,0.0,6.5132,6.5584,6.5283,0.0,0.0,0.0,0.0,0.0,6.4655,0.0,0.0,5.6521,5.4118,0.0,0.0,0.0,0.0,0.0,0.0,0.0,0.0,0.0,0.0,0.0,0.0,0.0,0.0,0.0,0.0,6.5046,6.9205,7.2702,7.3764,7.5391,7.8809,8.0485,8.2387,8.5245,8.5757,8.6978,8.9546,8.983,9.0399,9.1566,9.1147,0.0,0.0,0.0,9.1087,9.1626,9.1027,9.0698,9.0638,9.1297,9.1656,9.1746,9.2344,9.2643,9.2733,9.3332,9.3571,9.3601,9.3661,9.3302,9.2613,9.1835,9.1147,9.0549,8.989,8.8933,8.7915,8.7856,0.0,0.0,8.3207,8.1625,7.9401,7.6324,7.5462,7.4827,7.1704,7.0877,7.0594,6.9752,6.9627,6.9627,6.9627,6.9627,6.9602,6.9551,6.9526,6.9526,6.9451,6.9451,6.9451,6.9451,6.9451,6.9451,6.9451,6.9451,6.9451,6.9451,6.9451,6.9476,6.9526,6.9526,0.0,6.9526,6.807,6.7317,6.7693,6.5911,6.463,6.4178,6.4454,6.5258,6.6639,6.7292,6.8823,7.1259,7.2389,7.3242,7.3694,6.4641,6.1094,0.0,0.0,0.0,0.0,0.0,0.0,0.0,0.0,0.0,0.0,0.0,0.0,0.0,0.0,0.0,6.6422,7.0877,7.5104,7.9004,8.0552,8.1401,8.162,8.3332,8.5327,8.7787,8.8932,8.9782,9.0429,9.0938,9.1357,9.1596,9.2015,9.2344,9.2583,9.2344,9.2015,9.1626,9.1506,9.1177,9.0638,9.1297,0.0,9.2404,9.2554,9.2883,9.3391,9.3511,9.3571,9.3631,9.4169,9.402,9.3212,9.1506,9.0758,9.0549,8.989,8.9501,8.9202,8.8693,8.807,8.7476,8.6823,8.6424,8.5345,8.1929,8.0893,0.0,7.5179,7.3835,7.3299,7.1307,7.0757,7.0757,7.0757,7.0757,7.0631,7.0204,7.0104,6.9978,6.9526,6.9451,6.9451,6.9451,6.9451,6.9451,6.9451,6.9451,6.9451,6.9451,6.9451,6.9627,7.0054,7.0104,7.0104,7.0104,6.8999,6.797,6.7191,6.7141,6.7116,6.7015,6.915,7.0255,7.0129,7.1108,7.1887,7.2414,7.3544,7.4598,7.5527,7.0665,6.8937,0.0,0.0,0.0,0.0,0.0,0.0,0.0,0.0,0.0,0.0,0.0,5.9229,6.2696,0.0,6.8861,7.2016,7.5131,7.8317,8.1484,8.308,8.4106,8.5022,8.6403,8.8049,8.9457,9.0249,9.0638,9.0638,9.1237,9.1776,9.2105,9.2434,9.2913,9.3571,9.2943,9.2434,9.2105,9.1776,9.1446,9.1147,9.1805,9.2464,9.3092,9.3451,9.378,9.411,9.411,9.411,9.411,9.411,9.39,9.3451,9.2135,9.1416,9.1087,9.0758,9.0219,8.9621,8.9292,8.8963,8.8634,8.8304,8.7975,8.7235,8.4126,8.3001,8.1906,7.7839,7.5959,7.4691,7.3199,7.1927,7.1083,7.1083,7.1083,7.1008,7.0732,7.0455,7.0255,7.0255,6.9828,6.9526,6.9803,6.9853,6.9752,6.9501,6.9677,6.9752,6.9476,6.9677,6.9953,7.0229,7.0255,7.038,7.0656,7.0179,6.9627,6.9074,6.9551,6.9853,6.9853,7.1435,7.2313,7.2339,7.3418,7.4121,7.4397,7.5778,7.6908,7.7712,7.6147,7.4521,0.0,0.0,0.0,0.0,0.0,0.0,0.0,5.5709,5.8287,6.2383,6.497,6.7548,7.1338,7.3359,7.5072,7.7118,7.9044,8.0924,8.2976,8.4155,8.5574,8.7515,8.8873,8.986,9.0399,9.0549,9.0698,9.0818,9.1446,9.2105,9.2763,9.2913,9.3481,9.4588,9.3541,9.2913,9.2793,9.2254,9.1925,9.1805,9.2464,9.3062,9.3601,9.4289,9.4618,9.4618,9.4618,9.4618,9.4558,9.402,9.378,9.3721,9.3212,9.2583,9.1985,9.1865,9.1057,9.004,9.004,8.9621,8.9052,8.8903,8.8424,8.7533,8.5438,8.4416,8.3253,8.0504,7.8277,7.6618,7.5304,7.3457,7.1914,7.157,7.141,7.1359,7.1259,7.0907,7.0681,7.1008,7.038,6.9903,7.0355,7.043,7.0229,6.9677,7.0079,7.0255,6.9828,7.0154,7.0455,7.0556,7.0581,7.0807,7.1359,7.1309,7.1284,7.1384,7.1937,7.2238,7.2238,7.2966,7.3594,7.4071,7.5151,7.5979,7.6532,7.7988,7.8992,7.957,8.0122,7.8618,5.277,5.3575,5.5262,5.9309,5.8767,5.9914,0.0,7.0025,6.9225,7.2518,7.4678,7.6138,7.6723,7.8451,8.0133,8.157,8.3497,8.5219,8.6132,8.6877,8.7354,8.7706,8.8873,8.9711,8.9771,9.0309,9.0878,9.1446,9.2135,9.2763,9.3421,9.405,9.4469,9.4618,9.4469,9.408,9.3481,9.3391,9.3062,9.2494,9.3152,9.3511,9.3601,9.4289,9.4618,9.4618,9.4618,9.4618,9.4588,9.4528,9.4499,9.4499,9.4409,9.396,9.3272,9.2703,9.2015,9.1416,9.1416,9.0968,9.0309,8.9741,8.9112,8.8454,8.7533,8.6877,8.5801,8.3448,8.2559,8.1322,7.7083,7.5849,7.5147,7.3078,7.2539,7.2414,7.1912,7.1761,7.1585,7.1158,7.0983,7.0907,7.0983,7.0983,7.0807,7.0255,7.0631,7.0958,7.0907,7.0958,7.1184,7.1661,7.1736,7.1937,7.2489,7.2087,7.2012,7.2514,7.3092,7.3418,7.3418,7.4875,7.5703,7.5778,7.6858,7.7687,7.8239,7.8942,7.957,8.0122,8.0675,8.089,6.1912,6.272,6.3288,6.6011,6.8147,7.0637,7.4527,7.582,7.6851,7.907,8.063,8.175,8.1721,8.2694,8.3696,8.4227,8.5496,8.6359,8.6629,8.6928,8.6958,8.6569,8.7347,8.8394,8.9561,8.992,9.0489,9.1536,9.2224,9.2883,9.3541,9.4229,9.4618,9.4618,9.4618,9.4289,9.3601,9.3571,9.3451,9.3182,9.3451,9.378,9.4199,9.4469,9.4618,9.4618,9.4618,9.4618,9.4618,9.4618,9.4618,9.4618,9.4618,9.4439,9.411,9.3421,9.2524,9.1626,9.1626,9.1177,9.0608,9.0339,8.9801,8.9142,8.8484,8.7796,8.7007,8.5568,8.4223,8.2841,8.0752,7.9164,7.7601,7.5355,7.4829,7.4223,7.279,7.2138,7.1937,7.2012,7.151,7.1184,7.151,7.156,7.1485,7.1259,7.141,7.1435,7.1133,7.1359,7.1661,7.1887,7.2188,7.2615,7.3167,7.3016,7.3117,7.3669,7.4247,7.4548,7.4548,7.5829,7.6532,7.6532,7.7611,7.8465,7.9018,7.9595,8.0298,8.1152,8.1378,8.1779,6.6789,6.8315,6.9482,7.1188,7.5168,7.8549,7.816,8.0045,8.211,8.2888,8.3936,8.4654,8.4474,8.4983,8.5492,8.5671,8.609,8.6389,8.6389,8.624,8.597,8.5492,8.5671,8.6569,8.8394,8.9082,8.995,9.1237,9.2135,9.2883,9.3541,9.4229,9.4618,9.4618,9.4618,9.4379,9.387,9.387,9.387,9.387,9.387,9.4139,9.4618,9.4618,9.4618,9.4618,9.4618,9.4618,9.4618,9.4618,9.4618,9.4618,9.4618,9.4618,9.4558,9.405,9.3152,9.2135,9.1955,9.1446,9.0878,9.0698,9.019,8.9591,8.9112,8.8514,8.7826,8.7137,8.5715,8.4291,8.3398,8.1972,7.9916,7.7124,7.6479,7.5774,7.3483,7.2765,7.2615,7.2715,7.2213,7.1861,7.2087,7.2138,7.2138,7.2138,7.2138,7.1987,7.1585,7.2037,7.2364,7.2364,7.2866,7.3418,7.3996,7.4046,7.4272,7.4824,7.5377,7.5678,7.5678,7.6758,7.7335,7.7335,7.8415,7.9193,7.962,8.0323,8.1051,8.1805,8.198,8.2282,6.4814,6.7897,7.2445,7.5078,7.825,8.1183,8.3068,8.4055,8.4414,8.3816,8.4235,8.4504,8.3876,8.4295,8.4953,8.5581,8.5701,8.5731,8.5731,8.5162,8.4773,8.4743,8.4205,8.4354,8.5671,8.7586,8.9262,9.0579,9.1865,9.2883,9.3541,9.4229,9.4618,9.4618,9.4618,9.4588,9.4588,9.4588,9.4588,9.4588,9.4588,9.4588,9.4618,9.4618,9.4618,9.4618,9.4618,9.4618,9.4618,9.4618,9.4618,9.4618,9.4618,9.4618,9.4618,9.4588,9.4139,9.3421,9.2793,9.2135,9.1476,9.0848,9.019,8.9681,8.9651,8.9172,8.8514,8.7856,8.7676,8.6823,8.4039,8.3174,8.2114,7.802,7.7112,7.6401,7.4091,7.3971,7.4021,7.2941,7.3167,7.3343,7.2791,7.2715,7.2715,7.2715,7.2715,7.269,7.269,7.3192,7.3544,7.3544,7.4046,7.4598,7.5151,7.5201,7.5427,7.5979,7.6532,7.6833,7.6833,7.7888,7.8465,7.8465,7.9595,8.0173,8.0198,8.1252,8.1779,8.183,8.2382,8.2658,7.0829,7.3821,7.6485,7.9148,8.1931,8.4235,8.4893,8.5192,8.5162,8.4504,8.3876,8.3217,8.2559,8.2978,8.3636,8.4295,8.5132,8.5701,8.5701,8.5881,8.5372,8.3636,8.3995,8.4205,8.3786,8.594,8.8095,8.986,9.1207,9.2434,9.3511,9.4229,9.4618,9.4618,9.4618,9.4618,9.4618,9.4618,9.4618,9.4618,9.4618,9.4618,9.4618,9.4618,9.4618,9.4618,9.4618,9.4618,9.4618,9.4618,9.4618,9.4618,9.4618,9.4618,9.4618,9.4618,9.4469,9.4169,9.3481,9.2524,9.1566,9.1357,9.0848,9.0219,8.9801,8.9501,8.9112,8.8005,8.7706,8.7366,8.5979,8.5774,8.5475,8.2538,8.2185,8.1411,7.7322,7.6472,7.5806,7.4203,7.372,7.3544,7.3343,7.3293,7.3293,7.3293,7.2966,7.2866,7.3268,7.3468,7.3745,7.4096,7.4297,7.4649,7.5201,7.5251,7.5628,7.6532,7.6783,7.7034,7.7411,7.8139,7.8716,7.9093,7.9821,8.0574,8.1277,8.1629,8.2005,8.2382,8.2583,8.2683,7.5347,7.7711,7.9267,8.2409,8.4444,8.5701,8.5701,8.5521,8.4893,8.3307,8.1901,8.0644,7.9507,7.9656,8.0554,8.238,8.3786,8.4983,8.591,8.6419,8.606,8.4354,8.4684,8.4833,8.4205,8.591,8.7586,8.8873,9.0818,9.2434,9.3511,9.4469,9.5067,9.5306,9.5097,9.4977,9.4977,9.4738,9.4618,9.4618,9.4618,9.4618,9.4618,9.4618,9.4738,9.4977,9.4977,9.4977,9.4977,9.4977,9.4828,9.4618,9.4618,9.4618,9.4618,9.4618,9.4618,9.4499,9.381,9.2883,9.1925,9.1686,9.1327,9.0878,9.0219,9.019,9.01,8.8783,8.8394,8.8245,8.7586,8.7736,8.7579,8.5322,8.5161,8.4187,7.9331,7.8141,7.729,7.4951,7.4297,7.4121,7.392,7.3895,7.3895,7.3895,7.3569,7.3468,7.3845,7.4071,7.4322,7.4674,7.4875,7.5151,7.5502,7.5703,7.613,7.6833,7.726,7.7637,7.7988,7.8716,7.9294,7.967,8.0398,8.1127,8.1805,8.2005,8.2307,8.2683,8.2683,8.2683,7.81,7.9537,8.1033,8.4803,8.5731,8.5671,8.5671,8.5043,8.3547,8.0255,7.843,7.6844,7.4809,7.4659,7.6125,7.9926,8.1871,8.3786,8.6329,8.6748,8.6808,8.6748,8.624,8.612,8.6718,8.7437,8.7856,8.7915,9.0818,9.2913,9.3601,9.4917,9.5905,9.6503,9.5965,9.5606,9.5546,9.4917,9.4618,9.4618,9.4618,9.4618,9.4618,9.4618,9.4977,9.5606,9.5546,9.5546,9.5606,9.5546,9.5157,9.4618,9.4618,9.4618,9.4618,9.4618,9.4618,9.4499,9.381,9.3152,9.2494,9.1835,9.1596,9.1446,9.0818,9.1087,9.1297,9.001,8.9681,8.9531,8.8843,8.8723,8.8353,8.6623,8.6255,8.5014,8.0344,7.9653,7.9003,7.5422,7.49,7.5075,7.4548,7.4423,7.4423,7.4448,7.4448,7.4448,7.4448,7.4925,7.5251,7.5327,7.5778,7.6105,7.613,7.6632,7.6933,7.6959,7.7938,7.854,7.8566,7.962,8.0223,8.0248,8.1277,8.183,8.1855,8.2407,8.2683,8.2683,8.2683,8.2683,8.0853,8.2948,8.4564,8.606,8.606,8.5581,8.5073,8.2948,8.0135,7.6814,7.43,7.1757,6.8824,7.1876,7.5377,7.6904,8.1542,8.5342,8.6509,8.7975,8.8544,8.7556,0.0,8.8544,8.8215,8.9202,9.01,9.0579,9.1835,9.3122,9.4289,9.5606,9.6174,9.5845,9.6144,9.5845,9.4858,9.4708,9.4618,9.4618,9.4618,9.4618,9.4618,9.4618,9.4977,9.5576,9.5067,9.5127,9.5546,9.5067,9.4768,9.4618,9.4618,9.4618,9.4618,9.4618,9.4618,9.4499,9.381,9.3152,9.2494,9.1835,9.1297,9.0848,9.0698,9.0758,9.0728,8.989,8.9681,8.9531,8.8843,8.9052,8.9278,8.8902,8.9122,8.8576,8.5669,8.4708,8.3265,7.9061,7.6689,7.5201,7.505,7.4699,7.4548,7.4975,7.5025,7.5025,7.5025,7.5151,7.5552,7.6381,7.6582,7.6833,7.726,7.7411,7.7662,7.8088,7.8365,7.8716,7.9143,7.9846,8.0398,8.0825,8.1478,8.2031,8.2457,8.2608,8.2683,8.2683,8.2683,8.2683,8.3307,8.5073,8.615,8.621,8.5761,8.4564,8.1871,7.9148,7.5856,7.1098,6.8704,6.646,6.3169,6.7897,7.2595,7.3552,7.9956,8.5372,8.6898,8.9082,9.0249,0.0,9.0339,0.0,9.0429,9.1327,9.2194,9.2883,9.3272,9.405,9.5396,9.6174,9.6533,9.6414,9.6234,9.5666,9.4618,9.4618,9.4618,9.4618,9.4618,9.4618,9.4618,9.4917,9.5247,9.5606,9.5785,9.5755,9.5576,9.5516,9.5127,9.4618,9.4618,9.4618,9.4618,9.4618,9.4618,9.4499,9.381,9.3332,9.2883,9.1925,9.1386,9.1027,9.0728,9.0848,9.0938,9.0279,9.01,9.001,8.9621,8.9801,9.01,9.01,9.0369,8.9912,8.7524,8.6716,8.5118,8.0562,7.746,7.5603,7.5603,7.5352,7.5251,7.5552,7.5804,7.5954,7.5954,7.5753,7.5829,7.6456,7.6733,7.7009,7.731,7.7787,7.8189,7.8515,7.8992,7.9419,7.9746,8.0499,8.1051,8.1378,8.1905,8.2332,8.2683,8.2683,8.2683,8.2683,8.2683,8.2683,8.5342,8.624,8.6509,8.5761,8.4863,8.2828,7.7622,7.4569,7.1009,6.4545,6.266,6.1164,5.7932,6.3288,6.8764,7.038,7.7652,8.4175,8.7257,8.9801,9.1446,9.1716,9.2404,9.2913,9.2972,9.3601,9.4259,9.4947,9.4977,9.5486,9.6623,9.6773,9.7072,9.7611,9.6384,9.5456,9.4888,9.4798,9.4708,9.4618,9.4618,9.4618,9.4618,9.5277,9.5636,9.5785,9.6892,9.6803,9.5875,9.6264,9.5785,9.4738,9.4648,9.4618,9.4618,9.4618,9.4618,9.4499,9.381,9.3571,9.3361,9.2045,9.1626,9.1506,9.0848,9.1027,9.1386,9.0788,9.0638,9.0638,9.0638,9.0698,9.0758,9.0668,9.0698,9.0198,8.7927,8.7178,8.572,8.1523,7.8439,7.6621,7.6621,7.6303,7.6155,7.6155,7.6632,7.6984,7.6984,7.6582,7.6306,7.6381,7.6808,7.7134,7.721,7.8088,7.8666,7.8741,7.967,8.0248,8.0323,8.1277,8.1805,8.1805,8.2382,8.2683,8.2683,8.2683,8.2683,8.2683,8.2683,8.2683,8.627,8.6599,8.6389,8.5192,8.3158,8.0225,7.5497,7.0769,6.5802,6.0266,5.8201,5.6526,5.3743,5.9189,6.5263,6.8764,7.5138,8.1542,8.6958,8.9023,9.0608,9.2254,9.3511,9.4469,9.5007,9.5666,9.6324,9.6952,9.6982,9.7102,9.7311,9.788,9.8239,9.8329,9.7072,9.6354,9.6234,9.5695,9.5157,9.4618,9.4618,9.4618,9.4618,9.5277,9.5875,9.6414,9.6623,9.6892,9.7102,9.6144,9.5636,9.5366,9.4828,9.4618,9.4618,9.4618,9.4618,9.4499,9.381,9.3571,9.3361,9.2045,9.1626,9.1506,9.0848,9.0728,9.0788,9.0668,9.0638,9.0638,9.0638,9.1027,9.1327,9.0758,9.1057,9.1129,9.0198,8.8441,8.6801,8.5896,8.2078,7.918,7.918,7.7711,7.6733,7.6733,7.721,7.7561,7.7561,7.7486,7.7586,7.8038,7.8189,7.844,7.8917,7.9118,7.9419,7.9896,8.0097,8.0424,8.0876,8.1478,8.1805,8.1805,8.2382,8.2683,8.2683,8.2683,8.2683,8.2683,8.2683,8.2683,8.6509,8.6689,8.627,8.4624,8.223,7.8549,7.1816,6.6759,6.1762,5.5777,5.4042,5.2995,5.102,5.6615,6.2271,6.4515,7.0679,7.7412,8.3726,8.6329,8.8843,9.2194,9.408,9.5247,9.5576,9.6473,9.7162,9.7461,9.782,9.803,9.803,9.8,9.785,9.7521,9.6892,9.6414,9.6055,9.6084,9.5785,9.5127,9.5456,9.5636,9.5666,9.6294,9.6563,9.6623,9.7281,9.7371,9.6982,9.6713,9.6204,9.5546,9.5247,9.5127,9.5127,9.5127,9.5127,9.5127,9.5127,9.4678,9.402,9.3391,9.2703,9.2075,9.1746,9.1416,9.1147,9.1147,9.1147,9.1147,9.1147,9.1626,9.1955,9.1297,9.1386,9.1536,9.1207,8.931,8.7379,8.7062,8.2997,7.9804,8.0121,7.8359,7.6984,7.726,7.7762,7.8139,7.8139,7.839,7.8465,7.8139,7.834,7.8766,7.9344,7.9645,8.0047,8.0599,8.0901,8.1152,8.1428,8.1955,8.2257,8.2257,8.2533,8.2683,8.2683,8.2683,8.2683,8.2683,8.2683,8.2683,8.6329,8.6479,8.6,8.4025,8.1123,7.6604,6.8435,6.3199,5.8291,5.2067,5.069,5.0331,4.9434,5.4281,5.9039,6.1014,6.667,7.3343,8.0554,8.4085,8.7586,9.2075,9.4499,9.5845,9.5995,9.7042,9.77,9.77,9.8209,9.8538,9.8538,9.8,9.7491,9.7012,9.6982,9.6683,9.5995,9.6503,9.6444,9.5815,9.6324,9.6563,9.6593,9.7222,9.7222,9.6833,9.8,9.794,9.7012,9.7341,9.6892,9.5995,9.5845,9.5785,9.5785,9.5785,9.5785,9.5875,9.6384,9.5905,9.5007,9.4858,9.39,9.2793,9.2643,9.2254,9.1805,9.1656,9.1716,9.1805,9.1656,9.2194,9.2673,9.2165,9.1925,9.1835,9.1835,9.0241,8.8683,8.8016,8.4099,8.0774,8.1227,7.9111,7.7385,7.7812,7.834,7.8716,7.8716,7.9093,7.9043,7.8164,7.844,7.8942,7.952,7.9972,8.0499,8.1152,8.1579,8.1855,8.198,8.2432,8.2683,8.2683,8.2683,8.2683,8.2683,8.2683,8.2683,8.2683,8.2683,8.2683,8.5761,8.5791,8.5312,8.3337,7.9058,7.3552,6.6759,6.0745,5.5269,5.0451,4.8985,4.8716,4.9164,5.1259,5.491,6.1014,6.5054,7.059,7.9627,8.4205,8.8125,9.2135,9.4888,9.6713,9.7252,9.8,9.8419,9.8419,9.8478,9.8538,9.8538,9.8478,9.8389,9.8359,9.8359,9.8,9.7311,9.7371,9.7102,9.6473,9.6533,9.6563,9.6593,9.7222,9.7461,9.7461,9.8209,9.8448,9.8299,9.773,9.7431,9.7252,9.6713,9.6473,9.6473,9.6473,9.6473,9.6503,9.6563,9.6503,9.6294,9.5695,9.4588,9.3391,9.2793,9.2554,9.2374,9.1776,9.2045,9.2374,9.1776,9.2554,9.3481,9.3421,9.2943,9.2524,9.2524,9.1846,9.123,9.117,8.7105,8.3822,8.3877,8.0883,7.839,7.844,7.8942,7.9319,7.9319,7.9344,7.9344,7.9243,7.9269,7.9545,8.0097,8.0173,8.065,8.1679,8.1779,8.2056,8.2558,8.2633,8.2683,8.2683,8.2683,8.2683,8.2683,8.2683,8.2683,8.2683,8.2683,8.2683,8.5252,8.5701,8.5222,8.3247,7.8789,7.3133,6.652,6.0446,5.485,5.0212,4.8446,4.8027,4.9075,4.9912,5.2217,5.7663,5.9638,6.3438,7.1876,7.6155,8.0913,8.7646,9.1476,9.4618,9.7252,9.8119,9.8538,9.8538,9.8538,9.8538,9.8538,9.8538,9.8538,9.8538,9.8538,9.8179,9.7491,9.791,9.779,9.7132,9.7551,9.773,9.776,9.8,9.8119,9.8119,9.8419,9.8538,9.8508,9.8239,9.788,9.7461,9.7222,9.7132,9.7132,9.7132,9.7132,9.7192,9.7611,9.7222,9.6593,9.6713,9.5845,9.4678,9.402,9.3511,9.3152,9.2883,9.3002,9.3122,9.2853,9.3182,9.3691,9.411,9.3691,9.3182,9.3182,9.2972,9.2673,9.2284,8.9439,8.6768,8.5453,8.2745,8.0337,7.9172,7.9243,7.9394,7.9394,7.967,7.9871,7.9871,7.9871,8.0097,8.065,8.1001,8.1503,8.2282,8.2332,8.2432,8.2658,8.2683,8.2683,8.2683,8.2683,8.2683,8.2683,8.2683,8.2683,8.2683,8.2683,8.2859,8.3576,8.4684,8.4654,8.2679,7.822,7.2624,6.6191,6.0146,5.467,5.0421,4.8506,4.7997,4.9314,4.9553,5.102,5.5448,5.6645,5.9877,6.8016,7.1996,7.6963,8.4773,8.8693,9.2224,9.5965,9.767,9.8538,9.8538,9.8538,9.8538,9.8538,9.8538,9.8538,9.8538,9.8538,9.8299,9.779,9.8269,9.8269,9.779,9.8299,9.8538,9.8538,9.8538,9.8538,9.8538,9.8538,9.8538,9.8538,9.8538,9.8239,9.779,9.779,9.779,9.779,9.779,9.779,9.788,9.8359,9.791,9.7192,9.7431,9.6892,9.5995,9.5157,9.4439,9.384,9.3631,9.3571,9.3631,9.384,9.39,9.399,9.4499,9.4229,9.39,9.39,9.3721,9.3451,9.2972,9.0839,8.8562,8.6359,8.414,8.177,7.9705,7.9394,7.9394,7.9394,7.9871,8.0223,8.0223,8.0499,8.085,8.1227,8.1604,8.2056,8.2633,8.2683,8.2683,8.2683,8.2683,8.2683,8.2683,8.2683,8.2683,8.2683,8.2834,8.2909,8.2909,8.3085,8.3361,8.0315,8.226,8.3277,8.1302,7.6844,7.1368,6.5383,5.9428,5.4251,5.09,4.9194,4.8686,5.0002,5.0242,5.1528,5.5538,5.7812,6.2061,7.0679,7.4719,7.8998,8.4983,8.7467,9.001,9.3302,9.6593,9.8538,9.8538,9.8538,9.8538,9.8538,9.8538,9.8538,9.8538,9.8538,9.8538,9.8508,9.8538,9.8538,9.8508,9.8538,9.8538,9.8538,9.8538,9.8538,9.8538,9.8538,9.8538,9.8538,9.8538,9.8538,9.8508,9.8508,9.8508,9.8508,9.8508,9.8508,9.8508,9.8538,9.8508,9.8389,9.77,9.7491,9.7222,9.5965,9.5127,9.4469,9.378,9.3571,9.375,9.4439,9.4588,9.4588,9.4618,9.4618,9.4588,9.4588,9.405,9.3571,9.3571,9.1484,8.9048,8.6415,8.449,8.2239,7.9781,7.9394,7.9394,7.9394,7.9871,8.0223,8.0223,8.1152,8.1805,8.1805,8.1805,8.2056,8.2633,8.2683,8.2683,8.2683,8.2683,8.2683,8.2683,8.2683,8.2683,8.2683,8.3211,8.3487,8.3487,8.4064,8.4315,7.3103,7.448,7.4958,7.2086,6.9064,6.5622,6.1014,5.7154,5.3713,5.084,4.9194,4.8686,5.0002,5.0242,5.2276,5.853,6.0086,6.2839,6.9662,7.4569,7.9208,8.3816,9.0908,9.5815,9.6862,9.791,9.8538,9.8538,9.8538,9.8538,9.8538,9.8538,9.8538,9.8538,9.8538,9.8538,9.8538,9.8538,9.8538,9.8538,9.8538,9.8538,9.8538,9.8538,9.8538,9.8538,9.8538,9.8538,9.8538,9.8538,9.8538,9.8538,9.8538,9.8538,9.8538,9.8538,9.8538,9.8538,9.8538,9.8538,9.8478,9.8269,9.788,9.7341,9.6503,9.5815,9.5127,9.4469,9.4289,9.4319,9.4558,9.4618,9.4618,9.4618,9.4618,9.4618,9.4618,9.4439,9.4289,9.4289,9.371,9.1803,8.7457,8.6108,8.4336,7.9961,7.9695,7.9947,7.9947,8.075,8.1302,8.1302,8.1955,8.2231,8.1855,8.2181,8.2483,8.2658,8.2683,8.2683,8.2683,8.2683,8.2683,8.2683,8.2683,8.2859,8.3236,8.3412,8.3688,8.4064,8.4642,8.4893,6.652,6.8675,6.9423,6.6879,6.4755,6.2241,5.8291,5.5359,5.2755,5.0361,4.9015,4.8626,4.9673,5.0062,5.2067,5.7603,5.9338,6.2331,6.9004,7.4061,7.9208,8.4923,9.2135,9.6773,9.7012,9.794,9.8538,9.8538,9.8538,9.8538,9.8538,9.8538,9.8538,9.8538,9.8538,9.8538,9.8538,9.8538,9.8538,9.8538,9.8538,9.8538,9.8538,9.8538,9.8538,9.8538,9.8538,9.8538,0.0,9.8538,9.8538,9.8538,9.8538,9.8538,9.8538,9.8538,9.8538,9.8538,9.8538,9.8538,9.8538,9.8538,9.791,9.7072,9.6683,9.5935,9.5127,9.4738,9.4618,9.4618,9.4618,9.4618,9.4618,9.4618,9.4618,9.4618,9.4618,9.4618,9.4618,9.4618,9.4798,9.3366,8.7979,8.7366,8.5878,8.0496,8.0173,8.0524,8.0524,8.1277,8.1805,8.1805,8.2332,8.2533,8.2156,8.2457,8.2683,8.2683,8.2683,8.2683,8.2683,8.2683,8.2683,8.2683,8.2683,8.2934,8.3487,8.3914,8.4416,8.4968,8.532,8.547,0.0,6.3917,6.5533,6.4186,6.254,6.0266,5.6526,5.3803,0.0,4.9643,4.8745,4.8596,4.9583,5.0092,5.1409,5.461,5.7214,6.1523,6.9273,7.4121,7.9956,8.8274,9.2015,9.4169,9.4828,9.7102,9.8538,9.8538,9.8538,9.8538,9.8538,9.8538,9.8538,9.8538,9.8538,9.8538,9.8538,9.8538,9.8538,9.8538,9.8538,9.8538,9.8538,9.8538,9.8538,9.8538,9.8538,9.8538,9.8538,9.8538,9.8538,9.8538,9.8538,9.8538,9.8538,9.8538,9.8538,9.8538,9.8538,9.8538,9.8538,9.8538,9.7641,9.6563,9.6563,9.5666,9.4618,9.4678,9.4648,9.4618,9.4678,9.4648,9.4618,9.4618,9.4618,9.4618,9.4618,9.4618,9.4618,9.4618,9.4923,9.3422,8.7902,8.7809,8.6628,8.1105,8.0725,8.1076,8.1076,8.1553,8.1855,8.1855,8.2357,8.2683,8.2683,8.2683,8.2683,8.2683,8.2683,8.2683,8.2683,8.2683,8.2683,8.2683,8.2734,8.3035,8.3562,8.4667,8.547,8.5998,8.6023,8.6023,5.1289,0.0,5.4491,5.2665,5.2636,5.2636,0.0,5.078,5.0421,4.9464,0.0,4.9583,5.3773,5.3025,5.4431,6.266,6.4934,6.7717,7.3672,8.1392,8.8484,9.405,9.6294,9.7431,9.7581,9.8149,9.8538,9.8538,9.8538,9.8538,9.8538,9.8538,9.8538,9.8538,9.8538,9.8538,9.8538,9.8538,9.8538,9.8538,9.8538,9.8538,9.8538,9.8538,9.8538,9.8538,9.8538,9.8538,9.8538,9.8538,9.8538,9.8538,9.8538,9.8538,9.8538,9.8538,9.8538,9.8538,9.8538,9.8538,9.8538,9.8538,9.7641,9.6563,9.6563,9.5666,9.4708,9.5217,9.5007,9.4738,9.5217,9.4977,9.4618,9.4618,9.4618,9.4618,9.4618,9.4618,9.4618,9.4618,9.3189,9.094,8.8024,8.6203,8.4168,8.1169,8.1277,8.1629,8.1629,8.2106,8.2457,8.2457,8.2583,8.2683,8.2683,8.2683,8.2683,8.2683,8.2683,8.2683,8.2683,8.2683,8.2683,8.2683,8.3512,8.3989,8.414,8.5244,8.5847,8.5998,8.6425,8.6374,4.7399,4.9942,5.2396,5.1648,5.1768,5.1977,5.1618,5.0391,4.9164,0.0,0.0,4.9434,5.3204,5.3982,5.6376,6.3588,6.7089,7.1577,7.9297,8.627,9.2045,9.6084,9.773,9.8538,9.8538,9.8538,9.8538,9.8538,9.8538,9.8538,9.8538,9.8538,9.8538,9.8538,9.8538,9.8538,9.8538,9.8538,9.8538,9.8538,9.8538,9.8538,9.8538,9.8538,9.8538,9.8538,9.8538,9.8538,9.8538,9.8538,9.8538,9.8538,9.8538,9.8538,9.8538,9.8538,9.8538,9.8538,9.8538,9.8538,9.8538,9.8538,9.7641,9.6563,9.6563,9.5666,9.4678,9.5037,9.4888,9.4678,9.5037,9.4888,9.4618,9.4618,9.4618,9.4618,9.4618,9.4618,9.4618,9.4618,9.2744,9.0562,8.8218,8.6242,8.3986,8.175,8.1855,8.2206,8.2206,8.2483,8.2683,8.2683,8.2683,8.2683,8.2683,8.2683,8.2683,8.2683,8.2683,8.2683,8.2683,8.2683,8.2784,8.3035,8.3889,8.4466,8.4717,8.5571,8.6098,8.6349,8.6625,8.6776,4.7189,5.1079,5.479,5.4132,5.4102,5.4102,5.3683,5.1079,4.8566,0.0,0.0,0.0,5.2546,5.5329,5.874,6.3318,6.8405,7.5228,8.5073,8.9621,9.3122,9.6324,9.779,9.8538,9.8538,9.8538,9.8538,9.8538,9.8538,9.8538,9.8538,9.8538,9.8538,9.8538,9.8538,9.8538,9.8538,9.8538,9.8538,9.8538,9.8538,9.8538,9.8538,9.8538,9.8538,9.8538,9.8538,9.8538,9.8538,9.8538,9.8538,9.8538,9.8538,9.8538,9.8538,9.8538,9.8538,9.8538,9.8538,9.8538,9.8538,9.8538,9.7641,9.6563,9.6563,9.5666,9.4618,9.4618,9.4618,9.4618,9.4738,9.4678,9.4618,9.4618,9.4618,9.4618,9.4618,9.4618,9.4618,9.4618,9.2829,9.0433,8.8221,8.6436,8.4433,8.233,8.2357,8.2683,8.2683,8.2683,8.2683,8.2683,8.2683,8.2683,8.2683,8.2683,8.2683,8.2683,8.2683,8.2683,8.2683,8.2759,8.301,8.3487,8.414,8.4667,8.5144,8.5747,8.6249,8.6676,8.6851,8.7103,5.1079,5.5179,5.6765,5.0152,5.1379,5.3623,5.1349,5.081,5.075,5.0631,0.0,0.0,6.0176,6.1672,6.4395,7.1727,7.6874,8.229,8.8963,9.1835,9.4289,9.7012,9.8059,9.8538,9.8538,9.8538,9.8538,9.8538,9.8538,9.8538,9.8538,9.8538,9.8538,9.8538,9.8538,9.8538,9.8538,9.8538,9.8538,9.8538,9.8538,9.8538,9.8538,9.8538,9.8538,9.8538,9.8538,9.8538,9.8538,9.8538,9.8538,9.8538,9.8538,9.8538,9.8538,9.8538,9.8538,9.8538,9.8538,9.8538,9.8538,9.8538,9.7641,9.6563,9.6563,9.5666,9.4618,9.4618,9.4618,9.4738,9.5306,9.5037,9.4618,9.4618,9.4618,9.4618,9.4618,9.4618,9.4618,9.4618,9.1295,8.844,8.8526,8.5116,8.2381,8.2457,8.2608,8.2683,8.2683,8.2683,8.2683,8.2683,8.2683,8.2683,8.2683,8.2683,8.2683,8.2683,8.2683,8.2683,8.2683,8.311,8.3412,8.3487,8.4491,8.5069,8.5144,8.5747,8.6023,8.6148,8.7027,8.7278,4.9344,5.3683,5.6645,5.2995,5.6107,5.9727,5.8501,5.6795,5.5478,0.0,0.0,5.8381,6.3228,6.5592,6.9632,7.825,8.2649,8.6539,9.1057,9.3092,9.4977,9.7222,9.8089,9.8538,9.8538,9.8538,9.8538,9.8538,9.8538,9.8538,9.8538,9.8538,9.8538,9.8538,9.8538,9.8538,9.8538,9.8538,9.8538,9.8538,9.8538,9.8538,9.8538,9.8538,9.8538,9.8538,9.8538,9.8538,9.8538,9.8538,9.8538,9.8538,9.8538,9.8538,9.8538,9.8538,9.8538,9.8538,9.8538,9.8538,9.8478,9.8089,9.7341,9.6503,9.6144,9.5366,9.4618,9.4618,9.4618,9.4678,9.4977,9.4828,9.4618,9.4618,9.4618,9.4618,9.4618,9.4888,9.5127,9.5127,9.2574,9.0086,8.9356,8.6166,8.3596,8.2797,8.2683,8.2683,8.2683,8.2683,8.2683,8.2683,8.2683,8.2683,8.2683,8.2683,8.2683,8.2683,8.2683,8.2683,8.2683,8.3211,8.3638,8.3914,8.4717,8.5295,8.5596,8.5847,8.6324,8.6851,8.7354,8.778,4.8686,5.2576,5.6406,5.7334,6.0745,6.4126,6.5054,0.0,0.0,0.0,0.0,6.3498,6.634,7.0231,7.5437,8.2978,8.6689,8.9651,9.2643,9.4229,9.5725,9.7521,9.8209,9.8538,9.8538,9.8538,9.8538,9.8538,9.8538,9.8538,9.8538,9.8538,9.8538,9.8538,9.8538,9.8538,9.8538,9.8538,9.8538,9.8538,9.8538,9.8538,9.8538,9.8538,9.8538,9.8538,9.8538,9.8538,9.8538,9.8538,9.8419,9.8299,9.8299,9.8179,9.8059,9.8059,9.8149,9.8299,9.8299,9.8389,9.8419,9.773,9.7072,9.6444,9.5785,9.5127,9.4618,9.4618,9.4618,9.4618,9.4618,9.4618,9.4618,9.4618,9.4618,9.4648,9.4798,9.5097,9.5456,9.5755,9.4064,9.2076,8.9994,8.767,8.5159,8.3012,8.2683,8.2683,8.2683,8.2683,8.2683,8.2683,8.2683,8.2683,8.2683,8.2683,8.2683,8.2683,8.2683,8.2683,8.2683,8.3336,8.3889,8.4315,8.4993,8.5571,8.5998,8.5998,8.65,8.7429,8.7529,8.8132,5.3264,5.5388,5.7064,6.0745,6.1044,0.0,6.5084,6.3827,0.0,6.7388,0.0,0.0,7.2086,7.7562,8.2649,8.5162,8.8813,9.2075,9.4169,9.5606,9.6922,9.8299,9.8478,9.8538,9.8538,9.8538,9.8538,9.8538,9.8538,9.8538,9.8538,9.8538,9.8538,9.8538,9.8538,9.8538,9.8538,9.8538,9.8538,9.8538,9.8538,9.8538,9.8538,9.8538,9.8538,9.8538,9.8538,9.8538,9.8538,9.8538,9.8149,9.7551,9.7551,9.7222,9.6713,9.6713,9.7072,9.7551,9.7551,9.8,9.8419,9.773,9.7072,9.6444,9.5785,9.5127,9.4618,9.4618,9.4618,9.4618,9.4618,9.4618,9.4618,9.4618,9.4618,9.4768,9.5396,9.5067,9.5037,9.6264,9.4386,9.1917,8.9994,8.7792,8.5602,8.3062,8.2683,8.2683,8.2683,8.2683,8.2683,8.2683,8.2683,8.2683,8.2683,8.2683,8.2683,8.2683,8.2683,8.2683,8.2683,8.3688,8.429,8.4315,8.5395,8.5998,8.5998,8.5998,8.6274,8.6851,8.7354,8.7931,4.9523,5.3773,5.7932,6.0266,0.0,0.0,0.0,6.9273,7.0889,7.3851,7.5198,0.0,7.7023,8.0913,8.4474,8.606,8.9292,9.2314,9.4319,9.5725,9.6892,9.779,9.8269,9.8538,9.8538,9.8538,9.8538,9.8538,9.8538,9.8538,9.8538,9.8538,9.8538,9.8538,9.8538,9.8538,9.8538,9.8538,9.8538,9.8538,9.8538,9.8538,9.8538,9.8538,9.8299,9.791,9.8329,9.8269,9.788,9.788,9.773,9.7461,9.7072,9.6773,9.6563,9.6563,9.6713,9.6922,9.6922,9.7102,9.7281,9.7012,9.6473,9.5905,9.5666,9.5127,9.4618,9.4618,9.4618,9.4618,9.4618,9.4618,9.4618,9.4618,9.4618,9.4678,9.4917,9.5097,9.5486,9.6384,9.609,9.4413,9.0939,8.9667,8.7638,8.3276,8.2683,8.2683,8.2683,8.2683,8.2683,8.2683,8.2683,8.2683,8.2683,8.2683,8.2683,8.2683,8.2683,8.2834,8.316,8.3914,8.4491,8.4818,8.5596,8.5998,8.5998,8.5998,8.6274,8.6776,8.7354,8.7931,4.9164,5.3713,5.865,0.0,0.0,0.0,7.1368,7.3373,7.5587,7.9238,8.0016,8.0315,8.1212,8.3038,8.4983,8.6718,8.9591,9.2314,9.4319,9.5725,9.6803,9.7431,9.8089,9.8538,9.8538,9.8538,9.8538,9.8538,9.8538,9.8538,9.8538,9.8538,9.8538,9.8538,9.8538,9.8538,9.8538,9.8538,9.8538,9.8538,9.8538,9.8538,9.8538,9.8538,9.8269,9.785,9.8329,9.8119,9.7491,9.7491,9.7252,9.6833,9.6204,9.5965,9.5965,9.5965,9.6084,9.6264,9.6264,9.6384,9.6563,9.6563,9.6144,9.5606,9.5606,9.5127,9.4618,9.4618,9.4618,9.4618,9.4618,9.4618,9.4618,9.4618,9.4618,9.4678,9.4888,9.5097,9.5606,9.6653,9.6269,9.4694,9.1218,8.9866,8.7628,8.3225,8.2683,8.2683,8.2683,8.2683,8.2683,8.2683,8.2683,8.2683,8.2683,8.2683,8.2683,8.2683,8.2683,8.2834,8.3211,8.3914,8.4491,8.4893,8.5646,8.5998,8.5998,8.5998,8.6349,8.7027,8.7429,8.8006,5.3982,5.6137,5.9099,0.0,0.0,0.0,7.5527,7.5377,7.6036,8.3247,8.3726,8.3187,8.4504,8.4205,8.4624,8.7287,8.992,9.2314,9.4319,9.5725,9.6803,9.7401,9.8089,9.8508,9.8508,9.8508,9.8508,9.8538,9.8538,9.8538,9.8538,9.8538,9.8538,9.8538,9.8538,9.8538,9.8538,9.8508,9.8508,9.8538,9.8508,9.8508,9.8538,9.8538,9.8508,9.8508,9.8508,9.8119,9.7461,9.7461,9.6713,9.5516,9.4858,9.4618,9.4618,9.4618,9.5037,9.5576,9.5576,9.6025,9.6563,9.6563,9.6114,9.5576,9.5606,9.5127,9.4618,9.4618,9.4618,9.4618,9.4618,9.4618,9.4618,9.4618,9.4618,9.4798,9.5456,9.5067,9.5187,9.7132,9.4327,9.1562,9.0687,8.794,8.5209,8.2986,8.2683,8.2683,8.2683,8.2683,8.2683,8.2683,8.2683,8.2683,8.2683,8.2683,8.2683,8.2683,8.2683,8.2683,8.2683,8.3738,8.4315,8.4315,8.542,8.5998,8.5998,8.5998,8.6575,8.7605,8.7605,8.8207,5.1738,5.6077,0.0,6.4096,0.0,0.0,0.0,8.0225,0.0,0.0,8.6838,8.621,8.612,8.6329,8.6928,8.8185,9.0219,9.2165,9.3661,9.5037,9.5965,9.6144,9.6743,9.7311,9.776,9.779,9.8,9.8478,9.8538,9.8538,9.8538,9.8538,9.8538,9.8538,9.8538,9.8538,9.8538,9.803,9.803,9.8508,9.7581,9.7641,9.8538,9.8538,9.803,9.7192,9.7611,9.7192,9.6144,9.6144,9.5666,9.4888,9.4678,9.4618,9.4618,9.4618,9.4738,9.4917,9.4917,9.5037,9.5277,9.5725,9.5426,9.4977,9.5456,9.5127,9.4618,9.4618,9.4618,9.4618,9.4618,9.4618,9.4738,9.5187,9.4947,9.4917,9.6055,9.5396,9.5187,9.7132,9.4679,9.2076,9.0743,8.829,8.5446,8.3037,8.2683,8.2683,8.2683,8.2683,8.2683,8.2683,8.2683,8.2683,8.2683,8.2683,8.2683,8.2683,8.2683,8.301,8.3788,8.414,8.4667,8.5496,8.5847,8.5998,8.5998,8.5998,8.6349,8.7027,8.7429,8.8006,5.5448,6.0356,0.0,6.9273,7.439,7.9656,8.3606,0.0,0.0,8.8544,8.8334,8.7736,8.7856,8.7975,8.8484,8.9651,9.1297,9.2763,9.384,9.4917,9.5606,9.5606,9.6174,9.6713,9.7102,9.7132,9.7311,9.773,9.776,9.776,9.776,9.776,9.785,9.8119,9.788,9.788,9.8119,9.7461,9.7341,9.773,9.6952,9.7102,9.8119,9.8119,9.7551,9.6593,9.6683,9.6294,9.5576,9.5306,9.4977,9.4618,9.4618,9.4618,9.4618,9.4618,9.4618,9.4618,9.4618,9.4618,9.4708,9.5366,9.5157,9.4738,9.5396,9.5127,9.4618,9.4618,9.4618,9.4618,9.4618,9.4618,9.4768,9.5426,9.5277,9.5277,9.6354,9.5965,9.5815,9.7222,9.4064,9.0951,9.0602,8.7221,8.4191,8.2823,8.2683,8.2683,8.2683,8.2683,8.2683,8.2683,8.2683,8.2683,8.2683,8.2683,8.2683,8.2683,8.2884,8.3386,8.429,8.4315,8.4742,8.5646,8.5897,8.5998,8.5998,8.6199,8.66,8.7103,8.768,8.8283,6.2241,6.664,0.0,7.6485,7.9178,0.0,8.7377,8.8634,8.8903,8.9591,8.8813,8.8334,8.9531,8.9262,8.9501,9.1386,9.2703,9.375,9.4499,9.5127,9.5516,9.5516,9.6025,9.6414,9.6473,9.6473,9.6503,9.6563,9.6563,9.6563,9.6563,9.6563,9.6833,9.7401,9.6862,9.6833,9.7401,9.6803,9.6503,9.6563,9.6444,9.6713,9.7311,9.7371,9.7072,9.6444,9.5785,9.5516,9.5456,9.4858,9.4618,9.4618,9.4618,9.4618,9.4618,9.4618,9.4618,9.4618,9.4618,9.4618,9.4708,9.5306,9.5097,9.4708,9.5306,9.5097,9.4618,9.4618,9.4618,9.4618,9.4618,9.4618,9.4768,9.5426,9.5606,9.5785,9.6503,9.6623,9.6773,9.7073,9.2765,8.9244,9.0009,8.5599,8.2056,8.2583,8.2683,8.2683,8.2683,8.2683,8.2683,8.2683,8.2683,8.2683,8.2683,8.2683,8.2683,8.2683,8.3186,8.3738,8.4315,8.4391,8.4642,8.5219,8.5747,8.5998,8.5998,8.65,8.7002,8.7529,8.8132,8.871,5.9727,6.4605,0.0,0.0,8.1931,8.6359,8.7616,8.8304,8.9023,9.019,9.019,9.01,9.0369,9.0309,9.0698,9.2165,9.2613,9.3242,9.4439,9.4738,9.4828,9.4828,9.4947,9.5247,9.5755,9.5815,9.6025,9.6533,9.6563,9.6563,9.6563,9.6563,9.6623,9.6773,9.6653,9.6623,9.6773,9.6114,9.6055,9.6563,9.5516,9.5366,9.6025,9.6533,9.6414,9.5755,9.5097,9.4828,9.4798,9.4678,9.4618,9.4618,9.4618,9.4618,9.4618,9.4618,9.4618,9.4618,9.4618,9.4618,9.4618,9.4768,9.4738,9.4648,9.4768,9.4708,9.4618,9.4618,9.4618,9.4618,9.4618,9.4618,9.4768,9.5426,9.5606,9.5905,9.7042,9.6922,9.6328,9.5326,9.2067,8.8955,8.7709,8.4766,8.2533,8.2658,8.2683,8.2683,8.2683,8.2683,8.2683,8.2683,8.2683,8.2683,8.2683,8.2683,8.2683,8.2683,8.3186,8.3738,8.4315,8.4717,8.5219,8.5822,8.5922,8.5998,8.5998,8.6098,8.6425,8.6952,8.7529,8.8107,6.0715,0.0,0.0,7.8938,0.0,8.6898,8.7556,8.7975,8.8514,8.9501,8.995,9.016,9.016,9.0698,9.1327,9.2015,9.2404,9.2853,9.3541,9.3661,9.375,9.408,9.411,9.4379,9.5067,9.5127,9.5277,9.5606,9.5636,9.5636,9.5636,9.5636,9.5785,9.6084,9.5785,9.5785,9.6084,9.5456,9.5306,9.5636,9.4947,9.4798,9.5127,9.5486,9.5606,9.5546,9.4888,9.4618,9.4618,9.4618,9.4618,9.4618,9.4618,9.4618,9.4618,9.4618,9.4618,9.4618,9.4618,9.4618,9.4618,9.4618,9.4618,9.4618,9.4618,9.4618,9.4618,9.4618,9.4618,9.4618,9.4618,9.4618,9.4708,9.5037,9.5366,9.5845,9.6833,9.5822,9.4591,9.3886,9.0493,8.7442,8.6369,8.4294,8.2683,8.2683,8.2683,8.2683,8.2683,8.2683,8.2683,8.2683,8.2683,8.2683,8.2683,8.2683,8.2683,8.2683,8.3186,8.3738,8.4315,8.4818,8.5395,8.5998,8.5998,8.5998,8.5998,8.6249,8.6525,8.6776,8.763,8.8182,6.0924,0.0,7.3881,8.1512,8.4474,0.0,8.6928,8.7197,8.7347,8.7885,8.8813,8.9501,8.9501,9.0369,9.1177,9.1416,9.1895,9.2344,9.2554,9.2613,9.2793,9.3332,9.3421,9.3631,9.4199,9.4259,9.4259,9.4259,9.4259,9.4319,9.4439,9.4439,9.4678,9.5217,9.4828,9.4798,9.5247,9.4828,9.4618,9.4618,9.4618,9.4618,9.4618,9.4618,9.4917,9.5396,9.4708,9.4439,9.4439,9.4319,9.4319,9.4439,9.4439,9.4499,9.4618,9.4618,9.4618,9.4618,9.4618,9.4618,9.4618,9.4618,9.4618,9.4618,9.4618,9.4618,9.4618,9.4618,9.4618,9.4618,9.4618,9.4618,9.4618,9.4618,9.5037,9.5606,9.6264,9.4508,9.262,9.2063,8.8293,8.5232,8.5337,8.3744,8.2683,8.2683,8.2683,8.2683,8.2683,8.2683,8.2683,8.2683,8.2683,8.2683,8.2683,8.2683,8.2683,8.2683,8.3186,8.3688,8.4165,8.4818,8.5395,8.5847,8.5922,8.5998,8.5998,8.6425,8.6625,8.6676,8.778,8.8308,5.3832,0.0,7.427,0.0,8.3457,8.4893,8.5073,8.5103,8.5132,8.5222,8.7137,8.8813,8.8813,8.8963,8.9441,9.0579,9.0848,9.1297,9.2434,9.2613,9.2643,9.2733,9.2733,9.2763,9.2853,9.2883,9.2883,9.2883,9.2883,9.3122,9.3691,9.3721,9.375,9.384,9.4349,9.4349,9.384,9.4349,9.4618,9.4618,9.4618,9.4618,9.4618,9.4618,9.4648,9.4708,9.402,9.3721,9.3661,9.3092,9.3212,9.3721,9.3721,9.408,9.4618,9.4618,9.4618,9.4618,9.4618,9.4618,9.4618,9.4618,9.4618,9.4618,9.4618,9.4618,9.4618,9.4618,9.4618,9.4618,9.4618,9.4618,9.4618,9.4618,9.4678,9.4917,9.5576,9.4185,9.2063,8.9766,8.5549,8.2567,8.3074,8.2823,8.2683,8.2683,8.2683,8.2683,8.2683,8.2683,8.2683,8.2683,8.2683,8.2683,8.2683,8.2683,8.2683,8.2683,8.3186,8.3537,8.3587,8.4567,8.5144,8.5244,8.5747,8.5998,8.5998,8.6073,8.6098,8.6148,8.7203,8.7705,5.5957,6.4306,7.2235,0.0,8.1332,8.2798,8.3906,8.4444,8.4714,8.4714,8.5641,8.6689,8.7437,8.8185,8.8873,8.9441,8.986,9.0309,9.0878,9.1267,9.1626,9.2015,9.2045,9.2194,9.2554,9.2613,9.2613,9.2613,9.2613,9.2733,9.3002,9.3032,9.3032,9.3032,9.3332,9.3332,9.3032,9.3332,9.3481,9.3481,9.4259,9.4409,9.405,9.4439,9.4618,9.4558,9.387,9.3571,9.3541,9.2883,9.3002,9.3571,9.3571,9.399,9.4618,9.4618,9.4618,9.4618,9.4618,9.4618,9.4618,9.4618,9.4618,9.4618,9.4618,9.4618,9.4618,9.4618,9.4618,9.4618,9.4618,9.4618,9.4618,9.4618,9.3482,9.2598,9.2862,9.1044,8.8548,8.5195,8.2776,8.1654,8.2533,8.2683,8.2683,8.2683,8.2683,8.2683,8.2683,8.2683,8.2683,8.2683,8.2683,8.2683,8.2683,8.2683,8.2683,8.2683,8.2909,8.3186,8.3487,8.424,8.4818,8.5144,8.5722,8.5998,8.5998,8.5998,8.5998,8.6023,8.7103,8.7605,0.0,0.0,6.7448,7.454,7.7951,8.0105,8.226,8.3367,8.4025,8.4175,8.4354,8.4773,8.5731,8.7018,8.8035,8.8394,8.8843,8.9232,8.9382,8.983,9.0309,9.0818,9.1027,9.1327,9.1805,9.2015,9.2105,9.2105,9.2105,9.2165,9.2344,9.2344,9.2344,9.2344,9.2524,9.2524,9.2344,9.2524,9.2613,9.2613,9.3601,9.393,9.3601,9.411,9.4439,9.4558,9.3691,9.3242,9.3032,9.2554,9.2733,9.3332,9.3511,9.399,9.4618,9.4618,9.4618,9.4618,9.4618,9.4618,9.4618,9.4618,9.4618,9.4618,9.4618,9.4618,9.4618,9.4618,9.4618,9.4618,9.4618,9.4618,9.4618,9.4618,9.2688,9.0413,8.9098,8.7386,8.5022,8.1409,8.0926,8.1302,8.2106,8.2357,8.2407,8.2282,8.2357,8.2457,8.2457,8.2583,8.2683,8.2683,8.2683,8.2683,8.2683,8.2683,8.2683,8.2683,8.2683,8.2859,8.3261,8.3964,8.4491,8.4918,8.5646,8.5998,8.5998,8.5998,8.5998,8.6023,8.6952,8.7379,0.0,5.473,0.0,6.7388,7.2864,7.6844,7.9417,8.1003,8.211,8.2739,8.3337,8.3816,8.3876,8.4953,8.627,8.7556,8.7796,8.8035,8.8634,8.8753,8.8813,8.8843,8.9382,8.9771,8.983,9.0369,9.0728,9.0728,9.0728,9.1027,9.1626,9.1656,9.1656,9.1656,9.2284,9.2314,9.1686,9.2284,9.2613,9.2613,9.2673,9.3002,9.3571,9.3631,9.399,9.4528,9.3212,9.2284,9.1716,9.1686,9.2075,9.2703,9.3332,9.399,9.4618,9.4618,9.4618,9.4618,9.4618,9.4618,9.4618,9.4618,9.4618,9.4618,9.4618,9.4618,9.4618,9.4618,9.4618,9.4618,9.4618,9.4618,9.4618,9.4618,9.2688,8.9468,8.4727,8.3577,8.2796,8.072,8.0675,8.1051,8.1102,8.1528,8.1679,8.1177,8.1528,8.1855,8.1855,8.2332,8.2683,8.2683,8.2683,8.2683,8.2683,8.2683,8.2683,8.2683,8.2683,8.2683,8.2708,8.3738,8.4315,8.4391,8.542,8.5998,8.5998,8.5998,8.5998,8.5998,8.66,8.6851,4.7249,0.0,0.0,6.2421,6.7418,7.1487,7.4121,7.7741,8.0584,8.0823,8.205,8.3247,8.3666,8.4803,8.5851,8.6329,8.7137,8.7796,8.8035,8.8424,8.8693,8.8693,8.9262,8.9681,8.9681,9.0249,9.0638,9.0638,9.0638,9.0728,9.0968,9.0997,9.0997,9.0997,9.1207,9.1237,9.0997,9.2075,9.2165,9.1357,9.3062,9.3571,9.2972,9.3391,9.3481,9.3272,9.2374,9.2075,9.2194,9.1327,9.1386,9.1985,9.2224,9.3002,9.396,9.396,9.4229,9.4618,9.4618,9.4618,9.4618,9.4618,9.4618,9.4618,9.4618,9.4618,9.4618,9.4618,9.4618,9.4618,9.4618,9.3453,9.1377,8.8139,8.7763,8.7007,8.1864,8.2065,8.2622,8.0695,8.0373,8.0624,8.0976,8.1177,8.1252,8.1051,8.1177,8.1428,8.1754,8.198,8.2257,8.2633,8.2683,8.2683,8.2683,8.2683,8.2683,8.2683,8.2683,8.2683,8.2683,8.3386,8.3964,8.4315,8.5069,8.5646,8.5998,8.5998,8.5998,8.5998,8.6525,8.6776,4.4197,4.8207,0.0,5.874,6.2241,6.5772,7.1308,7.4779,7.7322,7.9118,8.0883,8.229,8.2948,8.4145,8.5192,8.5611,8.6449,8.7107,8.7317,8.7736,8.8005,8.8005,8.8604,8.9023,8.9023,8.9591,8.998,8.998,8.998,9.007,9.0309,9.0309,9.0399,9.0638,9.0638,9.0638,9.0638,9.1506,9.1506,9.0668,9.2434,9.2913,9.2284,9.2733,9.2913,9.2883,9.2224,9.1955,9.1895,9.1476,9.1416,9.1686,9.2344,9.3002,9.3601,9.384,9.4229,9.4618,9.4618,9.4618,9.4618,9.4618,9.4618,9.4618,9.4618,9.4618,9.4618,9.4618,9.4618,9.4618,9.4618,9.2717,8.9468,8.4336,8.4532,8.4532,8.0345,8.0728,8.1616,8.0261,8.0097,8.0273,8.0449,8.0624,8.07,8.0499,8.08,8.1152,8.1503,8.188,8.2257,8.2633,8.2683,8.2683,8.2683,8.2683,8.2683,8.2683,8.2683,8.2683,8.2683,8.3211,8.3763,8.4315,8.4893,8.542,8.5998,8.5998,8.5998,8.5998,8.6349,8.66,0.0,0.0,0.0,5.5987,5.7393,5.9877,7.0859,7.1936,7.2146,7.7472,7.9627,8.0764,8.1572,8.2769,8.4085,8.5402,8.5641,8.5881,8.6539,8.6629,8.6659,8.6659,8.7257,8.7706,8.7706,8.8304,8.8693,8.8693,8.8693,8.8963,8.9621,8.9651,8.995,9.0579,9.0608,9.0608,9.0638,9.0668,9.0668,9.0638,9.0668,9.1027,9.1626,9.1626,9.2314,9.3481,9.2823,9.1805,9.0728,9.2045,9.2194,9.1805,9.375,9.411,9.3631,9.4289,9.4558,9.4588,9.4558,9.4588,9.4618,9.4588,9.4588,9.4618,9.4618,9.4618,9.4618,9.4618,9.4618,9.4618,9.4415,9.251,8.9468,8.4336,8.3208,8.2439,7.9961,7.9394,7.9394,7.9394,7.9821,8.0022,7.9469,7.9821,8.0022,7.9495,8.0323,8.1026,8.1051,8.198,8.2658,8.2683,8.2683,8.2683,8.2683,8.2683,8.2683,8.2683,8.2683,8.2683,8.2683,8.3186,8.3738,8.4315,8.4818,8.5395,8.5998,8.5998,8.5998,8.5998,8.5998,8.6274,4.1654,0.0,0.0,0.0,0.0,0.0,5.9428,6.254,6.6161,7.1906,7.3762,7.5587,7.9627,8.1063,8.205,8.3367,8.4354,8.5043,8.5222,8.5671,8.597,8.597,8.6988,8.7706,8.7706,8.8304,8.8693,8.8693,8.8693,8.8753,8.8963,8.8963,8.9262,8.992,8.995,9.016,9.0638,9.1117,9.1117,9.0638,9.1596,9.1895,9.1626,9.1626,9.1805,9.2135,9.1476,9.0968,9.0698,9.1536,9.1776,9.1626,9.1716,9.2194,9.2823,9.2554,9.3032,9.381,9.3332,9.378,9.4528,9.402,9.4199,9.4618,9.4618,9.4618,9.4618,9.4618,9.4618,9.3658,9.0048,8.8512,8.6817,8.1688,8.1864,8.2439,7.9961,7.9394,7.9394,7.9394,7.952,7.957,7.9419,7.952,7.9695,7.9947,8.0248,8.0725,8.1503,8.1855,8.2206,8.2633,8.2683,8.2683,8.2683,8.2683,8.2683,8.2683,8.2683,8.2683,8.2683,8.2809,8.316,8.3713,8.424,8.4818,8.5395,8.5822,8.5998,8.5998,8.5998,8.6098,4.3688,0.0,0.0,4.9015,0.0,0.0,5.7363,5.9279,6.1852,6.8345,7.0649,7.2684,7.6604,7.834,7.9567,8.0883,8.22,8.3457,8.4564,8.5043,8.5282,8.5282,8.597,8.6449,8.6449,8.7048,8.7437,8.7437,8.7706,8.7975,8.8274,8.8544,8.8873,8.9232,8.9262,8.9561,9.0219,9.0608,9.0758,9.0638,9.1416,9.1566,9.1207,9.1207,9.1357,9.1596,9.1207,9.1057,9.1087,9.1446,9.1446,9.1237,9.1386,9.1746,9.2194,9.2374,9.2913,9.3511,9.3152,9.3721,9.4499,9.381,9.384,9.4169,9.4169,9.399,9.3638,9.2775,9.2098,9.0413,8.6436,8.5475,8.4336,8.0345,8.0524,8.1311,7.9781,7.9394,7.9394,7.9394,7.9394,7.9394,7.9394,7.9394,7.9495,7.9821,8.0273,8.0775,8.1403,8.188,8.2307,8.2633,8.2683,8.2683,8.2683,8.2683,8.2683,8.2683,8.2683,8.2683,8.2683,8.2683,8.2934,8.3487,8.4064,8.4717,8.5496,8.5847,8.5998,8.5998,8.5998,8.5998,4.713,0.0,0.0,5.3414,5.1678,0.0,5.9697,5.8949,5.8441,6.5173,6.7777,6.9602,7.2116,7.424,7.6036,7.7263,7.9088,8.1302,8.3995,8.4504,8.4594,8.4594,8.4654,8.4714,8.4714,8.5252,8.5581,8.5581,8.621,8.6838,8.7437,8.8095,8.8484,8.8574,8.8574,8.8903,8.9561,8.9561,8.989,9.0519,9.0519,9.0579,9.0638,9.0638,9.0968,9.1506,9.1506,9.1506,9.1506,9.1506,9.1207,9.0848,9.1955,9.2075,9.1746,9.2943,9.3421,9.3481,9.3481,9.399,9.4499,9.381,9.3571,9.3571,9.3571,9.3182,9.2281,9.0483,8.8248,8.6053,8.3774,8.301,8.2265,7.9961,7.9394,7.9394,7.9394,7.9394,7.9394,7.9394,7.9394,7.9394,7.9394,7.9394,7.9419,7.9469,8.0323,8.0976,8.1026,8.193,8.2583,8.2583,8.2633,8.2683,8.2683,8.2683,8.2683,8.2683,8.2683,8.2683,8.2683,8.2683,8.2909,8.3386,8.3989,8.4893,8.5998,8.5998,8.5998,8.5998,8.5998,8.5998,5.3054,5.4491,5.5807,5.2606,5.4431,0.0,5.2725,5.2576,5.4012,5.7064,5.6705,5.7603,6.3348,6.643,6.8375,6.9153,7.3971,7.8729,8.1901,8.3247,8.3936,8.3936,8.4384,8.4714,8.4714,8.4833,8.4923,8.4923,8.5521,8.594,8.609,8.6718,8.7317,8.7885,8.7915,8.8215,8.8873,8.8873,8.9202,8.986,8.986,9.013,9.0638,9.0638,9.0698,9.0848,9.0848,9.0848,9.0848,9.0848,9.1057,9.1386,9.1117,9.1267,9.1656,9.1895,9.2344,9.2793,9.2793,9.3601,9.4499,9.381,9.3571,9.3571,9.3571,9.3481,9.2966,9.118,8.7463,8.3774,8.3406,8.1688,7.9961,7.9575,7.9394,7.9394,7.9394,7.9394,7.9394,7.9394,7.9394,7.9394,7.9394,7.9394,7.9545,7.9972,8.0223,8.0524,8.0976,8.1579,8.198,8.198,8.2382,8.2683,8.2683,8.2683,8.2683,8.2683,8.2683,8.2683,8.2683,8.2683,8.2734,8.2834,8.3813,8.4893,8.5998,8.5998,8.5998,8.5998,8.5998,8.5998,5.7064,5.7363,5.8141,5.6137,5.6406,0.0,0.0,5.3144,5.3324,5.7334,5.5508,5.5029,6.0984,6.2899,6.4096,6.5742,7.0709,7.4719,7.5736,7.9297,8.1901,8.223,8.226,8.2529,8.3187,8.3547,8.4025,8.4654,8.5013,8.5192,8.5192,8.5821,8.6359,8.6689,8.7018,8.7496,8.8185,8.8185,8.8693,8.9681,8.9681,9.001,9.0638,9.0638,9.0638,9.0638,9.0638,9.0638,9.0638,9.0638,9.0848,9.1087,9.0758,9.0848,9.1177,9.1506,9.2045,9.2613,9.2613,9.3272,9.405,9.3691,9.3361,9.3092,9.3092,9.1393,8.9094,8.8603,8.5065,8.1285,8.1285,8.0345,7.9394,7.9394,7.9394,7.9394,7.9394,7.9394,7.9394,7.9394,7.9394,7.9394,7.9394,7.9394,7.9469,7.9746,8.0047,8.0398,8.0951,8.1252,8.1629,8.2181,8.2231,8.2357,8.2633,8.2683,8.2683,8.2683,8.2683,8.2683,8.2683,8.2683,8.2934,8.3487,8.4064,8.4893,8.5998,8.5998,8.5998,8.5998,8.5998,8.5998,6.0984,6.0595,6.1164,6.0296,5.886,5.7633,0.0,0.0,0.0,5.7992,5.5867,5.464,5.9159,5.9668,6.0086,6.2211,6.6729,6.9453,6.7926,7.3043,7.7502,7.8908,7.9058,7.9567,8.0883,8.1033,8.1871,8.3816,8.3367,8.3397,8.4295,8.5073,8.5521,8.5521,8.615,8.6748,8.7317,8.7437,8.8095,8.9292,8.9292,8.9711,9.0459,9.0459,9.0519,9.0638,9.0638,9.0638,9.0638,9.0638,9.0638,9.0638,9.0638,9.0638,9.0728,9.1386,9.2045,9.2613,9.2733,9.3212,9.378,9.378,9.3332,9.2793,9.2222,8.8871,8.5274,8.5503,8.2444,7.9394,7.9394,7.9394,7.9394,7.9394,7.9294,7.9243,7.9369,7.9294,7.9243,7.9369,7.9394,7.9394,7.9394,7.9394,7.9394,7.9394,7.9771,8.0223,8.0675,8.0901,8.1378,8.2257,8.2131,8.2156,8.2633,8.2683,8.2683,8.2683,8.2683,8.2683,8.2683,8.2683,8.3186,8.4315,8.4315,8.4893,8.5998,8.5998,8.5998,8.5998,8.5998,8.5998,6.6759,6.7747,6.8046,6.1672,6.3318,6.3977,5.4311,0.0,5.4042,5.1199,0.0,5.0361,5.2127,0.0,0.0,5.3623,5.9039,6.2331,5.9817,6.3647,6.8256,7.2415,7.4929,7.6844,7.813,7.6215,7.6664,8.0913,7.8549,7.8699,8.2769,8.4145,8.4833,8.4833,8.5462,8.5851,8.591,8.6509,8.7167,8.7915,8.7915,8.8574,8.9771,8.9771,9.01,9.0638,9.0638,9.0638,9.0638,9.0638,9.0638,9.0638,9.0638,9.0638,9.0728,9.1386,9.2045,9.2673,9.3272,9.393,9.4499,9.4499,9.402,9.3078,9.0838,8.8206,8.5503,8.3873,8.1435,7.9394,7.9394,7.9394,7.9394,7.9394,7.8992,7.8766,7.9269,7.8992,7.8766,7.9294,7.9394,7.9394,7.9394,7.9394,7.9394,7.9394,7.9444,7.9495,7.957,8.0424,8.1076,8.1202,8.2031,8.2608,8.2658,8.2683,8.2683,8.2683,8.2683,8.2683,8.2683,8.2683,8.3186,8.4315,8.4315,8.4893,8.5998,8.5998,8.5998,8.5998,8.5998,8.5998,6.7904,6.8375,6.8585,6.3588,6.3468,6.281,5.6137,5.4012,5.3533,5.3773,0.0,0.0,0.0,0.0,0.0,0.0,5.6077,5.7723,5.5059,5.7992,6.2421,6.7837,6.8794,7.041,7.4031,7.3373,7.433,7.819,7.6155,7.6574,8.0823,8.2649,8.3756,8.4145,8.5162,8.5701,8.5701,8.6329,8.7018,8.7706,8.7706,8.8185,8.9112,8.9501,8.983,9.01,9.0489,9.0638,9.0638,9.0638,9.0638,9.0638,9.0638,9.0638,9.0668,9.0938,9.1476,9.2135,9.2793,9.2943,9.2883,9.2883,9.2943,9.2631,9.0048,8.7599,8.5036,8.2852,8.077,7.9319,7.8967,7.9143,7.9394,7.9394,7.8942,7.8691,7.9269,7.8942,7.8591,7.8842,7.8892,7.8792,7.8465,7.8942,7.9394,7.9394,7.9394,7.9495,7.9821,7.9997,8.0449,8.1378,8.1629,8.198,8.2608,8.2683,8.2683,8.2683,8.2683,8.2683,8.2683,8.2683,8.3186,8.4315,8.4315,8.4893,8.5998,8.5998,8.5998,8.5998,8.5998,8.5998,7.0127,6.9802,6.9453,6.4665,6.2929,6.1253,5.7004,5.488,5.4341,5.6196,5.479,0.0,0.0,0.0,5.2426,5.2845,0.0,5.4371,5.1528,5.3473,5.7154,6.2421,6.3617,6.5592,6.9602,6.9034,7.029,7.4869,7.2714,7.3552,7.8968,8.0973,8.235,8.3158,8.4474,8.5252,8.5432,8.609,8.6748,8.7437,8.7437,8.7766,8.8424,8.8903,8.9322,8.9681,9.016,9.0489,9.0638,9.0638,9.0638,9.0638,9.0638,9.0638,9.0638,9.0638,9.1057,9.1686,9.2165,9.2135,9.1895,9.1895,9.2194,9.2214,8.9642,8.7022,8.4597,8.2186,8.0177,7.8817,7.8415,7.8616,7.8917,7.8917,7.8616,7.8465,7.9018,7.8691,7.834,7.849,7.839,7.8164,7.7762,7.8515,7.9143,7.9143,7.9294,7.9545,7.9921,7.9771,8.0072,8.1252,8.1302,8.1553,8.2357,8.2583,8.2683,8.2683,8.2683,8.2683,8.2683,8.2809,8.3336,8.4315,8.4466,8.4993,8.5998,8.5998,8.5998,8.5998,8.5998,8.55,7.5058,7.4424,7.2654,6.4246,6.26,6.1343,5.479,5.5718,5.7423,5.5628,5.8201,6.0027,5.7513,5.5957,5.4431,5.2546,5.2815,0.0,0.0,4.9583,5.1738,5.5149,6.0535,6.4336,6.5173,6.1762,6.272,7.05,6.6879,6.8286,7.7382,7.9178,8.0494,8.1811,8.3128,8.4115,8.4743,8.5402,8.606,8.6718,8.6718,8.7077,8.7736,8.7766,8.8454,8.9681,8.9681,9.007,9.0638,9.0638,9.0638,9.0638,9.0638,9.0638,9.0638,9.0638,9.1057,9.1626,9.1626,9.2045,9.2554,9.2554,9.2583,9.2043,8.9613,8.7022,8.4625,8.2047,7.9611,7.7762,7.7737,7.7737,7.7762,7.7762,7.7737,7.7888,7.844,7.8114,7.7888,7.8415,7.8088,7.7712,7.7712,7.8164,7.854,7.854,7.9018,7.9394,7.9419,7.9871,8.0198,8.0248,8.1177,8.1805,8.183,8.2357,8.2683,8.2683,8.2683,8.2683,8.2683,8.3186,8.3738,8.4315,8.4818,8.5395,8.5998,8.5998,8.5998,8.5998,8.5998,8.4299,7.7116,7.6221,7.454,6.7687,6.5503,6.3408,5.7184,5.7334,5.8082,5.5688,5.8351,6.0296,5.7603,5.6047,5.4521,5.2516,5.1289,4.9583,0.0,4.707,4.8386,5.0391,5.5478,5.856,5.7932,5.8231,6.0655,6.5951,6.4874,6.7478,7.5437,7.7951,7.9746,8.1093,8.2828,8.4055,8.4714,8.5372,8.603,8.6689,8.6689,8.6808,8.7048,8.7945,8.8604,8.9082,8.992,9.0429,9.0638,9.0638,9.0638,9.0638,9.0638,9.0638,9.0638,9.0638,9.0788,9.0968,9.0968,9.1686,9.2464,9.1566,9.1596,9.1329,8.848,8.6091,8.3939,8.1147,7.8993,7.7611,7.726,7.7436,7.7712,7.7712,7.7411,7.731,7.7862,7.7536,7.721,7.7411,7.7285,7.7034,7.6682,7.736,7.8114,7.8465,7.9018,7.9394,7.9394,7.9545,7.9796,8.0173,8.085,8.1428,8.1779,8.2332,8.2683,8.2683,8.2683,8.2683,8.2683,8.3211,8.3763,8.4315,8.4893,8.542,8.5998,8.5998,8.5998,8.5998,8.5998,8.4324,8.0611,7.8816,7.6365,7.0945,6.8482,6.5862,5.9877,6.0086,6.0745,5.7902,5.9697,6.1433,6.0146,5.7513,5.5029,5.3503,5.1199,4.8686,0.0,4.6052,4.6561,4.716,5.1259,5.4012,5.3862,5.4521,5.7184,6.257,6.254,6.5533,7.3073,7.6395,7.8699,8.0045,8.223,8.3696,8.4354,8.4773,8.5432,8.6329,8.6329,8.6449,8.6689,8.7586,8.8095,8.8394,8.9471,9.007,9.0309,9.0549,9.0638,9.0638,9.0638,9.0638,9.0638,9.0638,9.0638,9.0638,9.0638,9.1207,9.1776,9.0908,9.0908,9.0813,8.8928,8.6181,8.3464,8.1445,7.9125,7.7034,7.6682,7.6833,7.7109,7.7109,7.6984,7.6984,7.7335,7.7134,7.6883,7.6883,7.6733,7.6482,7.6105,7.6959,7.7812,7.8164,7.8892,7.9394,7.9394,7.9394,7.952,7.9871,8.0424,8.1026,8.1754,8.2332,8.2683,8.2683,8.2683,8.2759,8.296,8.3487,8.4064,8.4567,8.5144,8.5646,8.5998,8.5998,8.5998,8.5998,8.5998,8.3595]},{"header":{"parameterUnit":"m.s-1","parameterCategory":1,"la1":30.6,"la2":29.2853,"lo1":-89.7004,"lo2":-87.6739,"dy":0.0162,"dx":0.0183,"nx":112,"ny":82,"refTime":"2024-09-26T12:00:00:Z","depth":0,"parameterNumber":3,"parameterNumberName":"V-component_of_WINDS"},"data":[0.0,0.0,0.0,0.0,0.0,0.0,0.0,0.0,0.0,0.0,0.0,0.0,0.0,0.0,0.0,0.0,0.0,0.0,0.0,0.0,0.0,0.0,0.0,0.0,0.0,0.0,0.0,0.0,0.0,0.0,0.0,0.0,0.0,0.0,0.0,0.0,0.0,0.0,0.0,0.0,0.0,0.0,0.0,0.0,0.0,0.0,0.0,0.0,0.0,0.0,0.0,0.0,0.0,0.0,0.0,0.0,0.0,0.0,0.0,0.0,0.0,0.0,0.0,0.0,0.0,0.0,0.0,0.0,0.0,0.0,0.0,0.0,0.0,0.0,0.0,0.0,0.0,0.0,0.0,0.0,0.0,0.0,0.0,0.0,0.0,0.0,0.0,0.0,0.0,0.0,-8.1832,-8.8937,-9.6819,-10.1156,-10.0192,-9.6539,-9.1022,-8.3318,0.0,0.0,0.0,0.0,0.0,0.0,0.0,0.0,0.0,0.0,0.0,0.0,0.0,0.0,0.0,0.0,0.0,0.0,0.0,0.0,0.0,0.0,0.0,0.0,0.0,0.0,0.0,0.0,0.0,0.0,0.0,0.0,0.0,0.0,0.0,0.0,0.0,0.0,0.0,0.0,0.0,0.0,0.0,0.0,0.0,0.0,0.0,0.0,0.0,0.0,0.0,0.0,0.0,0.0,0.0,0.0,0.0,0.0,0.0,0.0,0.0,0.0,0.0,0.0,0.0,0.0,0.0,0.0,0.0,0.0,0.0,0.0,0.0,0.0,0.0,0.0,0.0,0.0,0.0,0.0,0.0,0.0,0.0,0.0,0.0,0.0,0.0,0.0,0.0,0.0,0.0,0.0,0.0,0.0,0.0,0.0,0.0,0.0,0.0,0.0,0.0,0.0,0.0,0.0,-8.3795,-9.6108,-10.0405,-10.1548,-9.9778,-9.5489,-9.0537,-8.5002,0.0,0.0,0.0,0.0,0.0,0.0,0.0,0.0,0.0,0.0,0.0,0.0,0.0,0.0,0.0,0.0,0.0,0.0,0.0,0.0,0.0,0.0,0.0,0.0,0.0,0.0,0.0,0.0,0.0,0.0,0.0,0.0,0.0,0.0,0.0,0.0,0.0,0.0,0.0,0.0,0.0,0.0,0.0,0.0,0.0,0.0,0.0,0.0,0.0,0.0,0.0,0.0,0.0,0.0,0.0,0.0,0.0,0.0,0.0,0.0,0.0,0.0,0.0,0.0,0.0,0.0,0.0,0.0,0.0,0.0,0.0,0.0,0.0,0.0,0.0,0.0,0.0,0.0,0.0,0.0,0.0,0.0,0.0,0.0,0.0,0.0,0.0,0.0,0.0,0.0,0.0,0.0,0.0,0.0,0.0,0.0,0.0,0.0,0.0,0.0,0.0,0.0,0.0,-8.3219,-8.9038,-9.9254,-10.1622,-10.1548,-9.9104,-9.5025,-8.9603,-8.262,-7.6307,0.0,0.0,0.0,0.0,0.0,0.0,0.0,0.0,0.0,0.0,0.0,0.0,0.0,0.0,0.0,0.0,0.0,0.0,0.0,0.0,0.0,0.0,0.0,0.0,0.0,0.0,0.0,0.0,0.0,0.0,0.0,0.0,0.0,0.0,0.0,0.0,0.0,0.0,0.0,0.0,0.0,0.0,0.0,0.0,0.0,0.0,0.0,0.0,0.0,0.0,0.0,0.0,0.0,0.0,0.0,0.0,0.0,0.0,0.0,0.0,0.0,0.0,0.0,0.0,0.0,0.0,0.0,0.0,0.0,0.0,0.0,0.0,0.0,0.0,0.0,0.0,0.0,0.0,0.0,0.0,0.0,0.0,0.0,0.0,0.0,0.0,0.0,0.0,0.0,0.0,0.0,0.0,0.0,0.0,0.0,0.0,0.0,0.0,0.0,0.0,0.0,0.0,-9.0628,-9.4451,-10.0675,-10.2096,-10.115,-9.806,-9.3785,-8.7749,-7.967,-7.3239,0.0,0.0,0.0,0.0,0.0,0.0,0.0,0.0,0.0,0.0,0.0,0.0,0.0,0.0,0.0,0.0,0.0,0.0,0.0,0.0,0.0,0.0,0.0,0.0,0.0,0.0,0.0,0.0,0.0,0.0,0.0,0.0,0.0,0.0,0.0,0.0,0.0,0.0,0.0,0.0,0.0,0.0,0.0,0.0,0.0,0.0,0.0,0.0,0.0,0.0,0.0,0.0,0.0,0.0,0.0,0.0,0.0,0.0,0.0,0.0,0.0,0.0,0.0,0.0,0.0,0.0,0.0,0.0,0.0,0.0,0.0,0.0,0.0,0.0,0.0,0.0,0.0,0.0,0.0,0.0,0.0,0.0,0.0,0.0,0.0,0.0,0.0,0.0,0.0,0.0,0.0,0.0,0.0,0.0,0.0,0.0,0.0,0.0,0.0,0.0,0.0,0.0,-9.188,-9.8476,-10.1081,-10.2096,-10.0719,-9.6191,-9.0525,-8.4213,-7.7463,-6.9093,0.0,0.0,0.0,0.0,0.0,0.0,0.0,0.0,0.0,0.0,0.0,0.0,0.0,0.0,0.0,0.0,0.0,0.0,0.0,0.0,0.0,0.0,0.0,0.0,0.0,0.0,0.0,0.0,0.0,0.0,0.0,0.0,0.0,0.0,0.0,0.0,0.0,0.0,0.0,0.0,0.0,0.0,0.0,0.0,0.0,0.0,0.0,0.0,0.0,0.0,0.0,0.0,0.0,0.0,0.0,0.0,0.0,0.0,0.0,0.0,0.0,0.0,0.0,0.0,0.0,0.0,0.0,0.0,0.0,0.0,0.0,0.0,0.0,0.0,0.0,0.0,0.0,0.0,0.0,0.0,0.0,0.0,0.0,0.0,0.0,0.0,0.0,0.0,0.0,0.0,0.0,0.0,0.0,0.0,0.0,0.0,0.0,0.0,0.0,0.0,0.0,0.0,-9.0256,-9.648,-10.1521,-10.1152,-9.9065,-9.5259,-9.0636,-8.4106,-7.491,0.0,0.0,0.0,0.0,0.0,0.0,0.0,0.0,0.0,0.0,0.0,0.0,0.0,0.0,0.0,0.0,0.0,0.0,0.0,0.0,0.0,0.0,0.0,0.0,0.0,0.0,0.0,0.0,0.0,0.0,0.0,0.0,0.0,0.0,0.0,0.0,0.0,0.0,0.0,0.0,0.0,0.0,0.0,0.0,0.0,0.0,0.0,0.0,0.0,0.0,0.0,0.0,0.0,0.0,0.0,0.0,0.0,0.0,0.0,0.0,0.0,0.0,0.0,0.0,0.0,0.0,0.0,0.0,0.0,0.0,0.0,0.0,0.0,0.0,0.0,0.0,0.0,0.0,0.0,0.0,0.0,0.0,0.0,0.0,0.0,0.0,0.0,0.0,0.0,0.0,0.0,0.0,0.0,0.0,0.0,0.0,0.0,0.0,0.0,0.0,0.0,0.0,-8.3016,-9.0087,-9.6244,-10.1589,-10.0385,-9.7848,-9.4553,-8.9259,-8.2187,-7.2847,0.0,0.0,0.0,0.0,0.0,0.0,0.0,0.0,0.0,0.0,0.0,0.0,0.0,0.0,0.0,0.0,0.0,0.0,0.0,0.0,0.0,0.0,0.0,0.0,0.0,0.0,0.0,0.0,0.0,0.0,0.0,0.0,0.0,0.0,0.0,0.0,0.0,0.0,0.0,0.0,0.0,0.0,0.0,0.0,0.0,0.0,0.0,0.0,0.0,0.0,0.0,0.0,0.0,0.0,0.0,0.0,0.0,0.0,0.0,0.0,0.0,0.0,0.0,0.0,0.0,0.0,0.0,0.0,0.0,0.0,0.0,0.0,0.0,0.0,0.0,0.0,0.0,0.0,0.0,0.0,0.0,0.0,0.0,0.0,0.0,0.0,0.0,0.0,0.0,0.0,0.0,0.0,0.0,0.0,0.0,0.0,0.0,0.0,0.0,0.0,0.0,0.0,-8.2644,-9.1981,-9.8882,-10.1183,-9.9619,-9.7128,-9.3957,-8.579,-7.801,0.0,0.0,0.0,0.0,0.0,0.0,0.0,0.0,0.0,0.0,0.0,0.0,0.0,0.0,0.0,0.0,0.0,0.0,0.0,0.0,0.0,0.0,0.0,0.0,0.0,0.0,0.0,0.0,0.0,0.0,0.0,0.0,0.0,0.0,0.0,0.0,0.0,0.0,0.0,0.0,0.0,0.0,0.0,0.0,0.0,0.0,0.0,0.0,0.0,0.0,0.0,0.0,0.0,0.0,0.0,0.0,0.0,0.0,0.0,0.0,0.0,0.0,0.0,0.0,0.0,0.0,0.0,0.0,0.0,0.0,0.0,0.0,0.0,0.0,0.0,0.0,0.0,0.0,0.0,0.0,0.0,0.0,0.0,0.0,0.0,0.0,0.0,0.0,0.0,0.0,0.0,0.0,0.0,0.0,0.0,0.0,0.0,0.0,0.0,0.0,0.0,0.0,0.0,-8.2644,-9.1981,-9.8882,-10.1183,-9.8439,-9.569,-9.3815,-8.6638,-7.878,-7.0679,0.0,0.0,0.0,0.0,0.0,0.0,0.0,0.0,0.0,0.0,0.0,0.0,0.0,0.0,0.0,0.0,0.0,0.0,0.0,0.0,0.0,0.0,0.0,0.0,0.0,0.0,0.0,0.0,0.0,0.0,0.0,0.0,0.0,0.0,0.0,0.0,0.0,0.0,0.0,0.0,0.0,0.0,0.0,0.0,0.0,0.0,0.0,0.0,0.0,0.0,0.0,0.0,0.0,0.0,0.0,0.0,0.0,0.0,0.0,0.0,0.0,0.0,0.0,0.0,0.0,0.0,0.0,0.0,0.0,0.0,0.0,0.0,0.0,0.0,0.0,0.0,0.0,0.0,0.0,0.0,0.0,0.0,0.0,0.0,0.0,0.0,0.0,0.0,0.0,0.0,0.0,0.0,0.0,0.0,0.0,0.0,0.0,0.0,0.0,0.0,0.0,0.0,-8.2644,-9.1711,-9.8025,-9.9273,-9.6557,-9.3962,-9.1841,-8.5899,-7.9028,-7.1188,0.0,0.0,0.0,0.0,0.0,0.0,0.0,0.0,0.0,0.0,0.0,0.0,0.0,0.0,0.0,0.0,0.0,0.0,0.0,0.0,0.0,0.0,0.0,0.0,0.0,0.0,0.0,0.0,0.0,0.0,0.0,0.0,0.0,0.0,0.0,0.0,0.0,0.0,0.0,0.0,0.0,0.0,0.0,0.0,0.0,0.0,0.0,0.0,0.0,0.0,0.0,0.0,0.0,0.0,0.0,0.0,0.0,0.0,0.0,0.0,0.0,0.0,0.0,0.0,0.0,0.0,0.0,0.0,0.0,0.0,0.0,0.0,0.0,0.0,0.0,0.0,0.0,0.0,0.0,0.0,0.0,0.0,0.0,0.0,0.0,0.0,0.0,0.0,0.0,0.0,0.0,0.0,0.0,0.0,0.0,0.0,0.0,0.0,0.0,0.0,0.0,0.0,-8.2644,-9.1338,-9.6741,-9.64,-9.4562,-9.2175,-8.9021,-8.4484,-7.9088,-7.2565,0.0,0.0,0.0,0.0,0.0,0.0,0.0,0.0,0.0,0.0,0.0,0.0,0.0,0.0,0.0,0.0,0.0,0.0,0.0,0.0,0.0,0.0,0.0,0.0,0.0,0.0,0.0,0.0,0.0,0.0,0.0,0.0,0.0,0.0,0.0,0.0,0.0,0.0,0.0,0.0,0.0,0.0,0.0,0.0,0.0,0.0,0.0,0.0,0.0,0.0,0.0,0.0,0.0,0.0,0.0,0.0,0.0,0.0,0.0,0.0,-5.7842,-5.4162,0.0,0.0,0.0,0.0,0.0,0.0,0.0,0.0,0.0,0.0,0.0,0.0,0.0,0.0,0.0,0.0,0.0,0.0,0.0,0.0,0.0,0.0,0.0,0.0,0.0,0.0,0.0,0.0,0.0,0.0,0.0,0.0,0.0,0.0,0.0,0.0,0.0,0.0,0.0,0.0,-8.2644,-9.1338,-9.6741,-9.64,-9.4562,-9.2366,-8.9674,-8.5333,-8.0165,-7.4599,-6.9004,0.0,0.0,0.0,0.0,0.0,0.0,0.0,0.0,0.0,0.0,0.0,0.0,0.0,0.0,0.0,0.0,0.0,0.0,0.0,0.0,0.0,0.0,0.0,0.0,0.0,0.0,0.0,0.0,0.0,0.0,0.0,0.0,0.0,0.0,0.0,0.0,0.0,0.0,0.0,0.0,0.0,0.0,0.0,0.0,0.0,0.0,0.0,0.0,0.0,0.0,0.0,0.0,0.0,0.0,0.0,0.0,0.0,0.0,0.0,-6.4695,-6.1702,0.0,0.0,0.0,0.0,0.0,0.0,0.0,0.0,0.0,0.0,0.0,0.0,0.0,0.0,0.0,0.0,0.0,0.0,0.0,0.0,0.0,0.0,0.0,0.0,0.0,0.0,0.0,0.0,0.0,0.0,0.0,0.0,0.0,0.0,0.0,0.0,0.0,0.0,0.0,0.0,-8.3693,-9.0674,-9.4838,-9.4496,-9.2461,-8.9994,-8.7493,-8.4457,-8.1063,-7.7023,-7.2714,0.0,0.0,0.0,0.0,0.0,0.0,0.0,0.0,0.0,0.0,0.0,0.0,0.0,0.0,0.0,0.0,0.0,0.0,0.0,0.0,0.0,0.0,0.0,0.0,0.0,0.0,0.0,0.0,0.0,0.0,0.0,0.0,0.0,0.0,0.0,0.0,0.0,0.0,0.0,0.0,0.0,0.0,0.0,0.0,0.0,0.0,0.0,0.0,0.0,0.0,0.0,0.0,0.0,-7.0739,-7.1906,-7.3492,-7.3612,-7.4929,-7.6844,-7.2235,-7.062,-7.0769,-6.4425,0.0,0.0,0.0,0.0,0.0,0.0,0.0,0.0,0.0,0.0,0.0,0.0,0.0,0.0,0.0,0.0,0.0,0.0,0.0,0.0,0.0,0.0,-6.8372,-6.8597,-7.0421,-7.032,-6.3485,0.0,0.0,0.0,0.0,0.0,0.0,0.0,0.0,0.0,0.0,0.0,-8.4152,-8.9453,-9.231,-9.1776,-8.9849,-8.7578,-8.5078,-8.3696,-8.1901,-7.9477,-7.6455,-7.2894,0.0,0.0,0.0,0.0,0.0,0.0,0.0,0.0,0.0,0.0,0.0,0.0,0.0,0.0,0.0,0.0,0.0,0.0,0.0,0.0,0.0,0.0,0.0,0.0,0.0,0.0,0.0,0.0,0.0,0.0,0.0,0.0,-4.9733,-5.1887,0.0,0.0,0.0,0.0,0.0,0.0,0.0,0.0,0.0,0.0,0.0,0.0,0.0,-6.7807,-7.044,-7.424,-7.6844,-7.831,-8.1721,-8.3487,-8.3756,-8.4325,-8.5103,-8.591,-8.4025,0.0,-7.2445,-6.9752,0.0,0.0,0.0,0.0,0.0,0.0,0.0,0.0,0.0,0.0,0.0,0.0,0.0,0.0,0.0,0.0,0.0,0.0,0.0,0.0,0.0,0.0,-7.877,-7.674,-7.6654,-7.6395,-7.4752,-6.7847,-6.1225,-5.8745,-5.6607,-5.4729,0.0,0.0,0.0,0.0,0.0,0.0,-8.1286,-8.7142,-9.0169,-8.9129,-8.8687,-8.7762,-8.5708,-8.4354,-8.2978,-8.1482,-7.9357,-7.7113,-7.4839,-7.062,0.0,0.0,0.0,0.0,0.0,0.0,0.0,0.0,0.0,0.0,0.0,0.0,0.0,0.0,0.0,0.0,0.0,0.0,0.0,0.0,0.0,0.0,0.0,0.0,0.0,0.0,0.0,0.0,0.0,-4.9314,-5.3743,-5.4251,-5.4132,-5.2546,0.0,0.0,0.0,0.0,0.0,0.0,0.0,0.0,0.0,-6.9482,-7.2475,-7.5318,-7.7981,-8.0823,-8.2918,-8.4265,-8.6,-8.7018,-8.7377,-8.6231,-8.5973,-8.6013,-8.3347,-7.9877,-7.5935,-7.4491,-7.1517,-6.7747,0.0,0.0,0.0,0.0,-6.5772,-6.6161,-7.0111,-7.062,-6.9243,-6.7567,0.0,0.0,0.0,0.0,0.0,0.0,0.0,-6.8868,-7.094,-7.5395,-7.9365,-7.9412,-8.0045,-8.0315,-7.9267,-7.5377,-7.0509,-6.5283,-6.3948,-6.1916,-5.634,-5.7681,0.0,0.0,0.0,-7.6783,-8.2748,-8.6221,-8.8013,-8.8035,-8.6634,-8.5425,-8.4594,-8.4055,-8.3487,-8.2918,-8.2409,-8.1242,-7.9297,-7.6185,-7.2229,0.0,0.0,0.0,0.0,0.0,0.0,0.0,0.0,0.0,0.0,0.0,0.0,0.0,0.0,0.0,0.0,0.0,0.0,0.0,0.0,0.0,0.0,0.0,0.0,0.0,0.0,0.0,0.0,-5.4281,-5.7633,-5.6795,-5.8171,-5.7184,0.0,0.0,0.0,0.0,0.0,0.0,-6.6909,-7.0201,-7.3462,-7.6574,-7.9357,-8.202,-8.4504,-8.5821,-8.7137,-8.8454,-8.8274,-8.8278,-8.8363,-8.6361,-8.5279,-8.4644,-8.1661,-7.9927,-7.9135,-7.7184,-7.4691,-7.2116,-6.9746,-6.887,-6.9453,-7.1909,-7.2684,-7.3373,-7.7951,-7.8699,-7.7203,-7.4719,-7.2714,-7.032,-6.5353,0.0,0.0,0.0,0.0,-7.1038,-7.451,-7.7113,-7.9238,-8.0913,-8.205,-8.2499,-8.1512,-8.0794,-7.837,-7.1757,-7.0889,-6.8955,-6.1734,-6.3263,0.0,-6.7322,-7.2982,-7.8658,-8.3149,-8.4882,-8.598,-8.6533,-8.5032,-8.3906,-8.3756,-8.3726,-8.3726,-8.3726,-8.4205,-8.3816,-8.235,-8.0524,-7.7023,-7.1607,0.0,0.0,0.0,0.0,0.0,0.0,0.0,0.0,0.0,0.0,0.0,0.0,0.0,0.0,0.0,0.0,0.0,0.0,0.0,0.0,0.0,0.0,0.0,0.0,0.0,0.0,0.0,0.0,0.0,-6.0954,-6.4695,0.0,0.0,0.0,0.0,-6.4395,-6.8704,-7.2475,-7.5168,-7.843,-8.1422,-8.4085,-8.5551,-8.7257,-8.9292,-8.8813,-8.9202,-9.0489,-8.986,-8.8964,-8.7782,-8.7177,-8.5947,-8.4235,-8.2836,-8.1801,-8.0891,-7.6592,-7.4387,-7.3533,-7.1556,-7.2385,-7.4902,-7.5075,-7.7294,-8.0375,-8.1302,-8.0764,-7.9956,-8.1631,-7.8759,-7.4569,-7.424,-7.1966,0.0,0.0,-7.439,-7.6874,-7.8968,-8.0554,-8.1751,-8.2499,-8.2709,-8.2739,-8.2679,-8.214,-8.0823,-7.7891,-7.5856,-7.3851,-7.1588,0.0,-7.1018,-7.2278,-7.4541,-7.7214,-8.0578,-8.262,-8.3879,-8.3909,-8.4295,-8.4414,-8.3786,-8.3726,-8.3726,-8.3726,-8.3756,-8.3726,-8.3636,-8.235,-7.9716,-7.5677,-7.1009,0.0,0.0,0.0,0.0,0.0,0.0,0.0,0.0,0.0,0.0,0.0,0.0,0.0,0.0,0.0,0.0,0.0,0.0,0.0,0.0,0.0,0.0,0.0,0.0,0.0,0.0,0.0,0.0,-6.6191,-6.9512,0.0,-6.6101,-6.7137,-6.8538,-6.9748,-7.185,-7.4197,-7.6844,-7.8962,-8.0779,-8.2483,-8.3506,-8.4075,-8.4332,-8.4901,-8.5242,-8.5299,-8.547,-8.5401,-8.4905,-8.3079,-8.2002,-8.1259,-7.8819,-7.7643,-7.7331,-7.5351,-7.5384,-7.6864,-7.6589,-7.665,-7.7086,-7.7704,-7.9267,-8.1233,-8.1875,-8.2525,-8.2948,-8.2798,-8.0913,-7.8699,-7.8699,-7.7861,-7.7173,-7.831,-7.9297,-8.0285,-8.1422,-8.205,-8.2469,-8.2709,-8.2769,-8.2769,-8.2769,-8.2589,-8.214,-8.1183,-7.9417,-7.7023,-7.3732,-7.4719,-7.5707,-7.4958,-7.7233,-7.9776,-8.1811,-8.2679,-8.3098,-8.3098,-8.3696,-8.3816,-8.3158,-8.3876,-8.4175,-8.3756,-8.4115,-8.4175,-8.3756,-8.2888,-8.0734,-7.7203,-7.3851,-6.8715,0.0,0.0,0.0,0.0,0.0,0.0,0.0,0.0,0.0,0.0,0.0,0.0,0.0,0.0,0.0,0.0,0.0,0.0,0.0,0.0,0.0,0.0,0.0,0.0,0.0,-6.5054,-6.9722,-6.9961,-7.3881,-7.4952,-7.0754,-7.2227,-7.3678,-7.414,-7.5096,-7.6671,-7.8852,-7.9734,-8.0643,-8.1636,-8.2229,-8.2339,-8.2118,-8.2892,-8.3112,-8.2753,-8.3112,-8.3052,-8.2323,-8.0508,-7.9258,-7.8698,-7.6691,-7.5778,-7.5778,-7.5402,-7.6288,-7.7732,-7.7705,-7.7762,-7.785,-7.8624,-7.9695,-8.1063,-8.1035,-8.2291,-8.3648,-8.2348,-8.1862,-8.1751,-8.1542,-8.1452,-8.1542,-8.1991,-8.211,-8.22,-8.2649,-8.2769,-8.2769,-8.2769,-8.2769,-8.2769,-8.2769,-8.2769,-8.2769,-8.2769,-8.1691,-7.9896,-7.7053,-7.8549,-7.9627,-7.81,-7.9926,-8.1781,-8.2649,-8.2769,-8.2769,-8.2769,-8.3337,-8.3487,-8.2828,-8.3158,-8.3307,-8.3098,-8.2649,-8.229,-8.208,-8.1212,-7.9507,-7.6874,-7.4031,-6.9782,-6.4066,0.0,0.0,0.0,0.0,0.0,0.0,0.0,0.0,0.0,0.0,0.0,0.0,0.0,0.0,0.0,0.0,0.0,0.0,0.0,0.0,0.0,0.0,0.0,-6.4216,-6.9363,-7.2894,-7.2163,-7.7808,-7.9219,-7.2342,-7.6232,-7.8771,-7.7749,-7.8789,-7.9971,-8.1154,-8.1237,-8.1484,-8.2089,-8.2117,-8.2545,-8.3096,-8.3124,-8.3124,-8.3096,-8.3124,-8.2165,-8.0377,-7.9798,-7.8557,-7.6883,-7.6883,-7.6883,-7.6883,-7.6883,-7.6582,-7.5979,-7.49,-7.5882,-7.7744,-7.7192,-7.8569,-8.0313,-7.9072,-8.0195,-8.1886,-8.0679,-8.1771,-8.3483,-8.2826,-8.2798,-8.2769,-8.2769,-8.2769,-8.2769,-8.2769,-8.2769,-8.2769,-8.2769,-8.2769,-8.2769,-8.2769,-8.2769,-8.2769,-8.2769,-8.2769,-8.2559,-8.1931,-8.235,-8.2529,-8.1901,-8.235,0.0,-8.2769,-8.2769,-8.2769,-8.2769,-8.3337,-8.3487,-8.2828,-8.1572,-8.1093,-8.1691,-7.9267,-7.81,-7.8789,-7.7562,-7.6305,-7.5018,-7.1787,-6.9453,-6.8076,0.0,0.0,0.0,0.0,0.0,0.0,0.0,0.0,0.0,0.0,0.0,0.0,0.0,0.0,0.0,0.0,0.0,0.0,0.0,0.0,0.0,-6.4904,-6.9004,-6.9004,-7.4151,-7.7734,-7.7374,-8.0568,-8.1455,-7.829,-7.813,-7.8085,-7.7892,-7.6636,-7.6056,-7.6968,-7.6803,-7.7252,-7.782,-7.7846,-7.7717,-7.7459,-7.7846,-7.7846,-7.7459,-7.7846,-7.7999,-7.7776,-7.7413,-7.7096,-7.6883,-7.6883,-7.6883,-7.6908,-7.731,-7.7159,-7.6582,-7.5879,-7.5465,-7.5335,-7.5589,-7.6784,-7.8254,-7.9044,-7.9507,-7.9603,-7.9268,-7.9241,-7.9593,-8.0672,-8.0975,-8.1204,-8.2401,-8.2769,-8.2769,-8.2769,-8.2769,-8.2769,-8.2769,-8.2769,-8.2769,-8.2769,-8.2769,-8.2769,-8.2769,-8.2769,-8.2709,-8.2529,-8.2649,-8.2709,-8.2529,-8.2649,-8.2769,-8.2769,-8.2769,-8.2769,-8.2769,-8.3337,-8.3487,-8.2828,-8.1991,-8.1183,-8.0405,-7.8759,-7.834,-7.9477,-7.8699,-7.8071,-7.7711,-7.448,-7.2146,0.0,0.0,0.0,0.0,0.0,0.0,0.0,0.0,0.0,0.0,0.0,0.0,0.0,0.0,0.0,0.0,0.0,0.0,0.0,0.0,0.0,0.0,-7.0949,-7.4534,-7.4033,-7.727,-7.9472,-7.9026,-8.0841,-8.1423,-7.9533,-7.8483,-7.7555,-7.69,-7.5473,-7.5101,-7.5879,-7.5703,-7.5929,-7.6707,-7.6281,-7.6004,-7.5929,-7.6004,-7.5879,-7.5578,-7.613,-7.6557,-7.6883,-7.6783,-7.6908,-7.7235,-7.7461,-7.7561,-7.7586,-7.7913,-7.7712,-7.7159,0.0,0.0,0.0,0.0,-7.5436,-7.5844,-7.6716,-7.7422,-7.7593,-7.7349,-7.7721,-7.8536,-8.0142,-8.0622,-8.099,-8.2694,-8.3158,-8.3098,-8.2828,-8.2769,-8.2769,-8.2769,-8.2769,-8.2769,-8.2769,-8.2769,-8.2769,-8.2769,-8.2769,0.0,-8.2769,-8.2769,-8.2769,-8.2769,-8.2769,-8.2769,-8.2769,-8.2769,-8.2769,-8.2769,-8.3098,-8.3158,-8.2798,-8.1661,0.0,0.0,0.0,-7.7622,-7.816,-7.7801,0.0,0.0,0.0,0.0,0.0,-7.7053,0.0,0.0,-7.7085,-7.8743,0.0,0.0,0.0,0.0,0.0,0.0,0.0,0.0,0.0,0.0,0.0,0.0,0.0,0.0,0.0,0.0,-7.6159,-7.8914,-7.7963,-7.8414,-7.8754,-7.8466,-7.9439,-7.956,-7.7771,-7.7555,-7.6952,-7.5472,-7.5377,-7.5854,-7.6833,-7.6482,0.0,0.0,0.0,-7.6431,-7.6883,-7.6381,-7.6105,-7.6055,-7.6607,-7.6908,-7.6984,-7.7486,-7.7737,-7.7812,-7.8314,-7.8515,-7.854,-7.8591,-7.8289,-7.7712,-7.7059,-7.6482,-7.5979,-7.5427,-7.4623,-7.377,-7.372,0.0,0.0,-7.525,-7.645,-7.8368,-8.0078,-8.057,-8.0947,-8.285,-8.3354,-8.3389,-8.3128,-8.2978,-8.2978,-8.2978,-8.2978,-8.2948,-8.2888,-8.2858,-8.2858,-8.2769,-8.2769,-8.2769,-8.2769,-8.2769,-8.2769,-8.2769,-8.2769,-8.2769,-8.2769,-8.2769,-8.2798,-8.2858,-8.2858,0.0,-8.2858,-8.1123,-8.0225,-8.0674,-7.8549,-7.7023,-7.6485,-7.6814,-7.7771,-7.9417,-8.0195,-8.202,-8.4923,-8.627,-8.7287,-8.7826,-8.0902,-8.1815,0.0,0.0,0.0,0.0,0.0,0.0,0.0,0.0,0.0,0.0,0.0,0.0,0.0,0.0,0.0,-7.3125,-7.5016,-7.5762,-7.53,-7.6108,-7.6574,-7.6112,-7.7369,-7.7506,-7.5309,-7.5955,-7.6343,-7.5879,-7.6306,-7.6657,-7.6858,-7.721,-7.7486,-7.7687,-7.7486,-7.721,-7.6883,-7.6783,-7.6507,-7.6055,-7.6607,0.0,-7.7536,-7.7662,-7.7938,-7.8365,-7.8465,-7.8515,-7.8566,-7.9018,-7.8892,-7.8214,-7.6783,-7.6155,-7.5979,-7.5427,-7.5101,-7.4849,-7.4423,-7.4556,-7.4712,-7.4154,-7.4139,-7.4846,-7.6067,-7.643,0.0,-8.062,-8.1643,-8.2124,-8.386,-8.4325,-8.4325,-8.4325,-8.4325,-8.4175,-8.3666,-8.3547,-8.3397,-8.2858,-8.2769,-8.2769,-8.2769,-8.2769,-8.2769,-8.2769,-8.2769,-8.2769,-8.2769,-8.2769,-8.2978,-8.3487,-8.3547,-8.3547,-8.3547,-8.223,-8.1003,-8.0075,-8.0016,-7.9986,-7.9866,-8.2409,-8.3726,-8.3576,-8.4743,-8.5671,-8.6299,-8.7646,-8.8903,-9.001,-8.8838,-8.9841,0.0,0.0,0.0,0.0,0.0,0.0,0.0,0.0,0.0,0.0,0.0,-5.9488,-6.2151,0.0,-7.0997,-7.4575,-7.612,-7.6293,-7.4994,-7.5796,-7.6062,-7.4563,-7.5773,-7.6203,-7.5396,-7.5728,-7.6055,-7.6055,-7.6557,-7.7009,-7.7285,-7.7561,-7.7963,-7.8515,-7.7988,-7.7561,-7.7285,-7.7009,-7.6733,-7.6482,-7.7034,-7.7586,-7.8114,-7.8415,-7.8691,-7.8967,-7.8967,-7.8967,-7.8967,-7.8967,-7.8792,-7.8415,-7.731,-7.6707,-7.6431,-7.6155,-7.5703,-7.5201,-7.4925,-7.4649,-7.4372,-7.4096,-7.382,-7.385,-7.5748,-7.6057,-7.6378,-7.921,-8.0747,-8.1868,-8.2736,-8.3844,-8.4714,-8.4714,-8.4714,-8.4624,-8.4295,-8.3965,-8.3726,-8.3726,-8.3217,-8.2858,-8.3187,-8.3247,-8.3128,-8.2828,-8.3038,-8.3128,-8.2798,-8.3038,-8.3367,-8.3696,-8.3726,-8.3876,-8.4205,-8.3636,-8.2978,-8.232,-8.2888,-8.3247,-8.3247,-8.5132,-8.618,-8.621,-8.7496,-8.8334,-8.8663,-9.0309,-9.1656,-9.2613,-9.3199,-9.4106,0.0,0.0,0.0,0.0,0.0,0.0,0.0,-5.2177,-5.388,-5.617,-6.0058,-6.3821,-6.5944,-6.9615,-7.3132,-7.5453,-7.6666,-7.6794,-7.504,-7.5774,-7.5709,-7.376,-7.4573,-7.5402,-7.5854,-7.5979,-7.6105,-7.6205,-7.6733,-7.7285,-7.7837,-7.7963,-7.844,-7.9369,-7.849,-7.7963,-7.7862,-7.7411,-7.7134,-7.7034,-7.7586,-7.8088,-7.854,-7.9118,-7.9394,-7.9394,-7.9394,-7.9394,-7.9344,-7.8892,-7.8691,-7.8641,-7.8214,-7.7687,-7.7185,-7.7084,-7.6406,-7.5552,-7.5552,-7.5201,-7.4724,-7.4598,-7.4197,-7.4102,-7.5922,-7.6009,-7.5954,-7.7742,-7.9655,-8.1092,-8.1464,-8.3029,-8.4574,-8.4917,-8.5103,-8.5043,-8.4923,-8.4504,-8.4235,-8.4624,-8.3876,-8.3307,-8.3846,-8.3936,-8.3696,-8.3038,-8.3517,-8.3726,-8.3217,-8.3606,-8.3965,-8.4085,-8.4115,-8.4384,-8.5043,-8.4983,-8.4953,-8.5073,-8.5731,-8.609,-8.609,-8.6958,-8.7706,-8.8274,-8.9561,-9.0549,-9.1207,-9.2943,-9.4139,-9.4828,-9.5486,-9.6224,-4.4673,-4.5355,-4.699,-5.0431,-5.1537,-5.4184,0.0,-6.3328,-6.2057,-6.5871,-6.843,-7.0074,-7.0303,-7.1887,-7.3751,-7.5073,-7.3872,-7.2784,-7.2916,-7.3547,-7.3951,-7.3594,-7.4573,-7.5276,-7.5327,-7.5778,-7.6256,-7.6733,-7.731,-7.7837,-7.839,-7.8917,-7.9269,-7.9394,-7.9269,-7.8942,-7.844,-7.8365,-7.8088,-7.7611,-7.8164,-7.8465,-7.854,-7.9118,-7.9394,-7.9394,-7.9394,-7.9394,-7.9369,-7.9319,-7.9294,-7.9294,-7.9218,-7.8842,-7.8264,-7.7787,-7.721,-7.6707,-7.6707,-7.6331,-7.5778,-7.5301,-7.4774,-7.4222,-7.4102,-7.3547,-7.3605,-7.5799,-7.6651,-7.7849,-8.1942,-8.3138,-8.3826,-8.5943,-8.6449,-8.6299,-8.5701,-8.5521,-8.5312,-8.4803,-8.4594,-8.4504,-8.4594,-8.4594,-8.4384,-8.3726,-8.4175,-8.4564,-8.4504,-8.4564,-8.4833,-8.5402,-8.5492,-8.5731,-8.6389,-8.591,-8.5821,-8.6419,-8.7107,-8.7496,-8.7496,-8.9232,-9.0219,-9.0309,-9.1596,-9.2583,-9.3242,-9.408,-9.4828,-9.5486,-9.6144,-9.683,-5.195,-5.2628,-5.3105,-5.539,-5.7946,-6.0865,-6.4786,-6.562,-6.6219,-6.8432,-7.0091,-7.1064,-7.1039,-7.1884,-7.2756,-7.3217,-7.2699,-7.2464,-7.269,-7.2941,-7.2966,-7.264,-7.3293,-7.4171,-7.5151,-7.5452,-7.5929,-7.6808,-7.7385,-7.7938,-7.849,-7.9068,-7.9394,-7.9394,-7.9394,-7.9118,-7.854,-7.8515,-7.8415,-7.8189,-7.8415,-7.8691,-7.9043,-7.9269,-7.9394,-7.9394,-7.9394,-7.9394,-7.9394,-7.9394,-7.9394,-7.9394,-7.9394,-7.9243,-7.8967,-7.839,-7.7637,-7.6883,-7.6883,-7.6507,-7.603,-7.5804,-7.5352,-7.4799,-7.4247,-7.3669,-7.3332,-7.4056,-7.5172,-7.6577,-7.8665,-8.0207,-8.1774,-8.4058,-8.4579,-8.5008,-8.5983,-8.597,-8.5731,-8.5821,-8.5222,-8.4833,-8.5222,-8.5282,-8.5192,-8.4923,-8.5103,-8.5132,-8.4773,-8.5043,-8.5402,-8.5671,-8.603,-8.6539,-8.7197,-8.7018,-8.7137,-8.7796,-8.8484,-8.8843,-8.8843,-9.0369,-9.1207,-9.1207,-9.2494,-9.3511,-9.4169,-9.4858,-9.5695,-9.6713,-9.6982,-9.7461,-5.6043,-5.7323,-5.8303,-5.9734,-6.3073,-6.5911,-6.5584,-6.7166,-6.8899,-6.9551,-7.043,-7.1033,-7.0882,-7.1309,-7.1736,-7.1887,-7.2238,-7.2489,-7.2489,-7.2364,-7.2138,-7.1736,-7.1887,-7.264,-7.4171,-7.4749,-7.5477,-7.6557,-7.731,-7.7938,-7.849,-7.9068,-7.9394,-7.9394,-7.9394,-7.9193,-7.8766,-7.8766,-7.8766,-7.8766,-7.8766,-7.8992,-7.9394,-7.9394,-7.9394,-7.9394,-7.9394,-7.9394,-7.9394,-7.9394,-7.9394,-7.9394,-7.9394,-7.9394,-7.9344,-7.8917,-7.8164,-7.731,-7.7159,-7.6733,-7.6256,-7.6105,-7.5678,-7.5176,-7.4774,-7.4272,-7.3694,-7.3117,-7.4183,-7.5564,-7.6086,-7.7449,-7.9569,-8.2706,-8.3462,-8.4155,-8.6419,-8.6718,-8.6539,-8.6659,-8.606,-8.5641,-8.591,-8.597,-8.597,-8.597,-8.597,-8.5791,-8.5312,-8.5851,-8.624,-8.624,-8.6838,-8.7496,-8.8185,-8.8245,-8.8514,-8.9172,-8.983,-9.019,-9.019,-9.1476,-9.2165,-9.2165,-9.3451,-9.4379,-9.4888,-9.5725,-9.6593,-9.7491,-9.77,-9.8059,-5.4386,-5.6972,-6.0788,-6.2998,-6.566,-6.812,-6.9702,-7.0531,-7.0832,-7.033,-7.0681,-7.0907,-7.038,-7.0732,-7.1284,-7.1811,-7.1912,-7.1937,-7.1937,-7.146,-7.1133,-7.1108,-7.0656,-7.0782,-7.1887,-7.3494,-7.49,-7.6004,-7.7084,-7.7938,-7.849,-7.9068,-7.9394,-7.9394,-7.9394,-7.9369,-7.9369,-7.9369,-7.9369,-7.9369,-7.9369,-7.9369,-7.9394,-7.9394,-7.9394,-7.9394,-7.9394,-7.9394,-7.9394,-7.9394,-7.9394,-7.9394,-7.9394,-7.9394,-7.9394,-7.9369,-7.8992,-7.839,-7.7862,-7.731,-7.6758,-7.623,-7.5678,-7.5251,-7.5226,-7.4824,-7.4272,-7.372,-7.3569,-7.4154,-7.5669,-7.6215,-7.7583,-8.2937,-8.4153,-8.4852,-8.7133,-8.8155,-8.8215,-8.6928,-8.7197,-8.7407,-8.6748,-8.6659,-8.6659,-8.6659,-8.6659,-8.6629,-8.6629,-8.7227,-8.7646,-8.7646,-8.8245,-8.8903,-8.9561,-8.9621,-8.989,-9.0549,-9.1207,-9.1566,-9.1566,-9.2823,-9.3511,-9.3511,-9.4858,-9.5546,-9.5576,-9.6833,-9.7461,-9.7521,-9.8179,-9.8508,-5.9433,-6.1943,-6.4178,-6.6413,-6.8748,-7.0681,-7.1234,-7.1485,-7.146,-7.0907,-7.038,-6.9828,-6.9275,-6.9627,-7.0179,-7.0732,-7.1435,-7.1912,-7.1912,-7.2062,-7.1636,-7.0179,-7.048,-7.0656,-7.0305,-7.2113,-7.392,-7.5402,-7.6532,-7.7561,-7.8465,-7.9068,-7.9394,-7.9394,-7.9394,-7.9394,-7.9394,-7.9394,-7.9394,-7.9394,-7.9394,-7.9394,-7.9394,-7.9394,-7.9394,-7.9394,-7.9394,-7.9394,-7.9394,-7.9394,-7.9394,-7.9394,-7.9394,-7.9394,-7.9394,-7.9394,-7.9269,-7.9018,-7.844,-7.7637,-7.6833,-7.6657,-7.623,-7.5703,-7.5352,-7.5101,-7.4774,-7.3845,-7.3594,-7.3634,-7.3758,-7.4235,-7.529,-7.8669,-7.9712,-8.1057,-8.5125,-8.568,-8.6061,-8.7652,-8.7856,-8.7646,-8.7407,-8.7347,-8.7347,-8.7347,-8.6958,-8.6838,-8.7317,-8.7556,-8.7885,-8.8304,-8.8544,-8.8963,-8.9621,-8.9681,-9.013,-9.1207,-9.1506,-9.1805,-9.2254,-9.3122,-9.381,-9.4259,-9.5127,-9.6025,-9.6862,-9.7281,-9.773,-9.8179,-9.8419,-9.8538,-6.3224,-6.5208,-6.6513,-6.915,-7.0857,-7.1912,-7.1912,-7.1761,-7.1234,-6.9903,-6.8723,-6.7668,-6.6714,-6.684,-6.7593,-6.9125,-7.0305,-7.1309,-7.2087,-7.2514,-7.2213,-7.0782,-7.1058,-7.1184,-7.0656,-7.2087,-7.3494,-7.4573,-7.6205,-7.7561,-7.8465,-7.9269,-7.9771,-7.9972,-7.9796,-7.9695,-7.9695,-7.9495,-7.9394,-7.9394,-7.9394,-7.9394,-7.9394,-7.9394,-7.9495,-7.9695,-7.9695,-7.9695,-7.9695,-7.9695,-7.957,-7.9394,-7.9394,-7.9394,-7.9394,-7.9394,-7.9394,-7.9294,-7.8716,-7.7938,-7.7134,-7.6933,-7.6632,-7.6256,-7.5703,-7.5678,-7.5603,-7.4498,-7.4171,-7.4046,-7.3494,-7.3619,-7.447,-7.7162,-7.8036,-7.9542,-8.4332,-8.5276,-8.5839,-8.8145,-8.8544,-8.8334,-8.8095,-8.8065,-8.8065,-8.8065,-8.7676,-8.7556,-8.8005,-8.8274,-8.8574,-8.8993,-8.9232,-8.9561,-8.998,-9.0219,-9.0728,-9.1566,-9.2075,-9.2524,-9.2943,-9.381,-9.4499,-9.4947,-9.5815,-9.6683,-9.7491,-9.773,-9.8089,-9.8538,-9.8538,-9.8538,-6.5534,-6.6739,-6.7995,-7.1158,-7.1937,-7.1887,-7.1887,-7.1359,-7.0104,-6.7342,-6.581,-6.4479,-6.2772,-6.2647,-6.3877,-6.7066,-6.8698,-7.0305,-7.2439,-7.2791,-7.2841,-7.2791,-7.2364,-7.2263,-7.2765,-7.3368,-7.372,-7.377,-7.6205,-7.7963,-7.854,-7.9645,-8.0474,-8.0976,-8.0524,-8.0223,-8.0173,-7.9645,-7.9394,-7.9394,-7.9394,-7.9394,-7.9394,-7.9394,-7.9695,-8.0223,-8.0173,-8.0173,-8.0223,-8.0173,-7.9846,-7.9394,-7.9394,-7.9394,-7.9394,-7.9394,-7.9394,-7.9294,-7.8716,-7.8164,-7.7611,-7.7059,-7.6858,-7.6733,-7.6205,-7.6431,-7.6607,-7.5527,-7.5251,-7.5126,-7.4548,-7.4448,-7.5128,-7.7995,-7.8692,-7.9974,-8.4665,-8.6168,-8.6975,-8.8308,-8.9262,-8.9471,-8.8843,-8.8693,-8.8693,-8.8723,-8.8723,-8.8723,-8.8723,-8.9292,-8.9681,-8.9771,-9.0309,-9.0698,-9.0728,-9.1327,-9.1686,-9.1716,-9.2883,-9.3601,-9.3631,-9.4888,-9.5606,-9.5636,-9.6862,-9.7521,-9.7551,-9.8209,-9.8538,-9.8538,-9.8538,-9.8538,-6.7844,-6.9602,-7.0958,-7.2213,-7.2213,-7.1811,-7.1384,-6.9602,-6.7241,-6.4454,-6.2345,-6.0211,-5.775,-6.0311,-6.3249,-6.453,-6.8422,-7.161,-7.259,-7.382,-7.4297,-7.3468,0.0,-7.4297,-7.4021,-7.4849,-7.5603,-7.6004,-7.7059,-7.8139,-7.9118,-8.0223,-8.07,-8.0424,-8.0675,-8.0424,-7.9595,-7.9469,-7.9394,-7.9394,-7.9394,-7.9394,-7.9394,-7.9394,-7.9695,-8.0198,-7.9771,-7.9821,-8.0173,-7.9771,-7.952,-7.9394,-7.9394,-7.9394,-7.9394,-7.9394,-7.9394,-7.9294,-7.8716,-7.8164,-7.7611,-7.7059,-7.6607,-7.623,-7.6105,-7.6155,-7.613,-7.5427,-7.5251,-7.5126,-7.4548,-7.4724,-7.5245,-7.5929,-7.6454,-7.7679,-8.0589,-8.1091,-8.2183,-8.6659,-8.861,-8.9621,-8.9441,-8.9023,-8.8843,-8.9352,-8.9412,-8.9412,-8.9412,-8.9561,-9.004,-9.1027,-9.1267,-9.1566,-9.2075,-9.2254,-9.2554,-9.3062,-9.3391,-9.381,-9.4319,-9.5157,-9.5815,-9.6324,-9.7102,-9.776,-9.8269,-9.8448,-9.8538,-9.8538,-9.8538,-9.8538,-6.9903,-7.1384,-7.2288,-7.2339,-7.1962,-7.0958,-6.8698,-6.6413,-6.3651,-5.9659,-5.765,-5.5767,-5.3005,-5.6972,-6.0914,-6.1718,-6.7091,-7.1636,-7.2916,-7.4749,-7.5728,0.0,-7.5804,0.0,-7.5879,-7.6632,-7.736,-7.7938,-7.8264,-7.8917,-8.0047,-8.07,-8.1001,-8.0901,-8.075,-8.0273,-7.9394,-7.9394,-7.9394,-7.9394,-7.9394,-7.9394,-7.9394,-7.9645,-7.9921,-8.0223,-8.0373,-8.0348,-8.0198,-8.0147,-7.9821,-7.9394,-7.9394,-7.9394,-7.9394,-7.9394,-7.9394,-7.9294,-7.8716,-7.8314,-7.7938,-7.7134,-7.6682,-7.6381,-7.613,-7.623,-7.6306,-7.5753,-7.5603,-7.5527,-7.5201,-7.5352,-7.5603,-7.5603,-7.5829,-7.6792,-7.9154,-7.9461,-8.0774,-8.6015,-8.8716,-9.01,-9.01,-8.9801,-8.9681,-9.004,-9.0339,-9.0519,-9.0519,-9.0279,-9.0369,-9.1117,-9.1446,-9.1776,-9.2135,-9.2703,-9.3182,-9.3571,-9.4139,-9.4648,-9.5037,-9.5935,-9.6593,-9.6982,-9.7611,-9.8119,-9.8538,-9.8538,-9.8538,-9.8538,-9.8538,-9.8538,-7.161,-7.2364,-7.259,-7.1962,-7.1209,-6.9501,-6.5132,-6.2571,-5.9583,-5.416,-5.2578,-5.1322,-4.8611,-5.3105,-5.77,-5.9056,-6.5157,-7.0631,-7.3217,-7.5352,-7.6733,-7.6959,-7.7536,-7.7963,-7.8013,-7.854,-7.9093,-7.967,-7.9695,-8.0122,-8.1076,-8.1202,-8.1453,-8.1905,-8.0876,-8.0097,-7.962,-7.9545,-7.9469,-7.9394,-7.9394,-7.9394,-7.9394,-7.9947,-8.0248,-8.0373,-8.1302,-8.1227,-8.0449,-8.0775,-8.0373,-7.9495,-7.9419,-7.9394,-7.9394,-7.9394,-7.9394,-7.9294,-7.8716,-7.8515,-7.834,-7.7235,-7.6883,-7.6783,-7.623,-7.6381,-7.6682,-7.618,-7.6055,-7.6055,-7.6055,-7.6105,-7.6155,-7.608,-7.6105,-7.6697,-7.8823,-7.9535,-8.099,-8.516,-8.827,-9.0109,-9.0109,-9.0532,-9.0758,-9.0758,-9.1327,-9.1746,-9.1746,-9.1267,-9.0938,-9.1027,-9.1536,-9.1925,-9.2015,-9.3062,-9.375,-9.384,-9.4947,-9.5636,-9.5725,-9.6862,-9.7491,-9.7491,-9.8179,-9.8538,-9.8538,-9.8538,-9.8538,-9.8538,-9.8538,-9.8538,-7.2389,-7.2665,-7.2489,-7.1485,-6.9777,-6.7317,-6.335,-5.9382,-5.5214,-5.0569,-4.8837,-4.7431,-4.5095,-4.9665,-5.4762,-5.77,-6.3048,-6.8422,-7.2966,-7.4699,-7.603,-7.7411,-7.8465,-7.9269,-7.9721,-8.0273,-8.0825,-8.1353,-8.1378,-8.1478,-8.1654,-8.2131,-8.2432,-8.2508,-8.1453,-8.085,-8.075,-8.0298,-7.9846,-7.9394,-7.9394,-7.9394,-7.9394,-7.9947,-8.0449,-8.0901,-8.1076,-8.1302,-8.1478,-8.0675,-8.0248,-8.0022,-7.957,-7.9394,-7.9394,-7.9394,-7.9394,-7.9294,-7.8716,-7.8515,-7.834,-7.7235,-7.6883,-7.6783,-7.623,-7.613,-7.618,-7.608,-7.6055,-7.6055,-7.6055,-7.6381,-7.6632,-7.6155,-7.6406,-7.6806,-7.6697,-7.8246,-7.9888,-8.0803,-8.4624,-8.7553,-8.7553,-8.9791,-9.1446,-9.1446,-9.2015,-9.2434,-9.2434,-9.2344,-9.2464,-9.3002,-9.3182,-9.3481,-9.405,-9.4289,-9.4648,-9.5217,-9.5456,-9.5845,-9.6384,-9.7102,-9.7491,-9.7491,-9.8179,-9.8538,-9.8538,-9.8538,-9.8538,-9.8538,-9.8538,-9.8538,-7.259,-7.274,-7.2389,-7.1008,-6.8999,-6.5911,-6.0261,-5.6018,-5.1825,-4.6803,-4.5347,-4.4468,-4.2811,-4.7506,-5.2251,-5.4135,-5.9307,-6.4957,-7.0255,-7.2439,-7.4548,-7.736,-7.8942,-7.9921,-8.0198,-8.0951,-8.1528,-8.1779,-8.2081,-8.2257,-8.2257,-8.2231,-8.2106,-8.183,-8.1302,-8.0901,-8.0599,-8.0624,-8.0373,-7.9821,-8.0097,-8.0248,-8.0273,-8.08,-8.1026,-8.1076,-8.1629,-8.1704,-8.1378,-8.1152,-8.0725,-8.0173,-7.9921,-7.9821,-7.9821,-7.9821,-7.9821,-7.9821,-7.9821,-7.9444,-7.8892,-7.8365,-7.7787,-7.726,-7.6984,-7.6707,-7.6482,-7.6482,-7.6482,-7.6482,-7.6482,-7.6883,-7.7159,-7.6607,-7.6682,-7.6808,-7.6532,-7.8323,-8.0068,-7.9778,-8.3724,-8.7091,-8.7436,-8.9746,-9.1746,-9.2075,-9.2673,-9.3122,-9.3122,-9.3421,-9.3511,-9.3122,-9.3361,-9.387,-9.4558,-9.4917,-9.5396,-9.6055,-9.6414,-9.6713,-9.7042,-9.767,-9.803,-9.803,-9.8359,-9.8538,-9.8538,-9.8538,-9.8538,-9.8538,-9.8538,-9.8538,-7.2439,-7.2565,-7.2163,-7.0506,-6.807,-6.4279,-5.7424,-5.303,-4.8912,-4.3689,-4.2534,-4.2233,-4.148,-4.5547,-4.954,-5.1197,-5.5942,-6.1542,-6.7593,-7.0556,-7.3494,-7.726,-7.9294,-8.0424,-8.0549,-8.1428,-8.198,-8.198,-8.2407,-8.2683,-8.2683,-8.2231,-8.1805,-8.1403,-8.1378,-8.1127,-8.0549,-8.0976,-8.0926,-8.0398,-8.0825,-8.1026,-8.1051,-8.1579,-8.1579,-8.1252,-8.2231,-8.2181,-8.1403,-8.1679,-8.1302,-8.0549,-8.0424,-8.0373,-8.0373,-8.0373,-8.0373,-8.0449,-8.0876,-8.0474,-7.9721,-7.9595,-7.8792,-7.7862,-7.7737,-7.7411,-7.7034,-7.6908,-7.6959,-7.7034,-7.6908,-7.736,-7.7762,-7.7335,-7.7134,-7.7059,-7.7059,-7.8445,-7.9501,-7.925,-8.3006,-8.662,-8.7105,-8.9813,-9.2224,-9.2733,-9.3361,-9.381,-9.381,-9.4259,-9.4199,-9.3152,-9.3481,-9.408,-9.4768,-9.5306,-9.5935,-9.6713,-9.7222,-9.7551,-9.77,-9.8239,-9.8538,-9.8538,-9.8538,-9.8538,-9.8538,-9.8538,-9.8538,-9.8538,-9.8538,-9.8538,-7.1962,-7.1987,-7.1585,-6.9928,-6.6338,-6.1718,-5.6018,-5.0971,-4.6376,-4.2333,-4.1103,-4.0877,-4.1254,-4.3011,-4.6075,-5.1197,-5.4587,-5.9232,-6.6815,-7.0656,-7.3946,-7.731,-7.962,-8.1152,-8.1604,-8.2231,-8.2583,-8.2583,-8.2633,-8.2683,-8.2683,-8.2633,-8.2558,-8.2533,-8.2533,-8.2231,-8.1654,-8.1704,-8.1478,-8.0951,-8.1001,-8.1026,-8.1051,-8.1579,-8.1779,-8.1779,-8.2407,-8.2608,-8.2483,-8.2005,-8.1754,-8.1604,-8.1152,-8.0951,-8.0951,-8.0951,-8.0951,-8.0976,-8.1026,-8.0976,-8.08,-8.0298,-7.9369,-7.8365,-7.7862,-7.7662,-7.7511,-7.7009,-7.7235,-7.7511,-7.7009,-7.7662,-7.844,-7.839,-7.7988,-7.7637,-7.7637,-7.741,-7.7232,-7.7181,-8.1227,-8.4556,-8.4612,-8.9436,-9.3421,-9.3481,-9.408,-9.4528,-9.4528,-9.4558,-9.4558,-9.4439,-9.4469,-9.4798,-9.5456,-9.5546,-9.6114,-9.7341,-9.7461,-9.779,-9.8389,-9.8478,-9.8538,-9.8538,-9.8538,-9.8538,-9.8538,-9.8538,-9.8538,-9.8538,-9.8538,-9.8538,-7.1535,-7.1912,-7.151,-6.9853,-6.6112,-6.1366,-5.5817,-5.072,-4.6024,-4.2133,-4.0651,-4.03,-4.1178,-4.1882,-4.3815,-4.8385,-5.0042,-5.3231,-6.0311,-6.3902,-6.7894,-7.3544,-7.6758,-7.9394,-8.1604,-8.2332,-8.2683,-8.2683,-8.2683,-8.2683,-8.2683,-8.2683,-8.2683,-8.2683,-8.2683,-8.2382,-8.1805,-8.2156,-8.2056,-8.1503,-8.1855,-8.2005,-8.2031,-8.2231,-8.2332,-8.2332,-8.2583,-8.2683,-8.2658,-8.2432,-8.2131,-8.1779,-8.1579,-8.1503,-8.1503,-8.1503,-8.1503,-8.1553,-8.1905,-8.1579,-8.1051,-8.1152,-8.0424,-7.9444,-7.8892,-7.8465,-7.8164,-7.7938,-7.8038,-7.8139,-7.7913,-7.8189,-7.8616,-7.8967,-7.8616,-7.8189,-7.8189,-7.8013,-7.7762,-7.7436,-8.0179,-8.3062,-8.5081,-8.8734,-9.2011,-9.3937,-9.4439,-9.4618,-9.4618,-9.4947,-9.5187,-9.5187,-9.5187,-9.5456,-9.6114,-9.6533,-9.7132,-9.8059,-9.8119,-9.8239,-9.8508,-9.8538,-9.8538,-9.8538,-9.8538,-9.8538,-9.8538,-9.8538,-9.8538,-9.8538,-9.8538,-9.8748,-7.0129,-7.1058,-7.1033,-6.9376,-6.5634,-6.0939,-5.5541,-5.0469,-4.5874,-4.2308,-4.0701,-4.0275,-4.1379,-4.158,-4.2811,-4.6527,-4.7531,-5.0243,-5.7072,-6.0412,-6.458,-7.1133,-7.4423,-7.7385,-8.0524,-8.1955,-8.2683,-8.2683,-8.2683,-8.2683,-8.2683,-8.2683,-8.2683,-8.2683,-8.2683,-8.2483,-8.2056,-8.2457,-8.2457,-8.2056,-8.2483,-8.2683,-8.2683,-8.2683,-8.2683,-8.2683,-8.2683,-8.2683,-8.2683,-8.2683,-8.2432,-8.2056,-8.2056,-8.2056,-8.2056,-8.2056,-8.2056,-8.2131,-8.2533,-8.2156,-8.1553,-8.1754,-8.1302,-8.0549,-7.9846,-7.9243,-7.8741,-7.8566,-7.8515,-7.8566,-7.8741,-7.8792,-7.8867,-7.9294,-7.9068,-7.8792,-7.8792,-7.8641,-7.8415,-7.8013,-8.0015,-8.2586,-8.5609,-8.8278,-9.1214,-9.4152,-9.4618,-9.4618,-9.4618,-9.5187,-9.5606,-9.5606,-9.5935,-9.6354,-9.6803,-9.7252,-9.779,-9.8478,-9.8538,-9.8538,-9.8538,-9.8538,-9.8538,-9.8538,-9.8538,-9.8538,-9.8538,-9.8718,-9.8808,-9.8808,-9.9017,-9.9346,-6.7392,-6.9024,-6.9878,-6.8221,-6.4479,-5.9885,-5.4863,-4.9866,-4.5522,-4.271,-4.1279,-4.0852,-4.1957,-4.2158,-4.3237,-4.6602,-4.851,-5.2076,-5.9307,-6.2697,-6.6287,-7.1309,-7.3393,-7.5527,-7.8289,-8.1051,-8.2683,-8.2683,-8.2683,-8.2683,-8.2683,-8.2683,-8.2683,-8.2683,-8.2683,-8.2683,-8.2658,-8.2683,-8.2683,-8.2658,-8.2683,-8.2683,-8.2683,-8.2683,-8.2683,-8.2683,-8.2683,-8.2683,-8.2683,-8.2683,-8.2683,-8.2658,-8.2658,-8.2658,-8.2658,-8.2658,-8.2658,-8.2658,-8.2683,-8.2658,-8.2558,-8.198,-8.1805,-8.1579,-8.0524,-7.9821,-7.9269,-7.8691,-7.8515,-7.8666,-7.9243,-7.9369,-7.9369,-7.9394,-7.9394,-7.9369,-7.9369,-7.8917,-7.8515,-7.8515,-8.0583,-8.3038,-8.5664,-8.8646,-9.1737,-9.4241,-9.4618,-9.4618,-9.4618,-9.5187,-9.5606,-9.5606,-9.6713,-9.7491,-9.7491,-9.7491,-9.779,-9.8478,-9.8538,-9.8538,-9.8538,-9.8538,-9.8538,-9.8538,-9.8538,-9.8538,-9.8538,-9.9167,-9.9496,-9.9496,-10.0184,-10.0483,-6.1341,-6.2496,-6.2898,-6.0487,-5.7951,-5.5064,-5.1197,-4.7958,-4.507,-4.266,-4.1279,-4.0852,-4.1957,-4.2158,-4.3865,-4.9113,-5.0419,-5.2729,-5.8453,-6.2571,-6.6463,-7.033,-7.6281,-8.0398,-8.1277,-8.2156,-8.2683,-8.2683,-8.2683,-8.2683,-8.2683,-8.2683,-8.2683,-8.2683,-8.2683,-8.2683,-8.2683,-8.2683,-8.2683,-8.2683,-8.2683,-8.2683,-8.2683,-8.2683,-8.2683,-8.2683,-8.2683,-8.2683,-8.2683,-8.2683,-8.2683,-8.2683,-8.2683,-8.2683,-8.2683,-8.2683,-8.2683,-8.2683,-8.2683,-8.2683,-8.2633,-8.2457,-8.2131,-8.1679,-8.0976,-8.0398,-7.9821,-7.9269,-7.9118,-7.9143,-7.9344,-7.9394,-7.9394,-7.9394,-7.9394,-7.9394,-7.9394,-7.9243,-7.9118,-7.9118,-7.9683,-8.1578,-8.5943,-8.7624,-8.9652,-9.4037,-9.4977,-9.5277,-9.5277,-9.6234,-9.6892,-9.6892,-9.767,-9.8,-9.7551,-9.794,-9.8299,-9.8508,-9.8538,-9.8538,-9.8538,-9.8538,-9.8538,-9.8538,-9.8538,-9.8748,-9.9197,-9.9406,-9.9735,-10.0184,-10.0872,-10.1171,-5.5817,-5.7625,-5.8252,-5.6118,-5.4336,-5.2226,-4.8912,-4.6451,-4.4267,-4.2258,-4.1128,-4.0802,-4.1681,-4.2007,-4.3689,-4.8335,-4.9791,-5.2302,-5.7901,-6.2144,-6.6463,-7.1259,-7.731,-8.1202,-8.1403,-8.2181,-8.2683,-8.2683,-8.2683,-8.2683,-8.2683,-8.2683,-8.2683,-8.2683,-8.2683,-8.2683,-8.2683,-8.2683,-8.2683,-8.2683,-8.2683,-8.2683,-8.2683,-8.2683,-8.2683,-8.2683,-8.2683,-8.2683,0.0,-8.2683,-8.2683,-8.2683,-8.2683,-8.2683,-8.2683,-8.2683,-8.2683,-8.2683,-8.2683,-8.2683,-8.2683,-8.2683,-8.2156,-8.1453,-8.1127,-8.0499,-7.9821,-7.9495,-7.9394,-7.9394,-7.9394,-7.9394,-7.9394,-7.9394,-7.9394,-7.9394,-7.9394,-7.9394,-7.9394,-7.9394,-7.9545,-8.1161,-8.608,-8.7366,-8.9318,-9.4249,-9.5546,-9.5965,-9.5965,-9.6862,-9.7491,-9.7491,-9.8119,-9.8359,-9.791,-9.8269,-9.8538,-9.8538,-9.8538,-9.8538,-9.8538,-9.8538,-9.8538,-9.8538,-9.8538,-9.8837,-9.9496,-10.0004,-10.0603,-10.1261,-10.168,-10.186,0.0,-5.3632,-5.4988,-5.3858,-5.2477,-5.0569,-4.7431,-4.5146,0.0,-4.1656,-4.0902,-4.0777,-4.1605,-4.2032,-4.3137,-4.5824,-4.8008,-5.1624,-5.8127,-6.2195,-6.7091,-7.4071,-7.721,-7.9018,-7.957,-8.1478,-8.2683,-8.2683,-8.2683,-8.2683,-8.2683,-8.2683,-8.2683,-8.2683,-8.2683,-8.2683,-8.2683,-8.2683,-8.2683,-8.2683,-8.2683,-8.2683,-8.2683,-8.2683,-8.2683,-8.2683,-8.2683,-8.2683,-8.2683,-8.2683,-8.2683,-8.2683,-8.2683,-8.2683,-8.2683,-8.2683,-8.2683,-8.2683,-8.2683,-8.2683,-8.2683,-8.2683,-8.193,-8.1026,-8.1026,-8.0273,-7.9394,-7.9444,-7.9419,-7.9394,-7.9444,-7.9419,-7.9394,-7.9394,-7.9394,-7.9394,-7.9394,-7.9394,-7.9394,-7.9394,-8.0003,-8.1929,-8.6381,-8.8193,-9.0493,-9.4961,-9.6204,-9.6623,-9.6623,-9.7192,-9.7551,-9.7551,-9.8149,-9.8538,-9.8538,-9.8538,-9.8538,-9.8538,-9.8538,-9.8538,-9.8538,-9.8538,-9.8538,-9.8538,-9.8598,-9.8957,-9.9586,-10.0902,-10.186,-10.2488,-10.2518,-10.2518,-4.3037,0.0,-4.5723,-4.4192,-4.4166,-4.4166,0.0,-4.261,-4.2308,-4.1505,0.0,-4.1605,-4.5121,-4.4493,-4.5673,-5.2578,-5.4486,-5.6821,-6.1818,-6.8296,-7.4247,-7.8917,-8.08,-8.1754,-8.188,-8.2357,-8.2683,-8.2683,-8.2683,-8.2683,-8.2683,-8.2683,-8.2683,-8.2683,-8.2683,-8.2683,-8.2683,-8.2683,-8.2683,-8.2683,-8.2683,-8.2683,-8.2683,-8.2683,-8.2683,-8.2683,-8.2683,-8.2683,-8.2683,-8.2683,-8.2683,-8.2683,-8.2683,-8.2683,-8.2683,-8.2683,-8.2683,-8.2683,-8.2683,-8.2683,-8.2683,-8.2683,-8.193,-8.1026,-8.1026,-8.0273,-7.9469,-7.9896,-7.9721,-7.9495,-7.9896,-7.9695,-7.9394,-7.9394,-7.9394,-7.9394,-7.9394,-7.9394,-7.9394,-7.9394,-8.1008,-8.3697,-8.7259,-8.9656,-9.2257,-9.5881,-9.6862,-9.7281,-9.7281,-9.785,-9.8269,-9.8269,-9.8419,-9.8538,-9.8538,-9.8538,-9.8538,-9.8538,-9.8538,-9.8538,-9.8538,-9.8538,-9.8538,-9.8538,-9.9526,-10.0094,-10.0274,-10.159,-10.2309,-10.2488,-10.2997,-10.2937,-3.9772,-4.1907,-4.3966,-4.3338,-4.3438,-4.3614,-4.3313,-4.2283,-4.1254,0.0,0.0,-4.148,-4.4644,-4.5296,-4.7305,-5.3356,-5.6294,-6.006,-6.6538,-7.2389,-7.7235,-8.0624,-8.2005,-8.2683,-8.2683,-8.2683,-8.2683,-8.2683,-8.2683,-8.2683,-8.2683,-8.2683,-8.2683,-8.2683,-8.2683,-8.2683,-8.2683,-8.2683,-8.2683,-8.2683,-8.2683,-8.2683,-8.2683,-8.2683,-8.2683,-8.2683,-8.2683,-8.2683,-8.2683,-8.2683,-8.2683,-8.2683,-8.2683,-8.2683,-8.2683,-8.2683,-8.2683,-8.2683,-8.2683,-8.2683,-8.2683,-8.2683,-8.193,-8.1026,-8.1026,-8.0273,-7.9444,-7.9746,-7.962,-7.9444,-7.9746,-7.962,-7.9394,-7.9394,-7.9394,-7.9394,-7.9394,-7.9394,-7.9394,-7.9394,-8.1693,-8.445,-8.7452,-9.0484,-9.3686,-9.6567,-9.7551,-9.797,-9.797,-9.8299,-9.8538,-9.8538,-9.8538,-9.8538,-9.8538,-9.8538,-9.8538,-9.8538,-9.8538,-9.8538,-9.8538,-9.8538,-9.8658,-9.8957,-9.9975,-10.0663,-10.0962,-10.1979,-10.2608,-10.2907,-10.3236,-10.3416,-3.9597,-4.2861,-4.5974,-4.5422,-4.5397,-4.5397,-4.5045,-4.2861,-4.0752,0.0,0.0,0.0,-4.4091,-4.6426,-4.9289,-5.313,-5.7399,-6.3124,-7.1384,-7.5201,-7.8139,-8.0825,-8.2056,-8.2683,-8.2683,-8.2683,-8.2683,-8.2683,-8.2683,-8.2683,-8.2683,-8.2683,-8.2683,-8.2683,-8.2683,-8.2683,-8.2683,-8.2683,-8.2683,-8.2683,-8.2683,-8.2683,-8.2683,-8.2683,-8.2683,-8.2683,-8.2683,-8.2683,-8.2683,-8.2683,-8.2683,-8.2683,-8.2683,-8.2683,-8.2683,-8.2683,-8.2683,-8.2683,-8.2683,-8.2683,-8.2683,-8.2683,-8.193,-8.1026,-8.1026,-8.0273,-7.9394,-7.9394,-7.9394,-7.9394,-7.9495,-7.9444,-7.9394,-7.9394,-7.9394,-7.9394,-7.9394,-7.9394,-7.9394,-7.9394,-8.2128,-8.5444,-8.7837,-9.1484,-9.5015,-9.7252,-9.8149,-9.8538,-9.8538,-9.8538,-9.8538,-9.8538,-9.8538,-9.8538,-9.8538,-9.8538,-9.8538,-9.8538,-9.8538,-9.8538,-9.8538,-9.8628,-9.8927,-9.9496,-10.0274,-10.0902,-10.1471,-10.2189,-10.2787,-10.3296,-10.3506,-10.3805,-4.2861,-4.6301,-4.7631,-4.2082,-4.3112,-4.4995,-4.3087,-4.2635,-4.2585,-4.2484,0.0,0.0,-5.0494,-5.1749,-5.4034,-6.0186,-6.4505,-6.9049,-7.4649,-7.7059,-7.9118,-8.1403,-8.2282,-8.2683,-8.2683,-8.2683,-8.2683,-8.2683,-8.2683,-8.2683,-8.2683,-8.2683,-8.2683,-8.2683,-8.2683,-8.2683,-8.2683,-8.2683,-8.2683,-8.2683,-8.2683,-8.2683,-8.2683,-8.2683,-8.2683,-8.2683,-8.2683,-8.2683,-8.2683,-8.2683,-8.2683,-8.2683,-8.2683,-8.2683,-8.2683,-8.2683,-8.2683,-8.2683,-8.2683,-8.2683,-8.2683,-8.2683,-8.193,-8.1026,-8.1026,-8.0273,-7.9394,-7.9394,-7.9394,-7.9495,-7.9972,-7.9746,-7.9394,-7.9394,-7.9394,-7.9394,-7.9394,-7.9394,-7.9394,-7.9394,-8.3657,-8.7672,-8.8526,-9.3296,-9.7312,-9.8269,-9.8448,-9.8538,-9.8538,-9.8538,-9.8538,-9.8538,-9.8538,-9.8538,-9.8538,-9.8538,-9.8538,-9.8538,-9.8538,-9.8538,-9.8538,-9.9047,-9.9406,-9.9496,-10.0693,-10.1381,-10.1471,-10.2189,-10.2518,-10.2668,-10.3715,-10.4014,-4.1404,-4.5045,-4.7531,-4.4468,-4.7079,-5.0117,-4.9088,-4.7657,-4.6552,0.0,0.0,-4.8987,-5.3055,-5.5039,-5.8428,-6.566,-6.9351,-7.2615,-7.6406,-7.8114,-7.9695,-8.1579,-8.2307,-8.2683,-8.2683,-8.2683,-8.2683,-8.2683,-8.2683,-8.2683,-8.2683,-8.2683,-8.2683,-8.2683,-8.2683,-8.2683,-8.2683,-8.2683,-8.2683,-8.2683,-8.2683,-8.2683,-8.2683,-8.2683,-8.2683,-8.2683,-8.2683,-8.2683,-8.2683,-8.2683,-8.2683,-8.2683,-8.2683,-8.2683,-8.2683,-8.2683,-8.2683,-8.2683,-8.2683,-8.2683,-8.2633,-8.2307,-8.1679,-8.0976,-8.0675,-8.0022,-7.9394,-7.9394,-7.9394,-7.9444,-7.9695,-7.957,-7.9394,-7.9394,-7.9394,-7.9394,-7.9394,-7.962,-7.9821,-7.9821,-8.3354,-8.6995,-8.8967,-9.2807,-9.6166,-9.8238,-9.8538,-9.8538,-9.8538,-9.8538,-9.8538,-9.8538,-9.8538,-9.8538,-9.8538,-9.8538,-9.8538,-9.8538,-9.8538,-9.8538,-9.8538,-9.9167,-9.9675,-10.0004,-10.0962,-10.165,-10.2009,-10.2309,-10.2877,-10.3506,-10.4104,-10.4613,-4.0852,-4.4116,-4.733,-4.8109,-5.0971,-5.3808,-5.4587,0.0,0.0,0.0,0.0,-5.3281,-5.5666,-5.893,-6.3299,-6.9627,-7.274,-7.5226,-7.7737,-7.9068,-8.0323,-8.183,-8.2407,-8.2683,-8.2683,-8.2683,-8.2683,-8.2683,-8.2683,-8.2683,-8.2683,-8.2683,-8.2683,-8.2683,-8.2683,-8.2683,-8.2683,-8.2683,-8.2683,-8.2683,-8.2683,-8.2683,-8.2683,-8.2683,-8.2683,-8.2683,-8.2683,-8.2683,-8.2683,-8.2683,-8.2583,-8.2483,-8.2483,-8.2382,-8.2282,-8.2282,-8.2357,-8.2483,-8.2483,-8.2558,-8.2583,-8.2005,-8.1453,-8.0926,-8.0373,-7.9821,-7.9394,-7.9394,-7.9394,-7.9394,-7.9394,-7.9394,-7.9394,-7.9394,-7.9394,-7.9419,-7.9545,-7.9796,-8.0097,-8.0348,-8.2855,-8.5862,-8.9212,-9.1982,-9.4995,-9.8057,-9.8538,-9.8538,-9.8538,-9.8538,-9.8538,-9.8538,-9.8538,-9.8538,-9.8538,-9.8538,-9.8538,-9.8538,-9.8538,-9.8538,-9.8538,-9.9316,-9.9975,-10.0483,-10.1291,-10.1979,-10.2488,-10.2488,-10.3087,-10.4194,-10.4313,-10.5032,-4.4694,-4.6476,-4.7883,-5.0971,-5.1222,0.0,-5.4612,-5.3557,0.0,-5.6545,0.0,0.0,-6.0487,-6.5082,-6.9351,-7.146,-7.4523,-7.726,-7.9018,-8.0223,-8.1328,-8.2483,-8.2633,-8.2683,-8.2683,-8.2683,-8.2683,-8.2683,-8.2683,-8.2683,-8.2683,-8.2683,-8.2683,-8.2683,-8.2683,-8.2683,-8.2683,-8.2683,-8.2683,-8.2683,-8.2683,-8.2683,-8.2683,-8.2683,-8.2683,-8.2683,-8.2683,-8.2683,-8.2683,-8.2683,-8.2357,-8.1855,-8.1855,-8.1579,-8.1152,-8.1152,-8.1453,-8.1855,-8.1855,-8.2231,-8.2583,-8.2005,-8.1453,-8.0926,-8.0373,-7.9821,-7.9394,-7.9394,-7.9394,-7.9394,-7.9394,-7.9394,-7.9394,-7.9394,-7.9394,-7.952,-8.0047,-7.9771,-7.9746,-8.0775,-8.3139,-8.609,-8.9212,-9.2513,-9.5489,-9.8117,-9.8538,-9.8538,-9.8538,-9.8538,-9.8538,-9.8538,-9.8538,-9.8538,-9.8538,-9.8538,-9.8538,-9.8538,-9.8538,-9.8538,-9.8538,-9.9735,-10.0453,-10.0483,-10.177,-10.2488,-10.2488,-10.2488,-10.2817,-10.3506,-10.4104,-10.4792,-4.1555,-4.5121,-4.8611,-5.0569,0.0,0.0,0.0,-5.8127,-5.9483,-6.1969,-6.3099,0.0,-6.463,-6.7894,-7.0882,-7.2213,-7.4925,-7.7461,-7.9143,-8.0323,-8.1302,-8.2056,-8.2457,-8.2683,-8.2683,-8.2683,-8.2683,-8.2683,-8.2683,-8.2683,-8.2683,-8.2683,-8.2683,-8.2683,-8.2683,-8.2683,-8.2683,-8.2683,-8.2683,-8.2683,-8.2683,-8.2683,-8.2683,-8.2683,-8.2483,-8.2156,-8.2508,-8.2457,-8.2131,-8.2131,-8.2005,-8.1779,-8.1453,-8.1202,-8.1026,-8.1026,-8.1152,-8.1328,-8.1328,-8.1478,-8.1629,-8.1403,-8.0951,-8.0474,-8.0273,-7.9821,-7.9394,-7.9394,-7.9394,-7.9394,-7.9394,-7.9394,-7.9394,-7.9394,-7.9394,-7.9444,-7.9645,-7.9796,-8.0122,-8.0876,-8.2069,-8.4638,-8.9366,-9.1246,-9.3571,-9.7935,-9.8538,-9.8538,-9.8538,-9.8538,-9.8538,-9.8538,-9.8538,-9.8538,-9.8538,-9.8538,-9.8538,-9.8538,-9.8538,-9.8718,-9.9107,-10.0004,-10.0693,-10.1082,-10.2009,-10.2488,-10.2488,-10.2488,-10.2817,-10.3416,-10.4104,-10.4792,-4.1254,-4.507,-4.9213,0.0,0.0,0.0,-5.9885,-6.1567,-6.3425,-6.6488,-6.7141,-6.7392,-6.8145,-6.9677,-7.1309,-7.2765,-7.5176,-7.7461,-7.9143,-8.0323,-8.1227,-8.1754,-8.2307,-8.2683,-8.2683,-8.2683,-8.2683,-8.2683,-8.2683,-8.2683,-8.2683,-8.2683,-8.2683,-8.2683,-8.2683,-8.2683,-8.2683,-8.2683,-8.2683,-8.2683,-8.2683,-8.2683,-8.2683,-8.2683,-8.2457,-8.2106,-8.2508,-8.2332,-8.1805,-8.1805,-8.1604,-8.1252,-8.0725,-8.0524,-8.0524,-8.0524,-8.0624,-8.0775,-8.0775,-8.0876,-8.1026,-8.1026,-8.0675,-8.0223,-8.0223,-7.9821,-7.9394,-7.9394,-7.9394,-7.9394,-7.9394,-7.9394,-7.9394,-7.9394,-7.9394,-7.9444,-7.962,-7.9796,-8.0223,-8.1102,-8.1859,-8.4147,-8.964,-9.105,-9.3152,-9.7876,-9.8538,-9.8538,-9.8538,-9.8538,-9.8538,-9.8538,-9.8538,-9.8538,-9.8538,-9.8538,-9.8538,-9.8538,-9.8538,-9.8718,-9.9167,-10.0004,-10.0693,-10.1171,-10.2069,-10.2488,-10.2488,-10.2488,-10.2907,-10.3715,-10.4194,-10.4882,-4.5296,-4.7104,-4.959,0.0,0.0,0.0,-6.3375,-6.3249,-6.3802,-6.9853,-7.0255,-6.9803,-7.0907,-7.0656,-7.1008,-7.3242,-7.5452,-7.7461,-7.9143,-8.0323,-8.1227,-8.1729,-8.2307,-8.2658,-8.2658,-8.2658,-8.2658,-8.2683,-8.2683,-8.2683,-8.2683,-8.2683,-8.2683,-8.2683,-8.2683,-8.2683,-8.2683,-8.2658,-8.2658,-8.2683,-8.2658,-8.2658,-8.2683,-8.2683,-8.2658,-8.2658,-8.2658,-8.2332,-8.1779,-8.1779,-8.1152,-8.0147,-7.9595,-7.9394,-7.9394,-7.9394,-7.9746,-8.0198,-8.0198,-8.0574,-8.1026,-8.1026,-8.065,-8.0198,-8.0223,-7.9821,-7.9394,-7.9394,-7.9394,-7.9394,-7.9394,-7.9394,-7.9394,-7.9394,-7.9394,-7.9545,-8.0097,-7.9771,-7.9871,-8.1503,-8.3088,-8.5383,-8.9899,-9.2265,-9.4635,-9.8027,-9.8538,-9.8538,-9.8538,-9.8538,-9.8538,-9.8538,-9.8538,-9.8538,-9.8538,-9.8538,-9.8538,-9.8538,-9.8538,-9.8538,-9.8538,-9.9795,-10.0483,-10.0483,-10.18,-10.2488,-10.2488,-10.2488,-10.3176,-10.4403,-10.4403,-10.5121,-4.3413,-4.7054,0.0,-5.3783,0.0,0.0,0.0,-6.7317,0.0,0.0,-7.2866,-7.2339,-7.2263,-7.2439,-7.2941,-7.3996,-7.5703,-7.7335,-7.8591,-7.9746,-8.0524,-8.0675,-8.1177,-8.1654,-8.2031,-8.2056,-8.2231,-8.2633,-8.2683,-8.2683,-8.2683,-8.2683,-8.2683,-8.2683,-8.2683,-8.2683,-8.2683,-8.2257,-8.2257,-8.2658,-8.188,-8.193,-8.2683,-8.2683,-8.2257,-8.1553,-8.1905,-8.1553,-8.0675,-8.0675,-8.0273,-7.962,-7.9444,-7.9394,-7.9394,-7.9394,-7.9495,-7.9645,-7.9645,-7.9746,-7.9947,-8.0323,-8.0072,-7.9695,-8.0097,-7.9821,-7.9394,-7.9394,-7.9394,-7.9394,-7.9394,-7.9394,-7.9495,-7.9871,-7.967,-7.9645,-8.0599,-8.0047,-7.9871,-8.1503,-8.3397,-8.5862,-8.9954,-9.2633,-9.5315,-9.8087,-9.8538,-9.8538,-9.8538,-9.8538,-9.8538,-9.8538,-9.8538,-9.8538,-9.8538,-9.8538,-9.8538,-9.8538,-9.8538,-9.8927,-9.9855,-10.0274,-10.0902,-10.189,-10.2309,-10.2488,-10.2488,-10.2488,-10.2907,-10.3715,-10.4194,-10.4882,-4.6527,-5.0645,0.0,-5.8127,-6.2421,-6.684,-7.0154,0.0,0.0,-7.4297,-7.4121,-7.3619,-7.372,-7.382,-7.4247,-7.5226,-7.6607,-7.7837,-7.8741,-7.9645,-8.0223,-8.0223,-8.07,-8.1152,-8.1478,-8.1503,-8.1654,-8.2005,-8.2031,-8.2031,-8.2031,-8.2031,-8.2106,-8.2332,-8.2131,-8.2131,-8.2332,-8.1779,-8.1679,-8.2005,-8.1353,-8.1478,-8.2332,-8.2332,-8.1855,-8.1051,-8.1127,-8.08,-8.0198,-7.9972,-7.9695,-7.9394,-7.9394,-7.9394,-7.9394,-7.9394,-7.9394,-7.9394,-7.9394,-7.9394,-7.9469,-8.0022,-7.9846,-7.9495,-8.0047,-7.9821,-7.9394,-7.9394,-7.9394,-7.9394,-7.9394,-7.9394,-7.952,-8.0072,-7.9947,-7.9947,-8.085,-8.0524,-8.0398,-8.1579,-8.4325,-8.7448,-9.0207,-9.3533,-9.6425,-9.8268,-9.8538,-9.8538,-9.8538,-9.8538,-9.8538,-9.8538,-9.8538,-9.8538,-9.8538,-9.8538,-9.8538,-9.8538,-9.8778,-9.9376,-10.0453,-10.0483,-10.0992,-10.2069,-10.2368,-10.2488,-10.2488,-10.2728,-10.3206,-10.3805,-10.4493,-10.5211,-5.2226,-5.5917,0.0,-6.4178,-6.6438,0.0,-7.3318,-7.4372,-7.4598,-7.5176,-7.4523,-7.4121,-7.5126,-7.49,-7.5101,-7.6682,-7.7787,-7.8666,-7.9294,-7.9821,-8.0147,-8.0147,-8.0574,-8.0901,-8.0951,-8.0951,-8.0976,-8.1026,-8.1026,-8.1026,-8.1026,-8.1026,-8.1252,-8.1729,-8.1277,-8.1252,-8.1729,-8.1227,-8.0976,-8.1026,-8.0926,-8.1152,-8.1654,-8.1704,-8.1453,-8.0926,-8.0373,-8.0147,-8.0097,-7.9595,-7.9394,-7.9394,-7.9394,-7.9394,-7.9394,-7.9394,-7.9394,-7.9394,-7.9394,-7.9394,-7.9469,-7.9972,-7.9796,-7.9469,-7.9972,-7.9796,-7.9394,-7.9394,-7.9394,-7.9394,-7.9394,-7.9394,-7.952,-8.0072,-8.0223,-8.0373,-8.0976,-8.1076,-8.1202,-8.2179,-8.5751,-8.9244,-9.0798,-9.4651,-9.779,-9.8419,-9.8538,-9.8538,-9.8538,-9.8538,-9.8538,-9.8538,-9.8538,-9.8538,-9.8538,-9.8538,-9.8538,-9.8538,-9.9137,-9.9795,-10.0483,-10.0573,-10.0872,-10.1561,-10.2189,-10.2488,-10.2488,-10.3087,-10.3685,-10.4313,-10.5032,-10.572,-5.0117,-5.421,0.0,0.0,-6.8748,-7.2464,-7.3519,-7.4096,-7.4699,-7.5678,-7.5678,-7.5603,-7.5829,-7.5778,-7.6105,-7.7335,-7.7712,-7.8239,-7.9243,-7.9495,-7.957,-7.957,-7.967,-7.9921,-8.0348,-8.0398,-8.0574,-8.1001,-8.1026,-8.1026,-8.1026,-8.1026,-8.1076,-8.1202,-8.1102,-8.1076,-8.1202,-8.065,-8.0599,-8.1026,-8.0147,-8.0022,-8.0574,-8.1001,-8.0901,-8.0348,-7.9796,-7.957,-7.9545,-7.9444,-7.9394,-7.9394,-7.9394,-7.9394,-7.9394,-7.9394,-7.9394,-7.9394,-7.9394,-7.9394,-7.9394,-7.952,-7.9495,-7.9419,-7.952,-7.9469,-7.9394,-7.9394,-7.9394,-7.9394,-7.9394,-7.9394,-7.952,-8.0072,-8.0223,-8.0474,-8.1428,-8.1328,-8.191,-8.5082,-8.7751,-9.0521,-9.3237,-9.6233,-9.8359,-9.8508,-9.8538,-9.8538,-9.8538,-9.8538,-9.8538,-9.8538,-9.8538,-9.8538,-9.8538,-9.8538,-9.8538,-9.8538,-9.9137,-9.9795,-10.0483,-10.0962,-10.1561,-10.2279,-10.2398,-10.2488,-10.2488,-10.2608,-10.2997,-10.3625,-10.4313,-10.5002,-5.0946,0.0,0.0,-6.6237,0.0,-7.2916,-7.3468,-7.382,-7.4272,-7.5101,-7.5477,-7.5653,-7.5653,-7.6105,-7.6632,-7.721,-7.7536,-7.7913,-7.849,-7.8591,-7.8666,-7.8942,-7.8967,-7.9193,-7.9771,-7.9821,-7.9947,-8.0223,-8.0248,-8.0248,-8.0248,-8.0248,-8.0373,-8.0624,-8.0373,-8.0373,-8.0624,-8.0097,-7.9972,-8.0248,-7.967,-7.9545,-7.9821,-8.0122,-8.0223,-8.0173,-7.962,-7.9394,-7.9394,-7.9394,-7.9394,-7.9394,-7.9394,-7.9394,-7.9394,-7.9394,-7.9394,-7.9394,-7.9394,-7.9394,-7.9394,-7.9394,-7.9394,-7.9394,-7.9394,-7.9394,-7.9394,-7.9394,-7.9394,-7.9394,-7.9394,-7.9394,-7.9469,-7.9746,-8.0022,-8.0424,-8.1252,-8.2202,-8.332,-8.528,-8.8928,-9.2145,-9.3843,-9.6543,-9.8538,-9.8538,-9.8538,-9.8538,-9.8538,-9.8538,-9.8538,-9.8538,-9.8538,-9.8538,-9.8538,-9.8538,-9.8538,-9.8538,-9.9137,-9.9795,-10.0483,-10.1082,-10.177,-10.2488,-10.2488,-10.2488,-10.2488,-10.2787,-10.3117,-10.3416,-10.4433,-10.5091,-5.1122,0.0,-6.1994,-6.8396,-7.0882,0.0,-7.2941,-7.3167,-7.3293,-7.3745,-7.4523,-7.5101,-7.5101,-7.5829,-7.6507,-7.6707,-7.7109,-7.7486,-7.7662,-7.7712,-7.7862,-7.8314,-7.839,-7.8566,-7.9043,-7.9093,-7.9093,-7.9093,-7.9093,-7.9143,-7.9243,-7.9243,-7.9444,-7.9896,-7.957,-7.9545,-7.9921,-7.957,-7.9394,-7.9394,-7.9394,-7.9394,-7.9394,-7.9394,-7.9645,-8.0047,-7.9469,-7.9243,-7.9243,-7.9143,-7.9143,-7.9243,-7.9243,-7.9294,-7.9394,-7.9394,-7.9394,-7.9394,-7.9394,-7.9394,-7.9394,-7.9394,-7.9394,-7.9394,-7.9394,-7.9394,-7.9394,-7.9394,-7.9394,-7.9394,-7.9394,-7.9394,-7.9394,-7.9394,-7.9746,-8.0223,-8.0775,-8.2882,-8.4871,-8.5475,-9.024,-9.4246,-9.4362,-9.6762,-9.8538,-9.8538,-9.8538,-9.8538,-9.8538,-9.8538,-9.8538,-9.8538,-9.8538,-9.8538,-9.8538,-9.8538,-9.8538,-9.8538,-9.9137,-9.9735,-10.0304,-10.1082,-10.177,-10.2309,-10.2398,-10.2488,-10.2488,-10.2997,-10.3236,-10.3296,-10.4613,-10.5241,-4.5171,0.0,-6.232,0.0,-7.0029,-7.1234,-7.1384,-7.141,-7.1435,-7.151,-7.3117,-7.4523,-7.4523,-7.4649,-7.505,-7.6004,-7.623,-7.6607,-7.7561,-7.7712,-7.7737,-7.7812,-7.7812,-7.7837,-7.7913,-7.7938,-7.7938,-7.7938,-7.7938,-7.8139,-7.8616,-7.8641,-7.8666,-7.8741,-7.9168,-7.9168,-7.8741,-7.9168,-7.9394,-7.9394,-7.9394,-7.9394,-7.9394,-7.9394,-7.9419,-7.9469,-7.8892,-7.8641,-7.8591,-7.8114,-7.8214,-7.8641,-7.8641,-7.8942,-7.9394,-7.9394,-7.9394,-7.9394,-7.9394,-7.9394,-7.9394,-7.9394,-7.9394,-7.9394,-7.9394,-7.9394,-7.9394,-7.9394,-7.9394,-7.9394,-7.9394,-7.9394,-7.9394,-7.9394,-7.9444,-7.9645,-8.0198,-8.2598,-8.5475,-8.7829,-9.2952,-9.7102,-9.7697,-9.8268,-9.8538,-9.8538,-9.8538,-9.8538,-9.8538,-9.8538,-9.8538,-9.8538,-9.8538,-9.8538,-9.8538,-9.8538,-9.8538,-9.8538,-9.9137,-9.9556,-9.9615,-10.0782,-10.1471,-10.159,-10.2189,-10.2488,-10.2488,-10.2578,-10.2608,-10.2668,-10.3924,-10.4523,-4.6954,-5.3959,-6.0613,0.0,-6.8246,-6.9476,-7.0405,-7.0857,-7.1083,-7.1083,-7.1861,-7.274,-7.3368,-7.3996,-7.4573,-7.505,-7.5402,-7.5778,-7.6256,-7.6582,-7.6883,-7.721,-7.7235,-7.736,-7.7662,-7.7712,-7.7712,-7.7712,-7.7712,-7.7812,-7.8038,-7.8063,-7.8063,-7.8063,-7.8314,-7.8314,-7.8063,-7.8314,-7.844,-7.844,-7.9093,-7.9218,-7.8917,-7.9243,-7.9394,-7.9344,-7.8766,-7.8515,-7.849,-7.7938,-7.8038,-7.8515,-7.8515,-7.8867,-7.9394,-7.9394,-7.9394,-7.9394,-7.9394,-7.9394,-7.9394,-7.9394,-7.9394,-7.9394,-7.9394,-7.9394,-7.9394,-7.9394,-7.9394,-7.9394,-7.9394,-7.9394,-7.9394,-7.9394,-8.0549,-8.1564,-8.1797,-8.416,-8.7396,-9.2163,-9.5223,-9.7311,-9.8359,-9.8538,-9.8538,-9.8538,-9.8538,-9.8538,-9.8538,-9.8538,-9.8538,-9.8538,-9.8538,-9.8538,-9.8538,-9.8538,-9.8538,-9.8538,-9.8808,-9.9137,-9.9496,-10.0393,-10.1082,-10.1471,-10.2159,-10.2488,-10.2488,-10.2488,-10.2488,-10.2518,-10.3805,-10.4403,0.0,0.0,-5.6595,-6.2546,-6.5409,-6.7216,-6.9024,-6.9953,-7.0506,-7.0631,-7.0782,-7.1133,-7.1937,-7.3016,-7.387,-7.4171,-7.4548,-7.4875,-7.5,-7.5377,-7.5778,-7.6205,-7.6381,-7.6632,-7.7034,-7.721,-7.7285,-7.7285,-7.7285,-7.7335,-7.7486,-7.7486,-7.7486,-7.7486,-7.7637,-7.7637,-7.7486,-7.7637,-7.7712,-7.7712,-7.854,-7.8817,-7.854,-7.8967,-7.9243,-7.9344,-7.8616,-7.8239,-7.8063,-7.7662,-7.7812,-7.8314,-7.8465,-7.8867,-7.9394,-7.9394,-7.9394,-7.9394,-7.9394,-7.9394,-7.9394,-7.9394,-7.9394,-7.9394,-7.9394,-7.9394,-7.9394,-7.9394,-7.9394,-7.9394,-7.9394,-7.9394,-7.9394,-7.9394,-8.1285,-8.3577,-8.4921,-8.6627,-8.9595,-9.5318,-9.6444,-9.6892,-9.785,-9.8149,-9.8209,-9.8059,-9.8149,-9.8269,-9.8269,-9.8419,-9.8538,-9.8538,-9.8538,-9.8538,-9.8538,-9.8538,-9.8538,-9.8538,-9.8538,-9.8748,-9.9226,-10.0064,-10.0693,-10.1201,-10.2069,-10.2488,-10.2488,-10.2488,-10.2488,-10.2518,-10.3625,-10.4134,0.0,-4.5924,0.0,-5.6545,-6.114,-6.4479,-6.6639,-6.797,-6.8899,-6.9426,-6.9928,-7.033,-7.038,-7.1284,-7.2389,-7.3468,-7.3669,-7.387,-7.4372,-7.4473,-7.4523,-7.4548,-7.5,-7.5327,-7.5377,-7.5829,-7.613,-7.613,-7.613,-7.6381,-7.6883,-7.6908,-7.6908,-7.6908,-7.7436,-7.7461,-7.6933,-7.7436,-7.7712,-7.7712,-7.7762,-7.8038,-7.8515,-7.8566,-7.8867,-7.9319,-7.8214,-7.7436,-7.6959,-7.6933,-7.726,-7.7787,-7.8314,-7.8867,-7.9394,-7.9394,-7.9394,-7.9394,-7.9394,-7.9394,-7.9394,-7.9394,-7.9394,-7.9394,-7.9394,-7.9394,-7.9394,-7.9394,-7.9394,-7.9394,-7.9394,-7.9394,-7.9394,-7.9394,-8.1285,-8.4532,-8.9283,-9.0413,-9.1551,-9.493,-9.6144,-9.6593,-9.6653,-9.7162,-9.7341,-9.6743,-9.7162,-9.7551,-9.7551,-9.8119,-9.8538,-9.8538,-9.8538,-9.8538,-9.8538,-9.8538,-9.8538,-9.8538,-9.8538,-9.8538,-9.8568,-9.9795,-10.0483,-10.0573,-10.18,-10.2488,-10.2488,-10.2488,-10.2488,-10.2488,-10.3206,-10.3506,-3.9647,0.0,0.0,-5.2377,-5.657,-5.9985,-6.2195,-6.5233,-6.7618,-6.7819,-6.8848,-6.9853,-7.0204,-7.1158,-7.2037,-7.2439,-7.3117,-7.3669,-7.387,-7.4197,-7.4423,-7.4423,-7.49,-7.5251,-7.5251,-7.5728,-7.6055,-7.6055,-7.6055,-7.613,-7.6331,-7.6356,-7.6356,-7.6356,-7.6532,-7.6557,-7.6356,-7.726,-7.7335,-7.6657,-7.8088,-7.8515,-7.8013,-7.8365,-7.844,-7.8264,-7.7511,-7.726,-7.736,-7.6632,-7.6682,-7.7185,-7.7385,-7.8038,-7.8842,-7.8842,-7.9068,-7.9394,-7.9394,-7.9394,-7.9394,-7.9394,-7.9394,-7.9394,-7.9394,-7.9394,-7.9394,-7.9394,-7.9394,-7.9394,-7.9394,-8.0524,-8.2638,-8.5861,-8.6244,-8.7007,-9.2124,-9.1946,-9.1761,-9.49,-9.5785,-9.6084,-9.6503,-9.6743,-9.6833,-9.6593,-9.6743,-9.7042,-9.7431,-9.77,-9.803,-9.8478,-9.8538,-9.8538,-9.8538,-9.8538,-9.8538,-9.8538,-9.8538,-9.8538,-9.8538,-9.9376,-10.0064,-10.0483,-10.1381,-10.2069,-10.2488,-10.2488,-10.2488,-10.2488,-10.3117,-10.3416,-3.7086,-4.045,0.0,-4.9289,-5.2226,-5.5189,-5.9834,-6.2747,-6.4881,-6.6388,-6.7869,-6.9049,-6.9602,-7.0606,-7.1485,-7.1836,-7.2539,-7.3092,-7.3268,-7.3619,-7.3845,-7.3845,-7.4347,-7.4699,-7.4699,-7.5176,-7.5502,-7.5502,-7.5502,-7.5578,-7.5778,-7.5778,-7.5854,-7.6055,-7.6055,-7.6055,-7.6055,-7.6783,-7.6783,-7.608,-7.7561,-7.7963,-7.7436,-7.7812,-7.7963,-7.7938,-7.7385,-7.7159,-7.7109,-7.6758,-7.6707,-7.6933,-7.7486,-7.8038,-7.854,-7.8741,-7.9068,-7.9394,-7.9394,-7.9394,-7.9394,-7.9394,-7.9394,-7.9394,-7.9394,-7.9394,-7.9394,-7.9394,-7.9394,-7.9394,-7.9394,-8.1311,-8.4532,-8.9652,-8.9468,-8.9468,-9.3658,-9.3277,-9.2657,-9.4808,-9.5456,-9.5666,-9.5875,-9.6084,-9.6174,-9.5935,-9.6294,-9.6713,-9.7132,-9.7581,-9.803,-9.8478,-9.8538,-9.8538,-9.8538,-9.8538,-9.8538,-9.8538,-9.8538,-9.8538,-9.8538,-9.9167,-9.9825,-10.0483,-10.1171,-10.18,-10.2488,-10.2488,-10.2488,-10.2488,-10.2907,-10.3206,0.0,0.0,0.0,-4.6979,-4.8159,-5.0243,-5.9458,-6.0362,-6.0537,-6.5007,-6.6815,-6.7769,-6.8447,-6.9451,-7.0556,-7.1661,-7.1861,-7.2062,-7.2615,-7.269,-7.2715,-7.2715,-7.3217,-7.3594,-7.3594,-7.4096,-7.4423,-7.4423,-7.4423,-7.4649,-7.5201,-7.5226,-7.5477,-7.6004,-7.603,-7.603,-7.6055,-7.608,-7.608,-7.6055,-7.608,-7.6381,-7.6883,-7.6883,-7.7461,-7.844,-7.7888,-7.7034,-7.613,-7.7235,-7.736,-7.7034,-7.8666,-7.8967,-7.8566,-7.9118,-7.9344,-7.9369,-7.9344,-7.9369,-7.9394,-7.9369,-7.9369,-7.9394,-7.9394,-7.9394,-7.9394,-7.9394,-7.9394,-7.9394,-7.9575,-8.1487,-8.4532,-8.9652,-9.0806,-9.1558,-9.4037,-9.4618,-9.4618,-9.4618,-9.5127,-9.5366,-9.4708,-9.5127,-9.5366,-9.4738,-9.5725,-9.6563,-9.6593,-9.77,-9.8508,-9.8538,-9.8538,-9.8538,-9.8538,-9.8538,-9.8538,-9.8538,-9.8538,-9.8538,-9.8538,-9.9137,-9.9795,-10.0483,-10.1082,-10.177,-10.2488,-10.2488,-10.2488,-10.2488,-10.2488,-10.2817,-3.4951,0.0,0.0,0.0,0.0,0.0,-4.9866,-5.2477,-5.5516,-6.0337,-6.1893,-6.3425,-6.6815,-6.802,-6.8848,-6.9953,-7.0782,-7.1359,-7.151,-7.1887,-7.2138,-7.2138,-7.2991,-7.3594,-7.3594,-7.4096,-7.4423,-7.4423,-7.4423,-7.4473,-7.4649,-7.4649,-7.49,-7.5452,-7.5477,-7.5653,-7.6055,-7.6456,-7.6456,-7.6055,-7.6858,-7.7109,-7.6883,-7.6883,-7.7034,-7.731,-7.6758,-7.6331,-7.6105,-7.6808,-7.7009,-7.6883,-7.6959,-7.736,-7.7888,-7.7662,-7.8063,-7.8716,-7.8314,-7.8691,-7.9319,-7.8892,-7.9043,-7.9394,-7.9394,-7.9394,-7.9394,-7.9394,-7.9394,-8.0345,-8.3971,-8.5475,-8.7197,-9.2332,-9.2124,-9.1558,-9.4037,-9.4618,-9.4618,-9.4618,-9.4768,-9.4828,-9.4648,-9.4768,-9.4977,-9.5277,-9.5636,-9.6204,-9.7132,-9.7551,-9.797,-9.8478,-9.8538,-9.8538,-9.8538,-9.8538,-9.8538,-9.8538,-9.8538,-9.8538,-9.8538,-9.8688,-9.9107,-9.9765,-10.0393,-10.1082,-10.177,-10.2279,-10.2488,-10.2488,-10.2488,-10.2608,-3.6659,0.0,0.0,-4.1128,0.0,0.0,-4.8134,-4.9741,-5.19,-5.7349,-5.9282,-6.0989,-6.4279,-6.5735,-6.6764,-6.7869,-6.8974,-7.0029,-7.0958,-7.1359,-7.156,-7.156,-7.2138,-7.2539,-7.2539,-7.3042,-7.3368,-7.3368,-7.3594,-7.382,-7.4071,-7.4297,-7.4573,-7.4875,-7.49,-7.5151,-7.5703,-7.603,-7.6155,-7.6055,-7.6707,-7.6833,-7.6532,-7.6532,-7.6657,-7.6858,-7.6532,-7.6406,-7.6431,-7.6733,-7.6733,-7.6557,-7.6682,-7.6984,-7.736,-7.7511,-7.7963,-7.8465,-7.8164,-7.8641,-7.9294,-7.8716,-7.8741,-7.9018,-7.9018,-7.8867,-7.8921,-8.0293,-8.1481,-8.3577,-8.7575,-8.8512,-8.9652,-9.3658,-9.3453,-9.2717,-9.4241,-9.4618,-9.4618,-9.4618,-9.4618,-9.4618,-9.4618,-9.4618,-9.4738,-9.5127,-9.5666,-9.6264,-9.7012,-9.7581,-9.8089,-9.8478,-9.8538,-9.8538,-9.8538,-9.8538,-9.8538,-9.8538,-9.8538,-9.8538,-9.8538,-9.8538,-9.8837,-9.9496,-10.0184,-10.0962,-10.189,-10.2309,-10.2488,-10.2488,-10.2488,-10.2488,-3.9546,0.0,0.0,-4.4819,-4.3363,0.0,-5.0092,-4.9464,-4.9038,-5.4687,-5.6872,-5.8403,-6.0512,-6.2295,-6.3802,-6.4831,-6.6363,-6.8221,-7.048,-7.0907,-7.0983,-7.0983,-7.1033,-7.1083,-7.1083,-7.1535,-7.1811,-7.1811,-7.2339,-7.2866,-7.3368,-7.392,-7.4247,-7.4322,-7.4322,-7.4598,-7.5151,-7.5151,-7.5427,-7.5954,-7.5954,-7.6004,-7.6055,-7.6055,-7.6331,-7.6783,-7.6783,-7.6783,-7.6783,-7.6783,-7.6532,-7.623,-7.7159,-7.726,-7.6984,-7.7988,-7.839,-7.844,-7.844,-7.8867,-7.9294,-7.8716,-7.8515,-7.8515,-7.8515,-7.8189,-7.8468,-8.1472,-8.4849,-8.7951,-9.0231,-9.0987,-9.1766,-9.4037,-9.4618,-9.4618,-9.4618,-9.4618,-9.4618,-9.4618,-9.4618,-9.4618,-9.4618,-9.4618,-9.4648,-9.4708,-9.5725,-9.6503,-9.6563,-9.7641,-9.8419,-9.8419,-9.8478,-9.8538,-9.8538,-9.8538,-9.8538,-9.8538,-9.8538,-9.8538,-9.8538,-9.8538,-9.8808,-9.9376,-10.0094,-10.1171,-10.2488,-10.2488,-10.2488,-10.2488,-10.2488,-10.2488,-4.4518,-4.5723,-4.6828,-4.4141,-4.5673,0.0,-4.4242,-4.4116,-4.5321,-4.7883,-4.7581,-4.8335,-5.3155,-5.5742,-5.7374,-5.8027,-6.2069,-6.6061,-6.8723,-6.9853,-7.043,-7.043,-7.0807,-7.1083,-7.1083,-7.1184,-7.1259,-7.1259,-7.1761,-7.2113,-7.2238,-7.2765,-7.3268,-7.3745,-7.377,-7.4021,-7.4573,-7.4573,-7.4849,-7.5402,-7.5402,-7.5628,-7.6055,-7.6055,-7.6105,-7.623,-7.623,-7.623,-7.623,-7.623,-7.6406,-7.6682,-7.6456,-7.6582,-7.6908,-7.7109,-7.7486,-7.7862,-7.7862,-7.854,-7.9294,-7.8716,-7.8515,-7.8515,-7.8515,-7.844,-7.905,-8.2099,-8.6326,-9.0231,-9.0624,-9.2332,-9.4037,-9.4415,-9.4618,-9.4618,-9.4618,-9.4618,-9.4618,-9.4618,-9.4618,-9.4618,-9.4618,-9.4618,-9.4798,-9.5306,-9.5606,-9.5965,-9.6503,-9.7222,-9.77,-9.77,-9.8179,-9.8538,-9.8538,-9.8538,-9.8538,-9.8538,-9.8538,-9.8538,-9.8538,-9.8538,-9.8598,-9.8718,-9.9885,-10.1171,-10.2488,-10.2488,-10.2488,-10.2488,-10.2488,-10.2488,-4.7883,-4.8134,-4.8786,-4.7104,-4.733,0.0,0.0,-4.4593,-4.4744,-4.8109,-4.6577,-4.6175,-5.1172,-5.2779,-5.3783,-5.5164,-5.9332,-6.2697,-6.355,-6.6538,-6.8723,-6.8999,-6.9024,-6.925,-6.9803,-7.0104,-7.0506,-7.1033,-7.1334,-7.1485,-7.1485,-7.2012,-7.2464,-7.274,-7.3016,-7.3418,-7.3996,-7.3996,-7.4423,-7.5251,-7.5251,-7.5527,-7.6055,-7.6055,-7.6055,-7.6055,-7.6055,-7.6055,-7.6055,-7.6055,-7.623,-7.6431,-7.6155,-7.623,-7.6507,-7.6783,-7.7235,-7.7712,-7.7712,-7.8264,-7.8917,-7.8616,-7.834,-7.8114,-7.8114,-7.9798,-8.2357,-8.4081,-8.8473,-9.2688,-9.2688,-9.3658,-9.4618,-9.4618,-9.4618,-9.4618,-9.4618,-9.4618,-9.4618,-9.4618,-9.4618,-9.4618,-9.4618,-9.4618,-9.4708,-9.5037,-9.5396,-9.5815,-9.6473,-9.6833,-9.7281,-9.794,-9.8,-9.8149,-9.8478,-9.8538,-9.8538,-9.8538,-9.8538,-9.8538,-9.8538,-9.8538,-9.8837,-9.9496,-10.0184,-10.1171,-10.2488,-10.2488,-10.2488,-10.2488,-10.2488,-10.2488,-5.1172,-5.0845,-5.1322,-5.0594,-4.9389,-4.836,0.0,0.0,0.0,-4.8661,-4.6878,-4.5849,-4.964,-5.0067,-5.0419,-5.2201,-5.5993,-5.8278,-5.6997,-6.1291,-6.5032,-6.6212,-6.6338,-6.6764,-6.7869,-6.7995,-6.8698,-7.033,-6.9953,-6.9978,-7.0732,-7.1384,-7.1761,-7.1761,-7.2288,-7.2791,-7.3268,-7.3368,-7.392,-7.4925,-7.4925,-7.5276,-7.5904,-7.5904,-7.5954,-7.6055,-7.6055,-7.6055,-7.6055,-7.6055,-7.6055,-7.6055,-7.6055,-7.6055,-7.613,-7.6682,-7.7235,-7.7712,-7.7812,-7.8214,-7.8691,-7.8691,-7.8314,-7.7862,-7.8418,-8.1793,-8.5647,-8.6629,-9.0763,-9.4618,-9.4618,-9.4618,-9.4618,-9.4618,-9.4499,-9.4439,-9.4588,-9.4499,-9.4439,-9.4588,-9.4618,-9.4618,-9.4618,-9.4618,-9.4618,-9.4618,-9.5067,-9.5606,-9.6144,-9.6414,-9.6982,-9.803,-9.788,-9.791,-9.8478,-9.8538,-9.8538,-9.8538,-9.8538,-9.8538,-9.8538,-9.8538,-9.9137,-10.0483,-10.0483,-10.1171,-10.2488,-10.2488,-10.2488,-10.2488,-10.2488,-10.2488,-5.6018,-5.6846,-5.7097,-5.1749,-5.313,-5.3683,-4.5573,0.0,-4.5347,-4.2961,0.0,-4.2258,-4.374,0.0,0.0,-4.4995,-4.954,-5.2302,-5.0193,-5.3406,-5.7273,-6.0763,-6.2873,-6.4479,-6.5559,-6.3952,-6.4329,-6.7894,-6.5911,-6.6036,-6.9451,-7.0606,-7.1184,-7.1184,-7.1711,-7.2037,-7.2087,-7.259,-7.3142,-7.377,-7.377,-7.4322,-7.5327,-7.5327,-7.5603,-7.6055,-7.6055,-7.6055,-7.6055,-7.6055,-7.6055,-7.6055,-7.6055,-7.6055,-7.613,-7.6682,-7.7235,-7.7762,-7.8264,-7.8817,-7.9294,-7.9294,-7.8892,-7.8797,-8.1076,-8.3705,-8.6629,-8.9551,-9.2451,-9.4618,-9.4618,-9.4618,-9.4618,-9.4618,-9.4139,-9.387,-9.4469,-9.4139,-9.387,-9.4499,-9.4618,-9.4618,-9.4618,-9.4618,-9.4618,-9.4618,-9.4678,-9.4738,-9.4828,-9.5845,-9.6623,-9.6773,-9.776,-9.8448,-9.8508,-9.8538,-9.8538,-9.8538,-9.8538,-9.8538,-9.8538,-9.8538,-9.9137,-10.0483,-10.0483,-10.1171,-10.2488,-10.2488,-10.2488,-10.2488,-10.2488,-10.2488,-5.6475,-5.7374,-5.7549,-5.3356,-5.3256,-5.2703,-4.7104,-4.5321,-4.492,-4.5121,0.0,0.0,0.0,0.0,0.0,0.0,-4.7054,-4.8435,-4.62,-4.8661,-5.2377,-5.6922,-5.7725,-5.9081,-6.2119,-6.1567,-6.237,-6.5609,-6.3902,-6.4254,-6.7819,-6.9351,-7.028,-7.0606,-7.146,-7.1912,-7.1912,-7.2439,-7.3016,-7.3594,-7.3594,-7.3996,-7.4774,-7.5101,-7.5377,-7.5603,-7.5929,-7.6055,-7.6055,-7.6055,-7.6055,-7.6055,-7.6055,-7.6055,-7.608,-7.6306,-7.6758,-7.731,-7.7862,-7.7988,-7.7938,-7.7938,-7.7988,-7.8418,-8.108,-8.3493,-8.6157,-8.8848,-9.21,-9.4528,-9.411,-9.4319,-9.4618,-9.4618,-9.408,-9.378,-9.4469,-9.408,-9.3661,-9.396,-9.402,-9.39,-9.3511,-9.408,-9.4618,-9.4618,-9.4618,-9.4738,-9.5127,-9.5336,-9.5875,-9.6982,-9.7281,-9.77,-9.8448,-9.8538,-9.8538,-9.8538,-9.8538,-9.8538,-9.8538,-9.8538,-9.9137,-10.0483,-10.0483,-10.1171,-10.2488,-10.2488,-10.2488,-10.2488,-10.2488,-10.2488,-5.6535,-5.7797,-5.8278,-5.426,-5.2804,-5.1398,-4.7832,-4.605,-4.5598,-4.7154,-4.5974,0.0,0.0,0.0,-4.3991,-4.4342,0.0,-4.5623,-4.3237,-4.4869,-4.7958,-5.2377,-5.3381,-5.5039,-5.8403,-5.7926,-5.8981,-6.2822,-6.1014,-6.1718,-6.6262,-6.7945,-6.91,-6.9777,-7.0882,-7.1535,-7.1686,-7.2238,-7.2791,-7.3368,-7.3368,-7.3644,-7.4197,-7.4598,-7.495,-7.5251,-7.5653,-7.5929,-7.6055,-7.6055,-7.6055,-7.6055,-7.6055,-7.6055,-7.6055,-7.6055,-7.6406,-7.6933,-7.7335,-7.731,-7.7109,-7.7109,-7.736,-7.8065,-8.0714,-8.3306,-8.5712,-8.8134,-9.1425,-9.393,-9.3451,-9.3691,-9.405,-9.405,-9.3691,-9.3511,-9.4169,-9.378,-9.3361,-9.3541,-9.3421,-9.3152,-9.2673,-9.3571,-9.4319,-9.4319,-9.4499,-9.4798,-9.5247,-9.5067,-9.5426,-9.6833,-9.6892,-9.7192,-9.8149,-9.8419,-9.8538,-9.8538,-9.8538,-9.8538,-9.8538,-9.8688,-9.9316,-10.0483,-10.0663,-10.1291,-10.2488,-10.2488,-10.2488,-10.2488,-10.2488,-10.2802,-5.7594,-5.9732,-6.0964,-5.3909,-5.2528,-5.1473,-4.5974,-4.6753,-4.8184,-4.6677,-4.8837,-5.0368,-4.8259,-4.6954,-4.5673,-4.4091,-4.4317,0.0,0.0,-4.1605,-4.3413,-4.6276,-5.0795,-5.3984,-5.4687,-5.1825,-5.2628,-5.9156,-5.6118,-5.7298,-6.4931,-6.6438,-6.7543,-6.8648,-6.9752,-7.0581,-7.1108,-7.1661,-7.2213,-7.2765,-7.2765,-7.3067,-7.3619,-7.3644,-7.4222,-7.5251,-7.5251,-7.5578,-7.6055,-7.6055,-7.6055,-7.6055,-7.6055,-7.6055,-7.6055,-7.6055,-7.6406,-7.6883,-7.6883,-7.7235,-7.7662,-7.7662,-7.7687,-7.8266,-8.0688,-8.3306,-8.574,-8.837,-9.0779,-9.2673,-9.2643,-9.2643,-9.2673,-9.2673,-9.2643,-9.2823,-9.3481,-9.3092,-9.2823,-9.3451,-9.3062,-9.2613,-9.2613,-9.3152,-9.3601,-9.3601,-9.4169,-9.4618,-9.4648,-9.5187,-9.5576,-9.5636,-9.6743,-9.7491,-9.7521,-9.8149,-9.8538,-9.8538,-9.8538,-9.8538,-9.8538,-9.9137,-9.9795,-10.0483,-10.1082,-10.177,-10.2488,-10.2488,-10.2488,-10.2488,-10.2488,-10.3638,-5.8375,-6.1174,-6.2546,-5.6796,-5.4963,-5.3206,-4.7983,-4.8109,-4.8736,-4.6728,-4.8962,-5.0594,-4.8335,-4.7029,-4.5748,-4.4066,-4.3037,-4.1605,0.0,-3.9496,-4.0601,-4.2283,-4.6552,-4.9138,-4.8611,-4.8862,-5.0896,-5.534,-5.4436,-5.662,-6.3299,-6.5409,-6.6915,-6.8045,-6.9501,-7.0531,-7.1083,-7.1636,-7.2188,-7.274,-7.274,-7.2841,-7.3042,-7.3795,-7.4347,-7.4749,-7.5452,-7.5879,-7.6055,-7.6055,-7.6055,-7.6055,-7.6055,-7.6055,-7.6055,-7.6055,-7.618,-7.6331,-7.6331,-7.6933,-7.7586,-7.6833,-7.6858,-7.7658,-7.9668,-8.2414,-8.5045,-8.7019,-9.0074,-9.2494,-9.2075,-9.2284,-9.2613,-9.2613,-9.2254,-9.2135,-9.2793,-9.2404,-9.2015,-9.2254,-9.2105,-9.1805,-9.1386,-9.2194,-9.3092,-9.3511,-9.4169,-9.4618,-9.4618,-9.4798,-9.5097,-9.5546,-9.6354,-9.7042,-9.7461,-9.8119,-9.8538,-9.8538,-9.8538,-9.8538,-9.8538,-9.9167,-9.9825,-10.0483,-10.1171,-10.18,-10.2488,-10.2488,-10.2488,-10.2488,-10.2488,-10.3668,-5.697,-6.0205,-6.2115,-5.745,-5.6452,-5.5265,-5.0243,-5.0419,-5.0971,-4.8586,-5.0092,-5.1548,-5.0469,-4.8259,-4.6175,-4.4895,-4.2961,-4.0852,0.0,-3.8642,-3.9069,-3.9572,-4.3011,-4.5321,-4.5196,-4.5748,-4.7983,-5.2503,-5.2477,-5.4988,-6.1316,-6.4103,-6.6036,-6.7166,-6.8999,-7.0229,-7.0782,-7.1133,-7.1686,-7.2439,-7.2439,-7.2539,-7.274,-7.3494,-7.392,-7.4171,-7.5075,-7.5578,-7.5778,-7.5979,-7.6055,-7.6055,-7.6055,-7.6055,-7.6055,-7.6055,-7.6055,-7.6055,-7.6055,-7.6532,-7.7009,-7.6281,-7.6281,-7.6878,-7.7988,-8.1071,-8.4196,-8.5451,-8.8652,-9.1805,-9.1386,-9.1566,-9.1895,-9.1895,-9.1746,-9.1746,-9.2165,-9.1925,-9.1626,-9.1626,-9.1446,-9.1147,-9.0698,-9.1716,-9.2733,-9.3152,-9.402,-9.4618,-9.4618,-9.4618,-9.4768,-9.5187,-9.5845,-9.6563,-9.7431,-9.8119,-9.8538,-9.8538,-9.8538,-9.8628,-9.8867,-9.9496,-10.0184,-10.0782,-10.1471,-10.2069,-10.2488,-10.2488,-10.2488,-10.2488,-10.2488,-10.4157]}]]